<?xml version='1.0' encoding='UTF-8'?>
<gpx version="1.1" creator="https://www.komoot.de" xmlns="http://www.topografix.com/GPX/1/1" xmlns:xsi="http://www.w3.org/2001/XMLSchema-instance" xsi:schemaLocation="http://www.topografix.com/GPX/1/1 http://www.topografix.com/GPX/1/1/gpx.xsd">
  <metadata>
    <name>Gravel-Tour II</name>
    <author>
      <link href="https://www.komoot.de">
        <text>komoot</text>
        <type>text/html</type>
      </link>
    </author>
  </metadata>
  <trk>
    <name>Gravel-Tour II</name>
    <trkseg>
      <trkpt lat="51.564734" lon="7.175963">
        <ele>53.866465</ele>
        <time>2025-08-26T07:26:52.658Z</time>
      </trkpt>
      <trkpt lat="51.564779" lon="7.175864">
        <ele>53.866465</ele>
        <time>2025-08-26T07:26:54.901Z</time>
      </trkpt>
      <trkpt lat="51.564916" lon="7.175660">
        <ele>53.866465</ele>
        <time>2025-08-26T07:27:00.737Z</time>
      </trkpt>
      <trkpt lat="51.565255" lon="7.175384">
        <ele>53.866465</ele>
        <time>2025-08-26T07:27:13.524Z</time>
      </trkpt>
      <trkpt lat="51.565332" lon="7.175289">
        <ele>53.866465</ele>
        <time>2025-08-26T07:27:16.792Z</time>
      </trkpt>
      <trkpt lat="51.565611" lon="7.174571">
        <ele>55.366926</ele>
        <time>2025-08-26T07:27:35.038Z</time>
      </trkpt>
      <trkpt lat="51.565766" lon="7.174383">
        <ele>56.160720</ele>
        <time>2025-08-26T07:27:41.484Z</time>
      </trkpt>
      <trkpt lat="51.565767" lon="7.174292">
        <ele>56.392071</ele>
        <time>2025-08-26T07:27:43.327Z</time>
      </trkpt>
      <trkpt lat="51.565768" lon="7.174262">
        <ele>56.468438</ele>
        <time>2025-08-26T07:27:43.990Z</time>
      </trkpt>
      <trkpt lat="51.564723" lon="7.173536">
        <ele>61.123131</ele>
        <time>2025-08-26T07:28:28.440Z</time>
      </trkpt>
      <trkpt lat="51.565757" lon="7.173700">
        <ele>64.969815</ele>
        <time>2025-08-26T07:29:13.246Z</time>
      </trkpt>
      <trkpt lat="51.565435" lon="7.173237">
        <ele>66.564771</ele>
        <time>2025-08-26T07:29:30.764Z</time>
      </trkpt>
      <trkpt lat="51.565035" lon="7.172879">
        <ele>67.845512</ele>
        <time>2025-08-26T07:29:45.120Z</time>
      </trkpt>
      <trkpt lat="51.564898" lon="7.172834">
        <ele>67.821079</ele>
        <time>2025-08-26T07:29:48.064Z</time>
      </trkpt>
      <trkpt lat="51.564213" lon="7.172699">
        <ele>67.700487</ele>
        <time>2025-08-26T07:30:00.180Z</time>
      </trkpt>
      <trkpt lat="51.563677" lon="7.172444">
        <ele>67.602817</ele>
        <time>2025-08-26T07:30:10.159Z</time>
      </trkpt>
      <trkpt lat="51.563542" lon="7.172286">
        <ele>67.573644</ele>
        <time>2025-08-26T07:30:13.406Z</time>
      </trkpt>
      <trkpt lat="51.563464" lon="7.172096">
        <ele>67.548662</ele>
        <time>2025-08-26T07:30:16.172Z</time>
      </trkpt>
      <trkpt lat="51.563453" lon="7.172058">
        <ele>67.542721</ele>
        <time>2025-08-26T07:30:16.718Z</time>
      </trkpt>
      <trkpt lat="51.563439" lon="7.171815">
        <ele>67.508135</ele>
        <time>2025-08-26T07:30:19.722Z</time>
      </trkpt>
      <trkpt lat="51.563551" lon="7.170807">
        <ele>67.363018</ele>
        <time>2025-08-26T07:30:33.065Z</time>
      </trkpt>
      <trkpt lat="51.563686" lon="7.169543">
        <ele>67.181260</ele>
        <time>2025-08-26T07:30:48.492Z</time>
      </trkpt>
      <trkpt lat="51.563624" lon="7.168754">
        <ele>67.347918</ele>
        <time>2025-08-26T07:30:57.180Z</time>
      </trkpt>
      <trkpt lat="51.563647" lon="7.168486">
        <ele>67.460165</ele>
        <time>2025-08-26T07:31:00.233Z</time>
      </trkpt>
      <trkpt lat="51.563700" lon="7.168318">
        <ele>67.538329</ele>
        <time>2025-08-26T07:31:02.445Z</time>
      </trkpt>
      <trkpt lat="51.563828" lon="7.168103">
        <ele>67.661840</ele>
        <time>2025-08-26T07:31:06.037Z</time>
      </trkpt>
      <trkpt lat="51.564258" lon="7.167537">
        <ele>68.032658</ele>
        <time>2025-08-26T07:31:18.767Z</time>
      </trkpt>
      <trkpt lat="51.564620" lon="7.167153">
        <ele>68.322060</ele>
        <time>2025-08-26T07:31:31.190Z</time>
      </trkpt>
      <trkpt lat="51.564643" lon="7.167139">
        <ele>68.338473</ele>
        <time>2025-08-26T07:31:31.948Z</time>
      </trkpt>
      <trkpt lat="51.564986" lon="7.166916">
        <ele>68.891692</ele>
        <time>2025-08-26T07:31:43.601Z</time>
      </trkpt>
      <trkpt lat="51.565494" lon="7.166743">
        <ele>69.671065</ele>
        <time>2025-08-26T07:31:59.795Z</time>
      </trkpt>
      <trkpt lat="51.566425" lon="7.166504">
        <ele>71.095365</ele>
        <time>2025-08-26T07:32:19.837Z</time>
      </trkpt>
      <trkpt lat="51.566548" lon="7.166428">
        <ele>71.332601</ele>
        <time>2025-08-26T07:32:22.352Z</time>
      </trkpt>
      <trkpt lat="51.566647" lon="7.166262">
        <ele>71.590069</ele>
        <time>2025-08-26T07:32:25.324Z</time>
      </trkpt>
      <trkpt lat="51.566738" lon="7.165912">
        <ele>72.014674</ele>
        <time>2025-08-26T07:32:30.834Z</time>
      </trkpt>
      <trkpt lat="51.566775" lon="7.165701">
        <ele>72.260042</ele>
        <time>2025-08-26T07:32:34.369Z</time>
      </trkpt>
      <trkpt lat="51.566818" lon="7.165142">
        <ele>72.890445</ele>
        <time>2025-08-26T07:32:44.263Z</time>
      </trkpt>
      <trkpt lat="51.566746" lon="7.164025">
        <ele>74.147291</ele>
        <time>2025-08-26T07:33:06.899Z</time>
      </trkpt>
      <trkpt lat="51.566652" lon="7.163582">
        <ele>73.934590</ele>
        <time>2025-08-26T07:33:15.883Z</time>
      </trkpt>
      <trkpt lat="51.566550" lon="7.163319">
        <ele>73.631192</ele>
        <time>2025-08-26T07:33:21.231Z</time>
      </trkpt>
      <trkpt lat="51.566427" lon="7.163107">
        <ele>73.347363</ele>
        <time>2025-08-26T07:33:25.048Z</time>
      </trkpt>
      <trkpt lat="51.566280" lon="7.162994">
        <ele>73.090843</ele>
        <time>2025-08-26T07:33:27.968Z</time>
      </trkpt>
      <trkpt lat="51.566088" lon="7.162995">
        <ele>72.788533</ele>
        <time>2025-08-26T07:33:31.180Z</time>
      </trkpt>
      <trkpt lat="51.565451" lon="7.163302">
        <ele>71.741522</ele>
        <time>2025-08-26T07:33:43.140Z</time>
      </trkpt>
      <trkpt lat="51.565388" lon="7.163331">
        <ele>71.638346</ele>
        <time>2025-08-26T07:33:44.251Z</time>
      </trkpt>
      <trkpt lat="51.565133" lon="7.163428">
        <ele>71.191833</ele>
        <time>2025-08-26T07:33:47.693Z</time>
      </trkpt>
      <trkpt lat="51.565045" lon="7.163302">
        <ele>70.977785</ele>
        <time>2025-08-26T07:33:49.279Z</time>
      </trkpt>
      <trkpt lat="51.565043" lon="7.163157">
        <ele>70.813976</ele>
        <time>2025-08-26T07:33:50.501Z</time>
      </trkpt>
      <trkpt lat="51.565275" lon="7.162483">
        <ele>69.943821</ele>
        <time>2025-08-26T07:33:57.803Z</time>
      </trkpt>
      <trkpt lat="51.565309" lon="7.162375">
        <ele>69.807091</ele>
        <time>2025-08-26T07:33:59.561Z</time>
      </trkpt>
      <trkpt lat="51.565402" lon="7.162113">
        <ele>69.466333</ele>
        <time>2025-08-26T07:34:04.253Z</time>
      </trkpt>
      <trkpt lat="51.565421" lon="7.162059">
        <ele>69.396252</ele>
        <time>2025-08-26T07:34:05.177Z</time>
      </trkpt>
      <trkpt lat="51.565438" lon="7.162018">
        <ele>69.340589</ele>
        <time>2025-08-26T07:34:05.873Z</time>
      </trkpt>
      <trkpt lat="51.565458" lon="7.161954">
        <ele>69.259686</ele>
        <time>2025-08-26T07:34:06.861Z</time>
      </trkpt>
      <trkpt lat="51.565595" lon="7.161568">
        <ele>68.757669</ele>
        <time>2025-08-26T07:34:12.582Z</time>
      </trkpt>
      <trkpt lat="51.565732" lon="7.160998">
        <ele>67.971129</ele>
        <time>2025-08-26T07:34:19.673Z</time>
      </trkpt>
      <trkpt lat="51.565753" lon="7.160492">
        <ele>66.900451</ele>
        <time>2025-08-26T07:34:25.059Z</time>
      </trkpt>
      <trkpt lat="51.565688" lon="7.159954">
        <ele>65.743335</ele>
        <time>2025-08-26T07:34:30.478Z</time>
      </trkpt>
      <trkpt lat="51.565407" lon="7.159067">
        <ele>63.641463</ele>
        <time>2025-08-26T07:34:39.624Z</time>
      </trkpt>
      <trkpt lat="51.565356" lon="7.158583">
        <ele>62.605026</ele>
        <time>2025-08-26T07:34:43.958Z</time>
      </trkpt>
      <trkpt lat="51.565364" lon="7.157697">
        <ele>60.954790</ele>
        <time>2025-08-26T07:34:51.739Z</time>
      </trkpt>
      <trkpt lat="51.565424" lon="7.157241">
        <ele>60.133285</ele>
        <time>2025-08-26T07:34:56.044Z</time>
      </trkpt>
      <trkpt lat="51.565663" lon="7.156138">
        <ele>58.074540</ele>
        <time>2025-08-26T07:35:07.729Z</time>
      </trkpt>
      <trkpt lat="51.565673" lon="7.156100">
        <ele>58.001811</ele>
        <time>2025-08-26T07:35:08.155Z</time>
      </trkpt>
      <trkpt lat="51.565961" lon="7.156268">
        <ele>57.133213</ele>
        <time>2025-08-26T07:35:13.558Z</time>
      </trkpt>
      <trkpt lat="51.566174" lon="7.156386">
        <ele>57.235207</ele>
        <time>2025-08-26T07:35:17.837Z</time>
      </trkpt>
      <trkpt lat="51.567010" lon="7.156866">
        <ele>58.642271</ele>
        <time>2025-08-26T07:35:39.584Z</time>
      </trkpt>
      <trkpt lat="51.567838" lon="7.157342">
        <ele>60.174022</ele>
        <time>2025-08-26T07:36:07.462Z</time>
      </trkpt>
      <trkpt lat="51.567951" lon="7.157330">
        <ele>60.468538</ele>
        <time>2025-08-26T07:36:11.717Z</time>
      </trkpt>
      <trkpt lat="51.568900" lon="7.156901">
        <ele>63.032157</ele>
        <time>2025-08-26T07:36:44.160Z</time>
      </trkpt>
      <trkpt lat="51.568997" lon="7.156810">
        <ele>63.324179</ele>
        <time>2025-08-26T07:36:47.496Z</time>
      </trkpt>
      <trkpt lat="51.569036" lon="7.156544">
        <ele>63.765970</ele>
        <time>2025-08-26T07:36:52.123Z</time>
      </trkpt>
      <trkpt lat="51.569199" lon="7.154681">
        <ele>65.332582</ele>
        <time>2025-08-26T07:37:18.596Z</time>
      </trkpt>
      <trkpt lat="51.569256" lon="7.154577">
        <ele>65.413563</ele>
        <time>2025-08-26T07:37:20.521Z</time>
      </trkpt>
      <trkpt lat="51.569418" lon="7.154472">
        <ele>65.577672</ele>
        <time>2025-08-26T07:37:24.548Z</time>
      </trkpt>
      <trkpt lat="51.569816" lon="7.154285">
        <ele>65.967267</ele>
        <time>2025-08-26T07:37:34.826Z</time>
      </trkpt>
      <trkpt lat="51.569890" lon="7.154253">
        <ele>66.039268</ele>
        <time>2025-08-26T07:37:36.788Z</time>
      </trkpt>
      <trkpt lat="51.571635" lon="7.153378">
        <ele>66.821639</ele>
        <time>2025-08-26T07:38:19.126Z</time>
      </trkpt>
      <trkpt lat="51.571892" lon="7.153222">
        <ele>66.597617</ele>
        <time>2025-08-26T07:38:23.722Z</time>
      </trkpt>
      <trkpt lat="51.571925" lon="7.153194">
        <ele>66.527341</ele>
        <time>2025-08-26T07:38:24.360Z</time>
      </trkpt>
      <trkpt lat="51.571948" lon="7.153115">
        <ele>66.425205</ele>
        <time>2025-08-26T07:38:25.251Z</time>
      </trkpt>
      <trkpt lat="51.571941" lon="7.152977">
        <ele>66.263102</ele>
        <time>2025-08-26T07:38:26.605Z</time>
      </trkpt>
      <trkpt lat="51.571648" lon="7.151185">
        <ele>64.093689</ele>
        <time>2025-08-26T07:38:44.522Z</time>
      </trkpt>
      <trkpt lat="51.571558" lon="7.150680">
        <ele>63.490442</ele>
        <time>2025-08-26T07:38:49.959Z</time>
      </trkpt>
      <trkpt lat="51.571570" lon="7.150531">
        <ele>63.819686</ele>
        <time>2025-08-26T07:38:51.655Z</time>
      </trkpt>
      <trkpt lat="51.571612" lon="7.150415">
        <ele>64.113871</ele>
        <time>2025-08-26T07:38:53.302Z</time>
      </trkpt>
      <trkpt lat="51.572362" lon="7.150181">
        <ele>66.807427</ele>
        <time>2025-08-26T07:39:16.570Z</time>
      </trkpt>
      <trkpt lat="51.572390" lon="7.150175">
        <ele>66.907019</ele>
        <time>2025-08-26T07:39:17.707Z</time>
      </trkpt>
      <trkpt lat="51.572403" lon="7.150177">
        <ele>66.953062</ele>
        <time>2025-08-26T07:39:18.208Z</time>
      </trkpt>
      <trkpt lat="51.572443" lon="7.150189">
        <ele>67.096522</ele>
        <time>2025-08-26T07:39:19.855Z</time>
      </trkpt>
      <trkpt lat="51.573099" lon="7.150736">
        <ele>69.701548</ele>
        <time>2025-08-26T07:39:53.165Z</time>
      </trkpt>
      <trkpt lat="51.573223" lon="7.150914">
        <ele>70.338341</ele>
        <time>2025-08-26T07:40:00.709Z</time>
      </trkpt>
      <trkpt lat="51.573291" lon="7.151107">
        <ele>70.877909</ele>
        <time>2025-08-26T07:40:06.980Z</time>
      </trkpt>
      <trkpt lat="51.573369" lon="7.151810">
        <ele>72.614687</ele>
        <time>2025-08-26T07:40:26.265Z</time>
      </trkpt>
      <trkpt lat="51.573425" lon="7.153432">
        <ele>76.565584</ele>
        <time>2025-08-26T07:40:56.926Z</time>
      </trkpt>
      <trkpt lat="51.573440" lon="7.153599">
        <ele>76.933707</ele>
        <time>2025-08-26T07:40:59.640Z</time>
      </trkpt>
      <trkpt lat="51.573508" lon="7.153652">
        <ele>77.119147</ele>
        <time>2025-08-26T07:41:01.540Z</time>
      </trkpt>
      <trkpt lat="51.573558" lon="7.153688">
        <ele>77.253587</ele>
        <time>2025-08-26T07:41:02.858Z</time>
      </trkpt>
      <trkpt lat="51.573552" lon="7.153836">
        <ele>77.479818</ele>
        <time>2025-08-26T07:41:05.272Z</time>
      </trkpt>
      <trkpt lat="51.573309" lon="7.155266">
        <ele>79.741138</ele>
        <time>2025-08-26T07:41:30.986Z</time>
      </trkpt>
      <trkpt lat="51.573165" lon="7.155961">
        <ele>80.858622</ele>
        <time>2025-08-26T07:41:47.392Z</time>
      </trkpt>
      <trkpt lat="51.572916" lon="7.156986">
        <ele>81.102862</ele>
        <time>2025-08-26T07:42:07.834Z</time>
      </trkpt>
      <trkpt lat="51.572875" lon="7.157245">
        <ele>81.046538</ele>
        <time>2025-08-26T07:42:11.642Z</time>
      </trkpt>
      <trkpt lat="51.572871" lon="7.157563">
        <ele>80.979510</ele>
        <time>2025-08-26T07:42:15.610Z</time>
      </trkpt>
      <trkpt lat="51.572928" lon="7.157785">
        <ele>80.928892</ele>
        <time>2025-08-26T07:42:18.453Z</time>
      </trkpt>
      <trkpt lat="51.573334" lon="7.158559">
        <ele>80.715455</ele>
        <time>2025-08-26T07:42:28.804Z</time>
      </trkpt>
      <trkpt lat="51.573433" lon="7.159005">
        <ele>80.520196</ele>
        <time>2025-08-26T07:42:33.130Z</time>
      </trkpt>
      <trkpt lat="51.573554" lon="7.159702">
        <ele>80.084843</ele>
        <time>2025-08-26T07:42:39.690Z</time>
      </trkpt>
      <trkpt lat="51.573503" lon="7.160994">
        <ele>79.306032</ele>
        <time>2025-08-26T07:42:53.894Z</time>
      </trkpt>
      <trkpt lat="51.573482" lon="7.161046">
        <ele>79.268726</ele>
        <time>2025-08-26T07:42:54.797Z</time>
      </trkpt>
      <trkpt lat="51.573441" lon="7.161080">
        <ele>79.224080</ele>
        <time>2025-08-26T07:42:56.001Z</time>
      </trkpt>
      <trkpt lat="51.572271" lon="7.161278">
        <ele>82.581672</ele>
        <time>2025-08-26T07:43:35.219Z</time>
      </trkpt>
      <trkpt lat="51.572024" lon="7.161412">
        <ele>83.678615</ele>
        <time>2025-08-26T07:43:46.431Z</time>
      </trkpt>
      <trkpt lat="51.571825" lon="7.161597">
        <ele>84.645805</ele>
        <time>2025-08-26T07:43:56.467Z</time>
      </trkpt>
      <trkpt lat="51.571535" lon="7.162083">
        <ele>86.407982</ele>
        <time>2025-08-26T07:44:14.716Z</time>
      </trkpt>
      <trkpt lat="51.571118" lon="7.162875">
        <ele>87.039258</ele>
        <time>2025-08-26T07:44:37.610Z</time>
      </trkpt>
      <trkpt lat="51.571005" lon="7.163170">
        <ele>87.226883</ele>
        <time>2025-08-26T07:44:44.003Z</time>
      </trkpt>
      <trkpt lat="51.570911" lon="7.163547">
        <ele>87.446822</ele>
        <time>2025-08-26T07:44:50.337Z</time>
      </trkpt>
      <trkpt lat="51.570862" lon="7.164066">
        <ele>87.731060</ele>
        <time>2025-08-26T07:44:56.535Z</time>
      </trkpt>
      <trkpt lat="51.570963" lon="7.164917">
        <ele>87.234864</ele>
        <time>2025-08-26T07:45:04.727Z</time>
      </trkpt>
      <trkpt lat="51.571240" lon="7.166588">
        <ele>81.619502</ele>
        <time>2025-08-26T07:45:19.477Z</time>
      </trkpt>
      <trkpt lat="51.571484" lon="7.168061">
        <ele>77.799515</ele>
        <time>2025-08-26T07:45:33.100Z</time>
      </trkpt>
      <trkpt lat="51.571787" lon="7.169620">
        <ele>75.497420</ele>
        <time>2025-08-26T07:45:50.015Z</time>
      </trkpt>
      <trkpt lat="51.571970" lon="7.170566">
        <ele>74.861865</ele>
        <time>2025-08-26T07:46:01.629Z</time>
      </trkpt>
      <trkpt lat="51.571775" lon="7.171544">
        <ele>75.678403</ele>
        <time>2025-08-26T07:46:15.556Z</time>
      </trkpt>
      <trkpt lat="51.571687" lon="7.171778">
        <ele>75.895836</ele>
        <time>2025-08-26T07:46:19.889Z</time>
      </trkpt>
      <trkpt lat="51.571207" lon="7.172517">
        <ele>76.745615</ele>
        <time>2025-08-26T07:46:39.229Z</time>
      </trkpt>
      <trkpt lat="51.570773" lon="7.173076">
        <ele>77.266146</ele>
        <time>2025-08-26T07:46:57.596Z</time>
      </trkpt>
      <trkpt lat="51.570124" lon="7.173807">
        <ele>77.939849</ele>
        <time>2025-08-26T07:47:18.997Z</time>
      </trkpt>
      <trkpt lat="51.569741" lon="7.174082">
        <ele>78.296508</ele>
        <time>2025-08-26T07:47:26.484Z</time>
      </trkpt>
      <trkpt lat="51.569415" lon="7.174297">
        <ele>77.778167</ele>
        <time>2025-08-26T07:47:32.096Z</time>
      </trkpt>
      <trkpt lat="51.569306" lon="7.174351">
        <ele>77.430617</ele>
        <time>2025-08-26T07:47:33.866Z</time>
      </trkpt>
      <trkpt lat="51.568826" lon="7.174523">
        <ele>75.932056</ele>
        <time>2025-08-26T07:47:41.167Z</time>
      </trkpt>
      <trkpt lat="51.568381" lon="7.174546">
        <ele>74.575294</ele>
        <time>2025-08-26T07:47:47.802Z</time>
      </trkpt>
      <trkpt lat="51.567799" lon="7.174466">
        <ele>72.931676</ele>
        <time>2025-08-26T07:47:56.891Z</time>
      </trkpt>
      <trkpt lat="51.567329" lon="7.174311">
        <ele>72.880691</ele>
        <time>2025-08-26T07:48:05.095Z</time>
      </trkpt>
      <trkpt lat="51.566897" lon="7.174114">
        <ele>72.832974</ele>
        <time>2025-08-26T07:48:13.494Z</time>
      </trkpt>
      <trkpt lat="51.566834" lon="7.174085">
        <ele>72.826011</ele>
        <time>2025-08-26T07:48:14.825Z</time>
      </trkpt>
      <trkpt lat="51.566486" lon="7.173881">
        <ele>72.786650</ele>
        <time>2025-08-26T07:48:22.827Z</time>
      </trkpt>
      <trkpt lat="51.566324" lon="7.173796">
        <ele>72.768542</ele>
        <time>2025-08-26T07:48:27.083Z</time>
      </trkpt>
      <trkpt lat="51.565865" lon="7.173430">
        <ele>74.379703</ele>
        <time>2025-08-26T07:48:42.310Z</time>
      </trkpt>
      <trkpt lat="51.565514" lon="7.173026">
        <ele>76.769593</ele>
        <time>2025-08-26T07:48:57.680Z</time>
      </trkpt>
      <trkpt lat="51.565384" lon="7.172826">
        <ele>77.765659</ele>
        <time>2025-08-26T07:49:05.681Z</time>
      </trkpt>
      <trkpt lat="51.565247" lon="7.172671">
        <ele>78.693117</ele>
        <time>2025-08-26T07:49:13.619Z</time>
      </trkpt>
      <trkpt lat="51.564903" lon="7.172440">
        <ele>80.757288</ele>
        <time>2025-08-26T07:49:32.081Z</time>
      </trkpt>
      <trkpt lat="51.564912" lon="7.172414">
        <ele>80.859726</ele>
        <time>2025-08-26T07:49:33.039Z</time>
      </trkpt>
      <trkpt lat="51.565033" lon="7.172401">
        <ele>81.531247</ele>
        <time>2025-08-26T07:49:39.489Z</time>
      </trkpt>
      <trkpt lat="51.565513" lon="7.172397">
        <ele>85.234240</ele>
        <time>2025-08-26T07:50:08.374Z</time>
      </trkpt>
      <trkpt lat="51.565912" lon="7.172568">
        <ele>89.130895</ele>
        <time>2025-08-26T07:50:36.098Z</time>
      </trkpt>
      <trkpt lat="51.566017" lon="7.172624">
        <ele>90.174805</ele>
        <time>2025-08-26T07:50:43.632Z</time>
      </trkpt>
      <trkpt lat="51.565488" lon="7.171478">
        <ele>98.548247</ele>
        <time>2025-08-26T07:51:38.026Z</time>
      </trkpt>
      <trkpt lat="51.565607" lon="7.171516">
        <ele>99.690193</ele>
        <time>2025-08-26T07:51:45.048Z</time>
      </trkpt>
      <trkpt lat="51.565931" lon="7.171671">
        <ele>102.216071</ele>
        <time>2025-08-26T07:52:05.339Z</time>
      </trkpt>
      <trkpt lat="51.566398" lon="7.172031">
        <ele>106.085693</ele>
        <time>2025-08-26T07:52:33.785Z</time>
      </trkpt>
      <trkpt lat="51.566028" lon="7.171337">
        <ele>110.332574</ele>
        <time>2025-08-26T07:53:01.863Z</time>
      </trkpt>
      <trkpt lat="51.565787" lon="7.171017">
        <ele>112.667643</ele>
        <time>2025-08-26T07:53:17.818Z</time>
      </trkpt>
      <trkpt lat="51.566102" lon="7.171099">
        <ele>114.119030</ele>
        <time>2025-08-26T07:53:34.449Z</time>
      </trkpt>
      <trkpt lat="51.566585" lon="7.171351">
        <ele>116.081583</ele>
        <time>2025-08-26T07:53:57.305Z</time>
      </trkpt>
      <trkpt lat="51.566125" lon="7.170822">
        <ele>118.267074</ele>
        <time>2025-08-26T07:54:13.411Z</time>
      </trkpt>
      <trkpt lat="51.565633" lon="7.170388">
        <ele>120.175136</ele>
        <time>2025-08-26T07:54:27.555Z</time>
      </trkpt>
      <trkpt lat="51.565517" lon="7.170227">
        <ele>120.343930</ele>
        <time>2025-08-26T07:54:31.072Z</time>
      </trkpt>
      <trkpt lat="51.565438" lon="7.170057">
        <ele>120.489294</ele>
        <time>2025-08-26T07:54:34.048Z</time>
      </trkpt>
      <trkpt lat="51.565393" lon="7.169711">
        <ele>120.731388</ele>
        <time>2025-08-26T07:54:38.999Z</time>
      </trkpt>
      <trkpt lat="51.565416" lon="7.169528">
        <ele>120.859255</ele>
        <time>2025-08-26T07:54:41.577Z</time>
      </trkpt>
      <trkpt lat="51.565460" lon="7.169396">
        <ele>120.961834</ele>
        <time>2025-08-26T07:54:43.624Z</time>
      </trkpt>
      <trkpt lat="51.565648" lon="7.169188">
        <ele>121.213218</ele>
        <time>2025-08-26T07:54:48.486Z</time>
      </trkpt>
      <trkpt lat="51.566468" lon="7.168665">
        <ele>122.291016</ele>
        <time>2025-08-26T07:55:06.822Z</time>
      </trkpt>
      <trkpt lat="51.566551" lon="7.168612">
        <ele>122.468247</ele>
        <time>2025-08-26T07:55:08.788Z</time>
      </trkpt>
      <trkpt lat="51.566843" lon="7.168467">
        <ele>123.074754</ele>
        <time>2025-08-26T07:55:15.263Z</time>
      </trkpt>
      <trkpt lat="51.567158" lon="7.168383">
        <ele>123.708460</ele>
        <time>2025-08-26T07:55:22.631Z</time>
      </trkpt>
      <trkpt lat="51.567267" lon="7.168324">
        <ele>123.936707</ele>
        <time>2025-08-26T07:55:25.625Z</time>
      </trkpt>
      <trkpt lat="51.567355" lon="7.168247">
        <ele>124.135521</ele>
        <time>2025-08-26T07:55:28.638Z</time>
      </trkpt>
      <trkpt lat="51.567746" lon="7.167834">
        <ele>125.063845</ele>
        <time>2025-08-26T07:55:42.659Z</time>
      </trkpt>
      <trkpt lat="51.567995" lon="7.167453">
        <ele>125.665510</ele>
        <time>2025-08-26T07:55:53.737Z</time>
      </trkpt>
      <trkpt lat="51.568224" lon="7.167012">
        <ele>125.912377</ele>
        <time>2025-08-26T07:56:03.608Z</time>
      </trkpt>
      <trkpt lat="51.568342" lon="7.166715">
        <ele>126.063806</ele>
        <time>2025-08-26T07:56:08.768Z</time>
      </trkpt>
      <trkpt lat="51.568396" lon="7.166428">
        <ele>126.192627</ele>
        <time>2025-08-26T07:56:13.037Z</time>
      </trkpt>
      <trkpt lat="51.568566" lon="7.165243">
        <ele>126.715086</ele>
        <time>2025-08-26T07:56:26.600Z</time>
      </trkpt>
      <trkpt lat="51.568633" lon="7.164632">
        <ele>126.427179</ele>
        <time>2025-08-26T07:56:32.348Z</time>
      </trkpt>
      <trkpt lat="51.568670" lon="7.164506">
        <ele>126.200714</ele>
        <time>2025-08-26T07:56:33.644Z</time>
      </trkpt>
      <trkpt lat="51.568814" lon="7.163844">
        <ele>125.060915</ele>
        <time>2025-08-26T07:56:40.004Z</time>
      </trkpt>
      <trkpt lat="51.569073" lon="7.163013">
        <ele>123.550191</ele>
        <time>2025-08-26T07:56:48.042Z</time>
      </trkpt>
      <trkpt lat="51.569339" lon="7.162258">
        <ele>122.140130</ele>
        <time>2025-08-26T07:56:55.574Z</time>
      </trkpt>
      <trkpt lat="51.569658" lon="7.161511">
        <ele>120.685008</ele>
        <time>2025-08-26T07:57:03.525Z</time>
      </trkpt>
      <trkpt lat="51.569766" lon="7.161290">
        <ele>120.233651</ele>
        <time>2025-08-26T07:57:06.083Z</time>
      </trkpt>
      <trkpt lat="51.569957" lon="7.160897">
        <ele>119.432693</ele>
        <time>2025-08-26T07:57:10.786Z</time>
      </trkpt>
      <trkpt lat="51.570306" lon="7.160318">
        <ele>118.137770</ele>
        <time>2025-08-26T07:57:18.846Z</time>
      </trkpt>
      <trkpt lat="51.570531" lon="7.159926">
        <ele>116.948230</ele>
        <time>2025-08-26T07:57:24.280Z</time>
      </trkpt>
      <trkpt lat="51.571095" lon="7.158878">
        <ele>111.583789</ele>
        <time>2025-08-26T07:57:35.785Z</time>
      </trkpt>
      <trkpt lat="51.571753" lon="7.157870">
        <ele>105.666333</ele>
        <time>2025-08-26T07:57:46.233Z</time>
      </trkpt>
      <trkpt lat="51.571953" lon="7.157585">
        <ele>102.895540</ele>
        <time>2025-08-26T07:57:49.188Z</time>
      </trkpt>
      <trkpt lat="51.572234" lon="7.157038">
        <ele>98.321144</ele>
        <time>2025-08-26T07:57:54.074Z</time>
      </trkpt>
      <trkpt lat="51.572521" lon="7.156454">
        <ele>93.522163</ele>
        <time>2025-08-26T07:57:59.244Z</time>
      </trkpt>
      <trkpt lat="51.572785" lon="7.155888">
        <ele>88.960707</ele>
        <time>2025-08-26T07:58:04.265Z</time>
      </trkpt>
      <trkpt lat="51.572921" lon="7.155524">
        <ele>86.468587</ele>
        <time>2025-08-26T07:58:07.324Z</time>
      </trkpt>
      <trkpt lat="51.573508" lon="7.153652">
        <ele>75.254319</ele>
        <time>2025-08-26T07:58:22.556Z</time>
      </trkpt>
      <trkpt lat="51.573612" lon="7.153055">
        <ele>71.988094</ele>
        <time>2025-08-26T07:58:26.971Z</time>
      </trkpt>
      <trkpt lat="51.573717" lon="7.151663">
        <ele>65.990408</ele>
        <time>2025-08-26T07:58:37.146Z</time>
      </trkpt>
      <trkpt lat="51.573728" lon="7.151294">
        <ele>64.410273</ele>
        <time>2025-08-26T07:58:39.941Z</time>
      </trkpt>
      <trkpt lat="51.573711" lon="7.150926">
        <ele>62.831888</ele>
        <time>2025-08-26T07:58:42.752Z</time>
      </trkpt>
      <trkpt lat="51.573674" lon="7.150652">
        <ele>61.632566</ele>
        <time>2025-08-26T07:58:44.928Z</time>
      </trkpt>
      <trkpt lat="51.573572" lon="7.150188">
        <ele>59.694267</ele>
        <time>2025-08-26T07:58:48.816Z</time>
      </trkpt>
      <trkpt lat="51.573506" lon="7.149874">
        <ele>59.118269</ele>
        <time>2025-08-26T07:58:51.562Z</time>
      </trkpt>
      <trkpt lat="51.573468" lon="7.149816">
        <ele>58.971823</ele>
        <time>2025-08-26T07:58:52.275Z</time>
      </trkpt>
      <trkpt lat="51.573259" lon="7.148659">
        <ele>56.878094</ele>
        <time>2025-08-26T07:59:02.805Z</time>
      </trkpt>
      <trkpt lat="51.573171" lon="7.148126">
        <ele>55.919768</ele>
        <time>2025-08-26T07:59:07.700Z</time>
      </trkpt>
      <trkpt lat="51.573118" lon="7.147828">
        <ele>55.381142</ele>
        <time>2025-08-26T07:59:10.461Z</time>
      </trkpt>
      <trkpt lat="51.572327" lon="7.148182">
        <ele>54.252074</ele>
        <time>2025-08-26T07:59:23.129Z</time>
      </trkpt>
      <trkpt lat="51.572137" lon="7.148267">
        <ele>54.080383</ele>
        <time>2025-08-26T07:59:26.354Z</time>
      </trkpt>
      <trkpt lat="51.571573" lon="7.148519">
        <ele>53.570780</ele>
        <time>2025-08-26T07:59:36.268Z</time>
      </trkpt>
      <trkpt lat="51.570323" lon="7.149078">
        <ele>52.784321</ele>
        <time>2025-08-26T07:59:58.062Z</time>
      </trkpt>
      <trkpt lat="51.570251" lon="7.149110">
        <ele>52.748174</ele>
        <time>2025-08-26T07:59:59.310Z</time>
      </trkpt>
      <trkpt lat="51.569174" lon="7.149591">
        <ele>52.153326</ele>
        <time>2025-08-26T08:00:17.957Z</time>
      </trkpt>
      <trkpt lat="51.569080" lon="7.149633">
        <ele>52.087377</ele>
        <time>2025-08-26T08:00:19.570Z</time>
      </trkpt>
      <trkpt lat="51.569000" lon="7.149669">
        <ele>52.031222</ele>
        <time>2025-08-26T08:00:20.932Z</time>
      </trkpt>
      <trkpt lat="51.567732" lon="7.150236">
        <ele>51.141561</ele>
        <time>2025-08-26T08:00:42.769Z</time>
      </trkpt>
      <trkpt lat="51.566459" lon="7.150804">
        <ele>49.785332</ele>
        <time>2025-08-26T08:01:03.208Z</time>
      </trkpt>
      <trkpt lat="51.566295" lon="7.150878">
        <ele>49.609502</ele>
        <time>2025-08-26T08:01:05.881Z</time>
      </trkpt>
      <trkpt lat="51.566143" lon="7.150945">
        <ele>49.446810</ele>
        <time>2025-08-26T08:01:08.389Z</time>
      </trkpt>
      <trkpt lat="51.566081" lon="7.150988">
        <ele>49.377114</ele>
        <time>2025-08-26T08:01:09.480Z</time>
      </trkpt>
      <trkpt lat="51.566038" lon="7.151065">
        <ele>49.310693</ele>
        <time>2025-08-26T08:01:10.536Z</time>
      </trkpt>
      <trkpt lat="51.565574" lon="7.153353">
        <ele>48.917218</ele>
        <time>2025-08-26T08:01:36.236Z</time>
      </trkpt>
      <trkpt lat="51.565540" lon="7.153573">
        <ele>48.883041</ele>
        <time>2025-08-26T08:01:38.770Z</time>
      </trkpt>
      <trkpt lat="51.565574" lon="7.153353">
        <ele>48.848865</ele>
        <time>2025-08-26T08:01:41.281Z</time>
      </trkpt>
      <trkpt lat="51.565508" lon="7.153335">
        <ele>48.839510</ele>
        <time>2025-08-26T08:01:42.817Z</time>
      </trkpt>
      <trkpt lat="51.565469" lon="7.153324">
        <ele>48.866932</ele>
        <time>2025-08-26T08:01:43.750Z</time>
      </trkpt>
      <trkpt lat="51.565429" lon="7.153526">
        <ele>48.958199</ele>
        <time>2025-08-26T08:01:46.080Z</time>
      </trkpt>
      <trkpt lat="51.564821" lon="7.156448">
        <ele>50.802697</ele>
        <time>2025-08-26T08:02:25.652Z</time>
      </trkpt>
      <trkpt lat="51.564606" lon="7.156331">
        <ele>51.357665</ele>
        <time>2025-08-26T08:02:31.983Z</time>
      </trkpt>
      <trkpt lat="51.564460" lon="7.156111">
        <ele>51.846807</ele>
        <time>2025-08-26T08:02:37.821Z</time>
      </trkpt>
      <trkpt lat="51.564439" lon="7.155986">
        <ele>52.043620</ele>
        <time>2025-08-26T08:02:40.223Z</time>
      </trkpt>
      <trkpt lat="51.564413" lon="7.155810">
        <ele>52.318586</ele>
        <time>2025-08-26T08:02:43.640Z</time>
      </trkpt>
      <trkpt lat="51.564458" lon="7.155316">
        <ele>53.077473</ele>
        <time>2025-08-26T08:02:53.338Z</time>
      </trkpt>
      <trkpt lat="51.564570" lon="7.153817">
        <ele>55.030010</ele>
        <time>2025-08-26T08:03:21.603Z</time>
      </trkpt>
      <trkpt lat="51.564588" lon="7.153057">
        <ele>55.743564</ele>
        <time>2025-08-26T08:03:31.657Z</time>
      </trkpt>
      <trkpt lat="51.564576" lon="7.152701">
        <ele>56.078056</ele>
        <time>2025-08-26T08:03:35.603Z</time>
      </trkpt>
      <trkpt lat="51.564542" lon="7.152169">
        <ele>56.579814</ele>
        <time>2025-08-26T08:03:42.512Z</time>
      </trkpt>
      <trkpt lat="51.564479" lon="7.152187">
        <ele>56.676385</ele>
        <time>2025-08-26T08:03:44.850Z</time>
      </trkpt>
      <trkpt lat="51.564542" lon="7.152169">
        <ele>56.772957</ele>
        <time>2025-08-26T08:03:46.719Z</time>
      </trkpt>
      <trkpt lat="51.564464" lon="7.151487">
        <ele>57.769902</ele>
        <time>2025-08-26T08:03:58.123Z</time>
      </trkpt>
      <trkpt lat="51.564360" lon="7.151278">
        <ele>58.397753</ele>
        <time>2025-08-26T08:04:03.012Z</time>
      </trkpt>
      <trkpt lat="51.564191" lon="7.151132">
        <ele>59.121462</ele>
        <time>2025-08-26T08:04:09.248Z</time>
      </trkpt>
      <trkpt lat="51.564079" lon="7.151103">
        <ele>59.549442</ele>
        <time>2025-08-26T08:04:13.171Z</time>
      </trkpt>
      <trkpt lat="51.563650" lon="7.151106">
        <ele>61.167941</ele>
        <time>2025-08-26T08:04:28.543Z</time>
      </trkpt>
      <trkpt lat="51.563088" lon="7.151084">
        <ele>63.288819</ele>
        <time>2025-08-26T08:04:50.271Z</time>
      </trkpt>
      <trkpt lat="51.562051" lon="7.151061">
        <ele>69.058346</ele>
        <time>2025-08-26T08:05:33.332Z</time>
      </trkpt>
      <trkpt lat="51.561950" lon="7.151108">
        <ele>69.683534</ele>
        <time>2025-08-26T08:05:37.941Z</time>
      </trkpt>
      <trkpt lat="51.561783" lon="7.151261">
        <ele>70.826311</ele>
        <time>2025-08-26T08:05:46.467Z</time>
      </trkpt>
      <trkpt lat="51.561677" lon="7.151560">
        <ele>72.098669</ele>
        <time>2025-08-26T08:05:56.292Z</time>
      </trkpt>
      <trkpt lat="51.561551" lon="7.152124">
        <ele>74.314067</ele>
        <time>2025-08-26T08:06:13.315Z</time>
      </trkpt>
      <trkpt lat="51.561452" lon="7.152297">
        <ele>75.076657</ele>
        <time>2025-08-26T08:06:20.258Z</time>
      </trkpt>
      <trkpt lat="51.561236" lon="7.152478">
        <ele>76.222081</ele>
        <time>2025-08-26T08:06:32.267Z</time>
      </trkpt>
      <trkpt lat="51.561096" lon="7.152534">
        <ele>76.900552</ele>
        <time>2025-08-26T08:06:39.329Z</time>
      </trkpt>
      <trkpt lat="51.560730" lon="7.152566">
        <ele>78.624390</ele>
        <time>2025-08-26T08:06:55.556Z</time>
      </trkpt>
      <trkpt lat="51.560565" lon="7.152613">
        <ele>79.412457</ele>
        <time>2025-08-26T08:07:02.155Z</time>
      </trkpt>
      <trkpt lat="51.560303" lon="7.152681">
        <ele>80.660579</ele>
        <time>2025-08-26T08:07:11.733Z</time>
      </trkpt>
      <trkpt lat="51.559980" lon="7.152859">
        <ele>82.266327</ele>
        <time>2025-08-26T08:07:22.501Z</time>
      </trkpt>
      <trkpt lat="51.559748" lon="7.152769">
        <ele>83.001159</ele>
        <time>2025-08-26T08:07:31.912Z</time>
      </trkpt>
      <trkpt lat="51.559688" lon="7.152753">
        <ele>82.854748</ele>
        <time>2025-08-26T08:07:34.197Z</time>
      </trkpt>
      <trkpt lat="51.559418" lon="7.152701">
        <ele>82.200129</ele>
        <time>2025-08-26T08:07:43.855Z</time>
      </trkpt>
      <trkpt lat="51.558664" lon="7.152480">
        <ele>80.355118</ele>
        <time>2025-08-26T08:08:04.540Z</time>
      </trkpt>
      <trkpt lat="51.558629" lon="7.152476">
        <ele>80.270649</ele>
        <time>2025-08-26T08:08:05.395Z</time>
      </trkpt>
      <trkpt lat="51.557544" lon="7.152014">
        <ele>74.154138</ele>
        <time>2025-08-26T08:08:30.126Z</time>
      </trkpt>
      <trkpt lat="51.557491" lon="7.152003">
        <ele>73.669440</ele>
        <time>2025-08-26T08:08:31.231Z</time>
      </trkpt>
      <trkpt lat="51.556529" lon="7.151783">
        <ele>64.856282</ele>
        <time>2025-08-26T08:08:51.115Z</time>
      </trkpt>
      <trkpt lat="51.556414" lon="7.151764">
        <ele>63.807736</ele>
        <time>2025-08-26T08:08:52.577Z</time>
      </trkpt>
      <trkpt lat="51.556366" lon="7.151788">
        <ele>63.351821</ele>
        <time>2025-08-26T08:08:53.210Z</time>
      </trkpt>
      <trkpt lat="51.556139" lon="7.152060">
        <ele>61.099729</ele>
        <time>2025-08-26T08:08:56.808Z</time>
      </trkpt>
      <trkpt lat="51.555837" lon="7.152579">
        <ele>57.832880</ele>
        <time>2025-08-26T08:09:02.565Z</time>
      </trkpt>
      <trkpt lat="51.555718" lon="7.153048">
        <ele>55.504882</ele>
        <time>2025-08-26T08:09:06.799Z</time>
      </trkpt>
      <trkpt lat="51.555647" lon="7.153104">
        <ele>54.920365</ele>
        <time>2025-08-26T08:09:07.872Z</time>
      </trkpt>
      <trkpt lat="51.555469" lon="7.152146">
        <ele>50.325186</ele>
        <time>2025-08-26T08:09:16.450Z</time>
      </trkpt>
      <trkpt lat="51.555393" lon="7.151742">
        <ele>48.805042</ele>
        <time>2025-08-26T08:09:20.289Z</time>
      </trkpt>
      <trkpt lat="51.555342" lon="7.151341">
        <ele>47.900651</ele>
        <time>2025-08-26T08:09:24.185Z</time>
      </trkpt>
      <trkpt lat="51.555264" lon="7.151312">
        <ele>47.616147</ele>
        <time>2025-08-26T08:09:25.423Z</time>
      </trkpt>
      <trkpt lat="51.555121" lon="7.151414">
        <ele>47.060222</ele>
        <time>2025-08-26T08:09:27.836Z</time>
      </trkpt>
      <trkpt lat="51.555071" lon="7.151494">
        <ele>46.809582</ele>
        <time>2025-08-26T08:09:28.935Z</time>
      </trkpt>
      <trkpt lat="51.555060" lon="7.151572">
        <ele>46.632856</ele>
        <time>2025-08-26T08:09:29.701Z</time>
      </trkpt>
      <trkpt lat="51.555014" lon="7.152525">
        <ele>44.520768</ele>
        <time>2025-08-26T08:09:40.515Z</time>
      </trkpt>
      <trkpt lat="51.554976" lon="7.153595">
        <ele>42.614178</ele>
        <time>2025-08-26T08:09:53.341Z</time>
      </trkpt>
      <trkpt lat="51.554941" lon="7.153779">
        <ele>42.491343</ele>
        <time>2025-08-26T08:09:55.793Z</time>
      </trkpt>
      <trkpt lat="51.554933" lon="7.153787">
        <ele>42.481671</ele>
        <time>2025-08-26T08:09:55.983Z</time>
      </trkpt>
      <trkpt lat="51.554729" lon="7.153974">
        <ele>42.240591</ele>
        <time>2025-08-26T08:10:02.209Z</time>
      </trkpt>
      <trkpt lat="51.554661" lon="7.153997">
        <ele>42.169248</ele>
        <time>2025-08-26T08:10:03.611Z</time>
      </trkpt>
      <trkpt lat="51.554618" lon="7.154005">
        <ele>42.124805</ele>
        <time>2025-08-26T08:10:04.505Z</time>
      </trkpt>
      <trkpt lat="51.554561" lon="7.154018">
        <ele>42.065697</ele>
        <time>2025-08-26T08:10:05.675Z</time>
      </trkpt>
      <trkpt lat="51.554513" lon="7.154025">
        <ele>42.016213</ele>
        <time>2025-08-26T08:10:06.672Z</time>
      </trkpt>
      <trkpt lat="51.554610" lon="7.155068">
        <ele>41.342978</ele>
        <time>2025-08-26T08:10:18.703Z</time>
      </trkpt>
      <trkpt lat="51.554241" lon="7.154794">
        <ele>40.950321</ele>
        <time>2025-08-26T08:10:27.662Z</time>
      </trkpt>
      <trkpt lat="51.553803" lon="7.154393">
        <ele>40.867584</ele>
        <time>2025-08-26T08:10:38.729Z</time>
      </trkpt>
      <trkpt lat="51.553357" lon="7.153890">
        <ele>40.778161</ele>
        <time>2025-08-26T08:10:49.181Z</time>
      </trkpt>
      <trkpt lat="51.553156" lon="7.153616">
        <ele>40.734906</ele>
        <time>2025-08-26T08:10:54.164Z</time>
      </trkpt>
      <trkpt lat="51.552789" lon="7.153020">
        <ele>40.614368</ele>
        <time>2025-08-26T08:11:03.999Z</time>
      </trkpt>
      <trkpt lat="51.552771" lon="7.152986">
        <ele>40.594586</ele>
        <time>2025-08-26T08:11:04.514Z</time>
      </trkpt>
      <trkpt lat="51.552166" lon="7.151882">
        <ele>39.942677</ele>
        <time>2025-08-26T08:11:21.125Z</time>
      </trkpt>
      <trkpt lat="51.552080" lon="7.151594">
        <ele>39.801142</ele>
        <time>2025-08-26T08:11:24.739Z</time>
      </trkpt>
      <trkpt lat="51.551642" lon="7.151612">
        <ele>39.488985</ele>
        <time>2025-08-26T08:11:32.728Z</time>
      </trkpt>
      <trkpt lat="51.551513" lon="7.151690">
        <ele>39.390797</ele>
        <time>2025-08-26T08:11:35.254Z</time>
      </trkpt>
      <trkpt lat="51.551302" lon="7.151725">
        <ele>39.265590</ele>
        <time>2025-08-26T08:11:39.106Z</time>
      </trkpt>
      <trkpt lat="51.551249" lon="7.151738">
        <ele>39.234535</ele>
        <time>2025-08-26T08:11:40.276Z</time>
      </trkpt>
      <trkpt lat="51.551195" lon="7.151816">
        <ele>39.192492</ele>
        <time>2025-08-26T08:11:41.877Z</time>
      </trkpt>
      <trkpt lat="51.551149" lon="7.151029">
        <ele>38.907779</ele>
        <time>2025-08-26T08:11:52.714Z</time>
      </trkpt>
      <trkpt lat="51.551157" lon="7.150890">
        <ele>38.857500</ele>
        <time>2025-08-26T08:11:54.671Z</time>
      </trkpt>
      <trkpt lat="51.551171" lon="7.150710">
        <ele>38.792162</ele>
        <time>2025-08-26T08:11:57.219Z</time>
      </trkpt>
      <trkpt lat="51.551180" lon="7.150562">
        <ele>38.738601</ele>
        <time>2025-08-26T08:11:59.328Z</time>
      </trkpt>
      <trkpt lat="51.551201" lon="7.150214">
        <ele>38.612669</ele>
        <time>2025-08-26T08:12:04.262Z</time>
      </trkpt>
      <trkpt lat="51.551392" lon="7.149099">
        <ele>38.220422</ele>
        <time>2025-08-26T08:12:20.267Z</time>
      </trkpt>
      <trkpt lat="51.551531" lon="7.146782">
        <ele>37.527279</ele>
        <time>2025-08-26T08:12:47.238Z</time>
      </trkpt>
      <trkpt lat="51.551578" lon="7.145605">
        <ele>37.381605</ele>
        <time>2025-08-26T08:13:01.060Z</time>
      </trkpt>
      <trkpt lat="51.551565" lon="7.143796">
        <ele>37.213157</ele>
        <time>2025-08-26T08:13:23.264Z</time>
      </trkpt>
      <trkpt lat="51.551490" lon="7.142422">
        <ele>37.504680</ele>
        <time>2025-08-26T08:13:41.403Z</time>
      </trkpt>
      <trkpt lat="51.551268" lon="7.140341">
        <ele>37.757386</ele>
        <time>2025-08-26T08:14:10.055Z</time>
      </trkpt>
      <trkpt lat="51.551276" lon="7.139867">
        <ele>37.653699</ele>
        <time>2025-08-26T08:14:15.798Z</time>
      </trkpt>
      <trkpt lat="51.551187" lon="7.139438">
        <ele>37.554807</ele>
        <time>2025-08-26T08:14:21.155Z</time>
      </trkpt>
      <trkpt lat="51.551138" lon="7.138865">
        <ele>37.428330</ele>
        <time>2025-08-26T08:14:27.906Z</time>
      </trkpt>
      <trkpt lat="51.551040" lon="7.138813">
        <ele>37.392040</ele>
        <time>2025-08-26T08:14:29.557Z</time>
      </trkpt>
      <trkpt lat="51.550754" lon="7.138658">
        <ele>37.285907</ele>
        <time>2025-08-26T08:14:34.386Z</time>
      </trkpt>
      <trkpt lat="51.550637" lon="7.138594">
        <ele>37.242448</ele>
        <time>2025-08-26T08:14:36.346Z</time>
      </trkpt>
      <trkpt lat="51.550625" lon="7.138414">
        <ele>37.166960</ele>
        <time>2025-08-26T08:14:38.346Z</time>
      </trkpt>
      <trkpt lat="51.550673" lon="7.136313">
        <ele>36.241835</ele>
        <time>2025-08-26T08:15:01.288Z</time>
      </trkpt>
      <trkpt lat="51.550627" lon="7.135990">
        <ele>36.096025</ele>
        <time>2025-08-26T08:15:05.274Z</time>
      </trkpt>
      <trkpt lat="51.550691" lon="7.135520">
        <ele>36.079347</ele>
        <time>2025-08-26T08:15:11.536Z</time>
      </trkpt>
      <trkpt lat="51.550759" lon="7.133204">
        <ele>37.509154</ele>
        <time>2025-08-26T08:15:47.743Z</time>
      </trkpt>
      <trkpt lat="51.550765" lon="7.131508">
        <ele>38.128672</ele>
        <time>2025-08-26T08:16:11.925Z</time>
      </trkpt>
      <trkpt lat="51.550716" lon="7.129835">
        <ele>38.609098</ele>
        <time>2025-08-26T08:16:32.922Z</time>
      </trkpt>
      <trkpt lat="51.550651" lon="7.128970">
        <ele>38.804461</ele>
        <time>2025-08-26T08:16:44.016Z</time>
      </trkpt>
      <trkpt lat="51.550123" lon="7.124197">
        <ele>40.143983</ele>
        <time>2025-08-26T08:17:49.648Z</time>
      </trkpt>
      <trkpt lat="51.550010" lon="7.123756">
        <ele>40.185301</ele>
        <time>2025-08-26T08:17:56.064Z</time>
      </trkpt>
      <trkpt lat="51.549972" lon="7.123697">
        <ele>40.192659</ele>
        <time>2025-08-26T08:17:57.192Z</time>
      </trkpt>
      <trkpt lat="51.549857" lon="7.123433">
        <ele>40.220581</ele>
        <time>2025-08-26T08:18:01.423Z</time>
      </trkpt>
      <trkpt lat="51.549560" lon="7.122861">
        <ele>40.285134</ele>
        <time>2025-08-26T08:18:10.727Z</time>
      </trkpt>
      <trkpt lat="51.549327" lon="7.122096">
        <ele>40.358925</ele>
        <time>2025-08-26T08:18:21.143Z</time>
      </trkpt>
      <trkpt lat="51.548944" lon="7.121181">
        <ele>40.395703</ele>
        <time>2025-08-26T08:18:34.637Z</time>
      </trkpt>
      <trkpt lat="51.548527" lon="7.120139">
        <ele>40.401183</ele>
        <time>2025-08-26T08:18:49.740Z</time>
      </trkpt>
      <trkpt lat="51.548378" lon="7.119567">
        <ele>40.403925</ele>
        <time>2025-08-26T08:18:57.700Z</time>
      </trkpt>
      <trkpt lat="51.548331" lon="7.118994">
        <ele>40.260113</ele>
        <time>2025-08-26T08:19:05.103Z</time>
      </trkpt>
      <trkpt lat="51.548352" lon="7.118517">
        <ele>39.992779</ele>
        <time>2025-08-26T08:19:11.059Z</time>
      </trkpt>
      <trkpt lat="51.548374" lon="7.118004">
        <ele>39.705307</ele>
        <time>2025-08-26T08:19:17.231Z</time>
      </trkpt>
      <trkpt lat="51.548361" lon="7.117161">
        <ele>39.233885</ele>
        <time>2025-08-26T08:19:26.234Z</time>
      </trkpt>
      <trkpt lat="51.548245" lon="7.116578">
        <ele>38.891683</ele>
        <time>2025-08-26T08:19:32.655Z</time>
      </trkpt>
      <trkpt lat="51.548198" lon="7.116434">
        <ele>38.800766</ele>
        <time>2025-08-26T08:19:34.363Z</time>
      </trkpt>
      <trkpt lat="51.548131" lon="7.116327">
        <ele>38.700152</ele>
        <time>2025-08-26T08:19:35.944Z</time>
      </trkpt>
      <trkpt lat="51.547950" lon="7.116173">
        <ele>38.476121</ele>
        <time>2025-08-26T08:19:39.375Z</time>
      </trkpt>
      <trkpt lat="51.547904" lon="7.116161">
        <ele>38.425137</ele>
        <time>2025-08-26T08:19:40.303Z</time>
      </trkpt>
      <trkpt lat="51.547877" lon="7.116153">
        <ele>38.395101</ele>
        <time>2025-08-26T08:19:40.853Z</time>
      </trkpt>
      <trkpt lat="51.547827" lon="7.116127">
        <ele>38.337610</ele>
        <time>2025-08-26T08:19:41.737Z</time>
      </trkpt>
      <trkpt lat="51.547750" lon="7.115750">
        <ele>38.067641</ele>
        <time>2025-08-26T08:19:45.895Z</time>
      </trkpt>
      <trkpt lat="51.547750" lon="7.115704">
        <ele>38.036345</ele>
        <time>2025-08-26T08:19:46.382Z</time>
      </trkpt>
      <trkpt lat="51.547748" lon="7.115460">
        <ele>37.870326</ele>
        <time>2025-08-26T08:19:48.675Z</time>
      </trkpt>
      <trkpt lat="51.547711" lon="7.115074">
        <ele>37.604612</ele>
        <time>2025-08-26T08:19:52.807Z</time>
      </trkpt>
      <trkpt lat="51.547716" lon="7.114835">
        <ele>37.441918</ele>
        <time>2025-08-26T08:19:55.394Z</time>
      </trkpt>
      <trkpt lat="51.547688" lon="7.114743">
        <ele>37.372232</ele>
        <time>2025-08-26T08:19:56.783Z</time>
      </trkpt>
      <trkpt lat="51.547668" lon="7.113713">
        <ele>36.840524</ele>
        <time>2025-08-26T08:20:08.332Z</time>
      </trkpt>
      <trkpt lat="51.547640" lon="7.113505">
        <ele>36.859871</ele>
        <time>2025-08-26T08:20:10.811Z</time>
      </trkpt>
      <trkpt lat="51.547604" lon="7.113371">
        <ele>36.873141</ele>
        <time>2025-08-26T08:20:12.541Z</time>
      </trkpt>
      <trkpt lat="51.547510" lon="7.113198">
        <ele>36.894026</ele>
        <time>2025-08-26T08:20:15.269Z</time>
      </trkpt>
      <trkpt lat="51.547373" lon="7.113075">
        <ele>36.916963</ele>
        <time>2025-08-26T08:20:18.271Z</time>
      </trkpt>
      <trkpt lat="51.547259" lon="7.113039">
        <ele>36.933947</ele>
        <time>2025-08-26T08:20:20.511Z</time>
      </trkpt>
      <trkpt lat="51.547152" lon="7.113043">
        <ele>36.949594</ele>
        <time>2025-08-26T08:20:22.543Z</time>
      </trkpt>
      <trkpt lat="51.547049" lon="7.113094">
        <ele>36.965349</ele>
        <time>2025-08-26T08:20:24.578Z</time>
      </trkpt>
      <trkpt lat="51.546908" lon="7.113234">
        <ele>36.989574</ele>
        <time>2025-08-26T08:20:27.695Z</time>
      </trkpt>
      <trkpt lat="51.546829" lon="7.113367">
        <ele>37.006294</ele>
        <time>2025-08-26T08:20:29.824Z</time>
      </trkpt>
      <trkpt lat="51.546661" lon="7.113704">
        <ele>37.045560</ele>
        <time>2025-08-26T08:20:36.253Z</time>
      </trkpt>
      <trkpt lat="51.546683" lon="7.113536">
        <ele>37.061168</ele>
        <time>2025-08-26T08:20:38.392Z</time>
      </trkpt>
      <trkpt lat="51.546967" lon="7.112903">
        <ele>37.097856</ele>
        <time>2025-08-26T08:20:48.038Z</time>
      </trkpt>
      <trkpt lat="51.547046" lon="7.112593">
        <ele>37.106848</ele>
        <time>2025-08-26T08:20:52.146Z</time>
      </trkpt>
      <trkpt lat="51.547061" lon="7.112428">
        <ele>37.111324</ele>
        <time>2025-08-26T08:20:54.174Z</time>
      </trkpt>
      <trkpt lat="51.547074" lon="7.106357">
        <ele>37.470678</ele>
        <time>2025-08-26T08:22:09.368Z</time>
      </trkpt>
      <trkpt lat="51.547065" lon="7.105813">
        <ele>37.558641</ele>
        <time>2025-08-26T08:22:16.684Z</time>
      </trkpt>
      <trkpt lat="51.547110" lon="7.105534">
        <ele>37.605231</ele>
        <time>2025-08-26T08:22:20.587Z</time>
      </trkpt>
      <trkpt lat="51.547113" lon="7.104905">
        <ele>37.706905</ele>
        <time>2025-08-26T08:22:29.152Z</time>
      </trkpt>
      <trkpt lat="51.547014" lon="7.104469">
        <ele>37.781793</ele>
        <time>2025-08-26T08:22:35.585Z</time>
      </trkpt>
      <trkpt lat="51.546861" lon="7.102352">
        <ele>38.125465</ele>
        <time>2025-08-26T08:23:03.194Z</time>
      </trkpt>
      <trkpt lat="51.546753" lon="7.101517">
        <ele>38.054873</ele>
        <time>2025-08-26T08:23:13.784Z</time>
      </trkpt>
      <trkpt lat="51.546593" lon="7.100477">
        <ele>37.730185</ele>
        <time>2025-08-26T08:23:26.624Z</time>
      </trkpt>
      <trkpt lat="51.546361" lon="7.099326">
        <ele>37.363492</ele>
        <time>2025-08-26T08:23:40.239Z</time>
      </trkpt>
      <trkpt lat="51.546165" lon="7.098576">
        <ele>36.914140</ele>
        <time>2025-08-26T08:23:49.086Z</time>
      </trkpt>
      <trkpt lat="51.545927" lon="7.097980">
        <ele>36.478759</ele>
        <time>2025-08-26T08:23:56.845Z</time>
      </trkpt>
      <trkpt lat="51.545828" lon="7.097658">
        <ele>36.257961</ele>
        <time>2025-08-26T08:24:00.805Z</time>
      </trkpt>
      <trkpt lat="51.545640" lon="7.097002">
        <ele>35.813965</ele>
        <time>2025-08-26T08:24:08.000Z</time>
      </trkpt>
      <trkpt lat="51.545590" lon="7.096616">
        <ele>35.571600</ele>
        <time>2025-08-26T08:24:11.957Z</time>
      </trkpt>
      <trkpt lat="51.545536" lon="7.096124">
        <ele>35.451670</ele>
        <time>2025-08-26T08:24:17.662Z</time>
      </trkpt>
      <trkpt lat="51.545457" lon="7.095646">
        <ele>35.356977</ele>
        <time>2025-08-26T08:24:23.407Z</time>
      </trkpt>
      <trkpt lat="51.544941" lon="7.093265">
        <ele>35.496406</ele>
        <time>2025-08-26T08:24:53.717Z</time>
      </trkpt>
      <trkpt lat="51.544987" lon="7.093087">
        <ele>35.671365</ele>
        <time>2025-08-26T08:24:56.544Z</time>
      </trkpt>
      <trkpt lat="51.544993" lon="7.092939">
        <ele>35.805985</ele>
        <time>2025-08-26T08:24:58.793Z</time>
      </trkpt>
      <trkpt lat="51.544853" lon="7.092288">
        <ele>36.431210</ele>
        <time>2025-08-26T08:25:09.947Z</time>
      </trkpt>
      <trkpt lat="51.544589" lon="7.090821">
        <ele>37.797538</ele>
        <time>2025-08-26T08:25:38.008Z</time>
      </trkpt>
      <trkpt lat="51.544589" lon="7.090627">
        <ele>37.956948</ele>
        <time>2025-08-26T08:25:41.480Z</time>
      </trkpt>
      <trkpt lat="51.544557" lon="7.090438">
        <ele>38.117902</ele>
        <time>2025-08-26T08:25:44.904Z</time>
      </trkpt>
      <trkpt lat="51.544419" lon="7.090057">
        <ele>38.480197</ele>
        <time>2025-08-26T08:25:52.323Z</time>
      </trkpt>
      <trkpt lat="51.544241" lon="7.090427">
        <ele>38.864575</ele>
        <time>2025-08-26T08:25:59.793Z</time>
      </trkpt>
      <trkpt lat="51.543364" lon="7.090452">
        <ele>39.983998</ele>
        <time>2025-08-26T08:26:19.776Z</time>
      </trkpt>
      <trkpt lat="51.543326" lon="7.090397">
        <ele>39.983607</ele>
        <time>2025-08-26T08:26:20.854Z</time>
      </trkpt>
      <trkpt lat="51.543539" lon="7.090085">
        <ele>39.981404</ele>
        <time>2025-08-26T08:26:26.521Z</time>
      </trkpt>
      <trkpt lat="51.543659" lon="7.089823">
        <ele>39.979857</ele>
        <time>2025-08-26T08:26:30.432Z</time>
      </trkpt>
      <trkpt lat="51.543717" lon="7.089607">
        <ele>39.978738</ele>
        <time>2025-08-26T08:26:33.280Z</time>
      </trkpt>
      <trkpt lat="51.543737" lon="7.089300">
        <ele>39.977271</ele>
        <time>2025-08-26T08:26:37.001Z</time>
      </trkpt>
      <trkpt lat="51.543718" lon="7.089132">
        <ele>39.976459</ele>
        <time>2025-08-26T08:26:39.051Z</time>
      </trkpt>
      <trkpt lat="51.543639" lon="7.088875">
        <ele>39.975095</ele>
        <time>2025-08-26T08:26:42.499Z</time>
      </trkpt>
      <trkpt lat="51.543559" lon="7.088733">
        <ele>39.974184</ele>
        <time>2025-08-26T08:26:44.821Z</time>
      </trkpt>
      <trkpt lat="51.543371" lon="7.088504">
        <ele>39.972381</ele>
        <time>2025-08-26T08:26:49.446Z</time>
      </trkpt>
      <trkpt lat="51.542993" lon="7.088238">
        <ele>39.990564</ele>
        <time>2025-08-26T08:26:57.618Z</time>
      </trkpt>
      <trkpt lat="51.542713" lon="7.088168">
        <ele>40.025465</ele>
        <time>2025-08-26T08:27:03.094Z</time>
      </trkpt>
      <trkpt lat="51.542456" lon="7.088185">
        <ele>40.057145</ele>
        <time>2025-08-26T08:27:08.110Z</time>
      </trkpt>
      <trkpt lat="51.542313" lon="7.088228">
        <ele>40.075064</ele>
        <time>2025-08-26T08:27:10.962Z</time>
      </trkpt>
      <trkpt lat="51.542231" lon="7.088262">
        <ele>40.085494</ele>
        <time>2025-08-26T08:27:12.659Z</time>
      </trkpt>
      <trkpt lat="51.542240" lon="7.088210">
        <ele>40.089628</ele>
        <time>2025-08-26T08:27:13.318Z</time>
      </trkpt>
      <trkpt lat="51.542208" lon="7.088295">
        <ele>40.097239</ele>
        <time>2025-08-26T08:27:17.609Z</time>
      </trkpt>
      <trkpt lat="51.542240" lon="7.088210">
        <ele>40.104850</ele>
        <time>2025-08-26T08:27:21.901Z</time>
      </trkpt>
      <trkpt lat="51.542328" lon="7.087501">
        <ele>40.160232</ele>
        <time>2025-08-26T08:27:31.272Z</time>
      </trkpt>
      <trkpt lat="51.542338" lon="7.086934">
        <ele>40.190258</ele>
        <time>2025-08-26T08:27:38.989Z</time>
      </trkpt>
      <trkpt lat="51.542318" lon="7.086525">
        <ele>40.185554</ele>
        <time>2025-08-26T08:27:44.585Z</time>
      </trkpt>
      <trkpt lat="51.542268" lon="7.086127">
        <ele>40.180899</ele>
        <time>2025-08-26T08:27:49.980Z</time>
      </trkpt>
      <trkpt lat="51.542079" lon="7.085091">
        <ele>40.168521</ele>
        <time>2025-08-26T08:28:04.085Z</time>
      </trkpt>
      <trkpt lat="51.542116" lon="7.085054">
        <ele>40.167718</ele>
        <time>2025-08-26T08:28:04.917Z</time>
      </trkpt>
      <trkpt lat="51.542061" lon="7.084870">
        <ele>40.165377</ele>
        <time>2025-08-26T08:28:07.072Z</time>
      </trkpt>
      <trkpt lat="51.542045" lon="7.084805">
        <ele>40.164576</ele>
        <time>2025-08-26T08:28:07.827Z</time>
      </trkpt>
      <trkpt lat="51.542029" lon="7.084721">
        <ele>40.163569</ele>
        <time>2025-08-26T08:28:08.766Z</time>
      </trkpt>
      <trkpt lat="51.542161" lon="7.084648">
        <ele>40.160995</ele>
        <time>2025-08-26T08:28:11.054Z</time>
      </trkpt>
      <trkpt lat="51.542150" lon="7.084574">
        <ele>40.160123</ele>
        <time>2025-08-26T08:28:12.078Z</time>
      </trkpt>
      <trkpt lat="51.542156" lon="7.084504">
        <ele>40.159313</ele>
        <time>2025-08-26T08:28:13.024Z</time>
      </trkpt>
      <trkpt lat="51.542218" lon="7.084431">
        <ele>40.100855</ele>
        <time>2025-08-26T08:28:14.648Z</time>
      </trkpt>
      <trkpt lat="51.542780" lon="7.083914">
        <ele>39.374326</ele>
        <time>2025-08-26T08:28:28.166Z</time>
      </trkpt>
      <trkpt lat="51.542914" lon="7.083727">
        <ele>39.175233</ele>
        <time>2025-08-26T08:28:31.816Z</time>
      </trkpt>
      <trkpt lat="51.542768" lon="7.083229">
        <ele>38.791022</ele>
        <time>2025-08-26T08:28:37.679Z</time>
      </trkpt>
      <trkpt lat="51.542171" lon="7.081602">
        <ele>37.881081</ele>
        <time>2025-08-26T08:28:58.954Z</time>
      </trkpt>
      <trkpt lat="51.540549" lon="7.077614">
        <ele>37.010550</ele>
        <time>2025-08-26T08:29:56.054Z</time>
      </trkpt>
      <trkpt lat="51.540284" lon="7.076965">
        <ele>36.957013</ele>
        <time>2025-08-26T08:30:05.474Z</time>
      </trkpt>
      <trkpt lat="51.539779" lon="7.075941">
        <ele>36.872914</ele>
        <time>2025-08-26T08:30:21.498Z</time>
      </trkpt>
      <trkpt lat="51.539364" lon="7.075170">
        <ele>36.817938</ele>
        <time>2025-08-26T08:30:33.868Z</time>
      </trkpt>
      <trkpt lat="51.538766" lon="7.074140">
        <ele>36.827792</ele>
        <time>2025-08-26T08:30:50.818Z</time>
      </trkpt>
      <trkpt lat="51.538607" lon="7.073773">
        <ele>36.830920</ele>
        <time>2025-08-26T08:30:56.219Z</time>
      </trkpt>
      <trkpt lat="51.537871" lon="7.072660">
        <ele>37.261231</ele>
        <time>2025-08-26T08:31:17.368Z</time>
      </trkpt>
      <trkpt lat="51.536979" lon="7.071023">
        <ele>38.500716</ele>
        <time>2025-08-26T08:31:50.804Z</time>
      </trkpt>
      <trkpt lat="51.536922" lon="7.070996">
        <ele>38.509181</ele>
        <time>2025-08-26T08:31:52.223Z</time>
      </trkpt>
      <trkpt lat="51.536647" lon="7.071109">
        <ele>38.549617</ele>
        <time>2025-08-26T08:32:01.772Z</time>
      </trkpt>
      <trkpt lat="51.536617" lon="7.071230">
        <ele>38.561159</ele>
        <time>2025-08-26T08:32:04.413Z</time>
      </trkpt>
      <trkpt lat="51.536599" lon="7.071408">
        <ele>38.577139</ele>
        <time>2025-08-26T08:32:08.105Z</time>
      </trkpt>
      <trkpt lat="51.536391" lon="7.071514">
        <ele>38.608224</ele>
        <time>2025-08-26T08:32:15.188Z</time>
      </trkpt>
      <trkpt lat="51.536232" lon="7.071007">
        <ele>38.658537</ele>
        <time>2025-08-26T08:32:21.982Z</time>
      </trkpt>
      <trkpt lat="51.536200" lon="7.070917">
        <ele>38.667723</ele>
        <time>2025-08-26T08:32:23.099Z</time>
      </trkpt>
      <trkpt lat="51.536055" lon="7.070506">
        <ele>38.709593</ele>
        <time>2025-08-26T08:32:28.014Z</time>
      </trkpt>
      <trkpt lat="51.535855" lon="7.070018">
        <ele>38.720343</ele>
        <time>2025-08-26T08:32:33.701Z</time>
      </trkpt>
      <trkpt lat="51.535771" lon="7.069845">
        <ele>38.615920</ele>
        <time>2025-08-26T08:32:35.793Z</time>
      </trkpt>
      <trkpt lat="51.535257" lon="7.068928">
        <ele>38.028591</ele>
        <time>2025-08-26T08:32:47.886Z</time>
      </trkpt>
      <trkpt lat="51.535098" lon="7.068613">
        <ele>37.835572</ele>
        <time>2025-08-26T08:32:51.942Z</time>
      </trkpt>
      <trkpt lat="51.534718" lon="7.067834">
        <ele>37.381721</ele>
        <time>2025-08-26T08:33:02.262Z</time>
      </trkpt>
      <trkpt lat="51.534500" lon="7.067339">
        <ele>37.433522</ele>
        <time>2025-08-26T08:33:09.202Z</time>
      </trkpt>
      <trkpt lat="51.534086" lon="7.066305">
        <ele>37.538549</ele>
        <time>2025-08-26T08:33:23.676Z</time>
      </trkpt>
      <trkpt lat="51.534092" lon="7.066191">
        <ele>37.548321</ele>
        <time>2025-08-26T08:33:25.170Z</time>
      </trkpt>
      <trkpt lat="51.534098" lon="7.066054">
        <ele>37.560051</ele>
        <time>2025-08-26T08:33:26.994Z</time>
      </trkpt>
      <trkpt lat="51.534049" lon="7.065836">
        <ele>37.579849</ele>
        <time>2025-08-26T08:33:30.043Z</time>
      </trkpt>
      <trkpt lat="51.533833" lon="7.065346">
        <ele>37.621227</ele>
        <time>2025-08-26T08:33:37.967Z</time>
      </trkpt>
      <trkpt lat="51.533171" lon="7.063726">
        <ele>37.463262</ele>
        <time>2025-08-26T08:34:01.686Z</time>
      </trkpt>
      <trkpt lat="51.533063" lon="7.063443">
        <ele>37.436204</ele>
        <time>2025-08-26T08:34:05.619Z</time>
      </trkpt>
      <trkpt lat="51.533001" lon="7.063349">
        <ele>37.425039</ele>
        <time>2025-08-26T08:34:07.229Z</time>
      </trkpt>
      <trkpt lat="51.532845" lon="7.062892">
        <ele>37.350924</ele>
        <time>2025-08-26T08:34:13.314Z</time>
      </trkpt>
      <trkpt lat="51.532650" lon="7.062431">
        <ele>37.122880</ele>
        <time>2025-08-26T08:34:19.700Z</time>
      </trkpt>
      <trkpt lat="51.531816" lon="7.060673">
        <ele>36.218486</ele>
        <time>2025-08-26T08:34:44.889Z</time>
      </trkpt>
      <trkpt lat="51.531503" lon="7.060378">
        <ele>36.025031</ele>
        <time>2025-08-26T08:34:51.513Z</time>
      </trkpt>
      <trkpt lat="51.531076" lon="7.059649">
        <ele>35.696598</ele>
        <time>2025-08-26T08:35:02.906Z</time>
      </trkpt>
      <trkpt lat="51.529926" lon="7.056899">
        <ele>34.792728</ele>
        <time>2025-08-26T08:35:42.367Z</time>
      </trkpt>
      <trkpt lat="51.529838" lon="7.056961">
        <ele>34.756342</ele>
        <time>2025-08-26T08:35:43.972Z</time>
      </trkpt>
      <trkpt lat="51.529755" lon="7.056921">
        <ele>34.723527</ele>
        <time>2025-08-26T08:35:45.400Z</time>
      </trkpt>
      <trkpt lat="51.529622" lon="7.056775">
        <ele>34.662534</ele>
        <time>2025-08-26T08:35:48.083Z</time>
      </trkpt>
      <trkpt lat="51.529333" lon="7.056214">
        <ele>34.465362</ele>
        <time>2025-08-26T08:35:55.592Z</time>
      </trkpt>
      <trkpt lat="51.529511" lon="7.056029">
        <ele>34.361551</ele>
        <time>2025-08-26T08:35:59.113Z</time>
      </trkpt>
      <trkpt lat="51.529697" lon="7.055836">
        <ele>34.253126</ele>
        <time>2025-08-26T08:36:02.766Z</time>
      </trkpt>
      <trkpt lat="51.529648" lon="7.055558">
        <ele>34.165092</ele>
        <time>2025-08-26T08:36:05.725Z</time>
      </trkpt>
      <trkpt lat="51.529569" lon="7.055136">
        <ele>34.030822</ele>
        <time>2025-08-26T08:36:10.189Z</time>
      </trkpt>
      <trkpt lat="51.528495" lon="7.052498">
        <ele>33.406874</ele>
        <time>2025-08-26T08:36:47.726Z</time>
      </trkpt>
      <trkpt lat="51.528099" lon="7.051147">
        <ele>33.185697</ele>
        <time>2025-08-26T08:37:06.142Z</time>
      </trkpt>
      <trkpt lat="51.527643" lon="7.049447">
        <ele>32.895185</ele>
        <time>2025-08-26T08:37:28.024Z</time>
      </trkpt>
      <trkpt lat="51.527455" lon="7.048821">
        <ele>32.809898</ele>
        <time>2025-08-26T08:37:36.221Z</time>
      </trkpt>
      <trkpt lat="51.527349" lon="7.048568">
        <ele>32.785040</ele>
        <time>2025-08-26T08:37:40.497Z</time>
      </trkpt>
      <trkpt lat="51.527185" lon="7.048291">
        <ele>32.753878</ele>
        <time>2025-08-26T08:37:44.980Z</time>
      </trkpt>
      <trkpt lat="51.526376" lon="7.046356">
        <ele>32.600002</ele>
        <time>2025-08-26T08:38:13.733Z</time>
      </trkpt>
      <trkpt lat="51.524655" lon="7.042164">
        <ele>32.643224</ele>
        <time>2025-08-26T08:39:15.357Z</time>
      </trkpt>
      <trkpt lat="51.524595" lon="7.041970">
        <ele>32.646861</ele>
        <time>2025-08-26T08:39:18.018Z</time>
      </trkpt>
      <trkpt lat="51.524510" lon="7.041576">
        <ele>32.786518</ele>
        <time>2025-08-26T08:39:23.213Z</time>
      </trkpt>
      <trkpt lat="51.524324" lon="7.041098">
        <ele>33.031677</ele>
        <time>2025-08-26T08:39:30.623Z</time>
      </trkpt>
      <trkpt lat="51.524172" lon="7.040878">
        <ele>33.174636</ele>
        <time>2025-08-26T08:39:35.047Z</time>
      </trkpt>
      <trkpt lat="51.523623" lon="7.039553">
        <ele>33.866878</ele>
        <time>2025-08-26T08:39:58.454Z</time>
      </trkpt>
      <trkpt lat="51.523503" lon="7.039332">
        <ele>33.976851</ele>
        <time>2025-08-26T08:40:03.229Z</time>
      </trkpt>
      <trkpt lat="51.522918" lon="7.039053">
        <ele>34.318925</ele>
        <time>2025-08-26T08:40:17.631Z</time>
      </trkpt>
      <trkpt lat="51.522827" lon="7.039008">
        <ele>34.372298</ele>
        <time>2025-08-26T08:40:19.703Z</time>
      </trkpt>
      <trkpt lat="51.522655" lon="7.038920">
        <ele>34.473486</ele>
        <time>2025-08-26T08:40:23.464Z</time>
      </trkpt>
      <trkpt lat="51.522639" lon="7.038911">
        <ele>34.482989</ele>
        <time>2025-08-26T08:40:23.803Z</time>
      </trkpt>
      <trkpt lat="51.522562" lon="7.038869">
        <ele>34.528572</ele>
        <time>2025-08-26T08:40:25.399Z</time>
      </trkpt>
      <trkpt lat="51.522428" lon="7.038796">
        <ele>34.607887</ele>
        <time>2025-08-26T08:40:28.087Z</time>
      </trkpt>
      <trkpt lat="51.522377" lon="7.038780">
        <ele>34.637017</ele>
        <time>2025-08-26T08:40:29.047Z</time>
      </trkpt>
      <trkpt lat="51.522181" lon="7.038907">
        <ele>34.755484</ele>
        <time>2025-08-26T08:40:32.762Z</time>
      </trkpt>
      <trkpt lat="51.522124" lon="7.038838">
        <ele>34.795487</ele>
        <time>2025-08-26T08:40:33.975Z</time>
      </trkpt>
      <trkpt lat="51.522287" lon="7.037981">
        <ele>34.754236</ele>
        <time>2025-08-26T08:40:44.194Z</time>
      </trkpt>
      <trkpt lat="51.522426" lon="7.037222">
        <ele>34.527317</ele>
        <time>2025-08-26T08:40:52.719Z</time>
      </trkpt>
      <trkpt lat="51.522454" lon="7.037074">
        <ele>34.482951</ele>
        <time>2025-08-26T08:40:54.374Z</time>
      </trkpt>
      <trkpt lat="51.522734" lon="7.035571">
        <ele>34.179701</ele>
        <time>2025-08-26T08:41:11.182Z</time>
      </trkpt>
      <trkpt lat="51.522742" lon="7.035539">
        <ele>34.197806</ele>
        <time>2025-08-26T08:41:11.719Z</time>
      </trkpt>
      <trkpt lat="51.522759" lon="7.034380">
        <ele>34.806444</ele>
        <time>2025-08-26T08:41:30.183Z</time>
      </trkpt>
      <trkpt lat="51.522946" lon="7.034477">
        <ele>34.972243</ele>
        <time>2025-08-26T08:41:35.205Z</time>
      </trkpt>
      <trkpt lat="51.522978" lon="7.034309">
        <ele>35.064482</ele>
        <time>2025-08-26T08:41:42.786Z</time>
      </trkpt>
      <trkpt lat="51.523025" lon="7.034059">
        <ele>35.201590</ele>
        <time>2025-08-26T08:41:54.070Z</time>
      </trkpt>
      <trkpt lat="51.523153" lon="7.033378">
        <ele>35.575066</ele>
        <time>2025-08-26T08:42:24.858Z</time>
      </trkpt>
      <trkpt lat="51.523176" lon="7.033263">
        <ele>35.586420</ele>
        <time>2025-08-26T08:42:30.040Z</time>
      </trkpt>
      <trkpt lat="51.523188" lon="7.033198">
        <ele>35.570587</ele>
        <time>2025-08-26T08:42:30.869Z</time>
      </trkpt>
      <trkpt lat="51.523248" lon="7.032876">
        <ele>35.492091</ele>
        <time>2025-08-26T08:42:34.797Z</time>
      </trkpt>
      <trkpt lat="51.523283" lon="7.032684">
        <ele>35.445369</ele>
        <time>2025-08-26T08:42:37.157Z</time>
      </trkpt>
      <trkpt lat="51.523320" lon="7.032494">
        <ele>35.398876</ele>
        <time>2025-08-26T08:42:39.292Z</time>
      </trkpt>
      <trkpt lat="51.523480" lon="7.031642">
        <ele>35.191046</ele>
        <time>2025-08-26T08:43:17.743Z</time>
      </trkpt>
      <trkpt lat="51.523487" lon="7.031609">
        <ele>35.182904</ele>
        <time>2025-08-26T08:43:18.107Z</time>
      </trkpt>
      <trkpt lat="51.523516" lon="7.031420">
        <ele>35.137445</ele>
        <time>2025-08-26T08:43:20.117Z</time>
      </trkpt>
      <trkpt lat="51.523461" lon="7.031406">
        <ele>35.116545</ele>
        <time>2025-08-26T08:43:21.079Z</time>
      </trkpt>
      <trkpt lat="51.523185" lon="7.030708">
        <ele>34.930248</ele>
        <time>2025-08-26T08:43:30.178Z</time>
      </trkpt>
      <trkpt lat="51.523163" lon="7.030514">
        <ele>34.963758</ele>
        <time>2025-08-26T08:43:32.440Z</time>
      </trkpt>
      <trkpt lat="51.523063" lon="7.030425">
        <ele>34.994979</ele>
        <time>2025-08-26T08:43:34.566Z</time>
      </trkpt>
      <trkpt lat="51.522988" lon="7.030313">
        <ele>35.022940</ele>
        <time>2025-08-26T08:43:36.499Z</time>
      </trkpt>
      <trkpt lat="51.522854" lon="7.030001">
        <ele>35.087365</ele>
        <time>2025-08-26T08:43:41.123Z</time>
      </trkpt>
      <trkpt lat="51.522817" lon="7.029908">
        <ele>35.106124</ele>
        <time>2025-08-26T08:43:42.456Z</time>
      </trkpt>
      <trkpt lat="51.522711" lon="7.029637">
        <ele>35.160521</ele>
        <time>2025-08-26T08:43:46.471Z</time>
      </trkpt>
      <trkpt lat="51.522634" lon="7.029327">
        <ele>35.217244</ele>
        <time>2025-08-26T08:43:50.769Z</time>
      </trkpt>
      <trkpt lat="51.522177" lon="7.028267">
        <ele>35.419413</ele>
        <time>2025-08-26T08:44:07.827Z</time>
      </trkpt>
      <trkpt lat="51.520415" lon="7.023854">
        <ele>34.874821</ele>
        <time>2025-08-26T08:45:07.649Z</time>
      </trkpt>
      <trkpt lat="51.520345" lon="7.023494">
        <ele>34.787982</ele>
        <time>2025-08-26T08:45:11.435Z</time>
      </trkpt>
      <trkpt lat="51.520318" lon="7.023410">
        <ele>34.754283</ele>
        <time>2025-08-26T08:45:12.385Z</time>
      </trkpt>
      <trkpt lat="51.520283" lon="7.023304">
        <ele>34.689405</ele>
        <time>2025-08-26T08:45:13.667Z</time>
      </trkpt>
      <trkpt lat="51.520147" lon="7.023097">
        <ele>34.526650</ele>
        <time>2025-08-26T08:45:16.876Z</time>
      </trkpt>
      <trkpt lat="51.520095" lon="7.022960">
        <ele>34.439887</ele>
        <time>2025-08-26T08:45:18.585Z</time>
      </trkpt>
      <trkpt lat="51.519947" lon="7.022485">
        <ele>34.152676</ele>
        <time>2025-08-26T08:45:24.210Z</time>
      </trkpt>
      <trkpt lat="51.519735" lon="7.021958">
        <ele>33.813390</ele>
        <time>2025-08-26T08:45:30.842Z</time>
      </trkpt>
      <trkpt lat="51.519710" lon="7.021871">
        <ele>33.761579</ele>
        <time>2025-08-26T08:45:31.751Z</time>
      </trkpt>
      <trkpt lat="51.519569" lon="7.021241">
        <ele>33.399598</ele>
        <time>2025-08-26T08:45:38.763Z</time>
      </trkpt>
      <trkpt lat="51.519180" lon="7.020463">
        <ele>33.485279</ele>
        <time>2025-08-26T08:45:52.129Z</time>
      </trkpt>
      <trkpt lat="51.518935" lon="7.019876">
        <ele>33.781496</ele>
        <time>2025-08-26T08:46:02.201Z</time>
      </trkpt>
      <trkpt lat="51.518704" lon="7.019320">
        <ele>34.061673</ele>
        <time>2025-08-26T08:46:11.994Z</time>
      </trkpt>
      <trkpt lat="51.517968" lon="7.017453">
        <ele>34.936909</ele>
        <time>2025-08-26T08:46:40.827Z</time>
      </trkpt>
      <trkpt lat="51.517168" lon="7.015478">
        <ele>35.481060</ele>
        <time>2025-08-26T08:47:09.805Z</time>
      </trkpt>
      <trkpt lat="51.516233" lon="7.013170">
        <ele>34.833944</ele>
        <time>2025-08-26T08:47:39.328Z</time>
      </trkpt>
      <trkpt lat="51.516083" lon="7.012780">
        <ele>34.472211</ele>
        <time>2025-08-26T08:47:43.762Z</time>
      </trkpt>
      <trkpt lat="51.515514" lon="7.011371">
        <ele>33.146954</ele>
        <time>2025-08-26T08:47:59.466Z</time>
      </trkpt>
      <trkpt lat="51.515409" lon="7.011483">
        <ele>32.980392</ele>
        <time>2025-08-26T08:48:01.534Z</time>
      </trkpt>
      <trkpt lat="51.515380" lon="7.011597">
        <ele>32.876625</ele>
        <time>2025-08-26T08:48:02.795Z</time>
      </trkpt>
      <trkpt lat="51.515374" lon="7.011752">
        <ele>32.745776</ele>
        <time>2025-08-26T08:48:04.397Z</time>
      </trkpt>
      <trkpt lat="51.515364" lon="7.012792">
        <ele>31.869412</ele>
        <time>2025-08-26T08:48:14.103Z</time>
      </trkpt>
      <trkpt lat="51.515341" lon="7.013026">
        <ele>31.669809</ele>
        <time>2025-08-26T08:48:16.372Z</time>
      </trkpt>
      <trkpt lat="51.515226" lon="7.013026">
        <ele>31.514107</ele>
        <time>2025-08-26T08:48:18.369Z</time>
      </trkpt>
      <trkpt lat="51.515178" lon="7.012973">
        <ele>31.435255</ele>
        <time>2025-08-26T08:48:19.397Z</time>
      </trkpt>
      <trkpt lat="51.514768" lon="7.011875">
        <ele>30.603342</ele>
        <time>2025-08-26T08:48:33.649Z</time>
      </trkpt>
      <trkpt lat="51.513618" lon="7.006842">
        <ele>30.187267</ele>
        <time>2025-08-26T08:49:39.254Z</time>
      </trkpt>
      <trkpt lat="51.512384" lon="7.001373">
        <ele>29.984034</ele>
        <time>2025-08-26T08:50:50.168Z</time>
      </trkpt>
      <trkpt lat="51.512335" lon="7.000926">
        <ele>29.978769</ele>
        <time>2025-08-26T08:50:56.009Z</time>
      </trkpt>
      <trkpt lat="51.512309" lon="7.000170">
        <ele>29.970576</ele>
        <time>2025-08-26T08:51:05.669Z</time>
      </trkpt>
      <trkpt lat="51.512267" lon="6.999512">
        <ele>29.963419</ele>
        <time>2025-08-26T08:51:14.025Z</time>
      </trkpt>
      <trkpt lat="51.512162" lon="6.995151">
        <ele>29.970443</ele>
        <time>2025-08-26T08:52:06.428Z</time>
      </trkpt>
      <trkpt lat="51.512171" lon="6.994858">
        <ele>30.117542</ele>
        <time>2025-08-26T08:52:11.079Z</time>
      </trkpt>
      <trkpt lat="51.512143" lon="6.994568">
        <ele>30.264697</ele>
        <time>2025-08-26T08:52:15.796Z</time>
      </trkpt>
      <trkpt lat="51.512055" lon="6.994173">
        <ele>30.475071</ele>
        <time>2025-08-26T08:52:22.201Z</time>
      </trkpt>
      <trkpt lat="51.511796" lon="6.993368">
        <ele>30.929477</ele>
        <time>2025-08-26T08:52:35.524Z</time>
      </trkpt>
      <trkpt lat="51.511747" lon="6.993224">
        <ele>31.011772</ele>
        <time>2025-08-26T08:52:37.915Z</time>
      </trkpt>
      <trkpt lat="51.511592" lon="6.993373">
        <ele>31.157300</ele>
        <time>2025-08-26T08:52:42.181Z</time>
      </trkpt>
      <trkpt lat="51.511366" lon="6.993995">
        <ele>31.275168</ele>
        <time>2025-08-26T08:52:52.846Z</time>
      </trkpt>
      <trkpt lat="51.511300" lon="6.994067">
        <ele>31.289338</ele>
        <time>2025-08-26T08:52:54.592Z</time>
      </trkpt>
      <trkpt lat="51.511209" lon="6.994003">
        <ele>31.306982</ele>
        <time>2025-08-26T08:52:56.651Z</time>
      </trkpt>
      <trkpt lat="51.511128" lon="6.993851">
        <ele>31.329103</ele>
        <time>2025-08-26T08:52:59.149Z</time>
      </trkpt>
      <trkpt lat="51.510925" lon="6.993188">
        <ele>31.410784</ele>
        <time>2025-08-26T08:53:07.837Z</time>
      </trkpt>
      <trkpt lat="51.510813" lon="6.992797">
        <ele>31.458366</ele>
        <time>2025-08-26T08:53:13.896Z</time>
      </trkpt>
      <trkpt lat="51.510684" lon="6.992655">
        <ele>31.486141</ele>
        <time>2025-08-26T08:53:17.540Z</time>
      </trkpt>
      <trkpt lat="51.510643" lon="6.992564">
        <ele>31.498560</ele>
        <time>2025-08-26T08:53:19.198Z</time>
      </trkpt>
      <trkpt lat="51.510494" lon="6.992138">
        <ele>31.561806</ele>
        <time>2025-08-26T08:53:26.580Z</time>
      </trkpt>
      <trkpt lat="51.510493" lon="6.992037">
        <ele>31.576826</ele>
        <time>2025-08-26T08:53:28.102Z</time>
      </trkpt>
      <trkpt lat="51.510523" lon="6.991889">
        <ele>31.599971</ele>
        <time>2025-08-26T08:53:30.124Z</time>
      </trkpt>
      <trkpt lat="51.510495" lon="6.991783">
        <ele>31.617094</ele>
        <time>2025-08-26T08:53:31.568Z</time>
      </trkpt>
      <trkpt lat="51.510405" lon="6.991517">
        <ele>31.662114</ele>
        <time>2025-08-26T08:53:35.075Z</time>
      </trkpt>
      <trkpt lat="51.510359" lon="6.991378">
        <ele>31.685523</ele>
        <time>2025-08-26T08:53:36.979Z</time>
      </trkpt>
      <trkpt lat="51.510291" lon="6.991370">
        <ele>31.701813</ele>
        <time>2025-08-26T08:53:38.289Z</time>
      </trkpt>
      <trkpt lat="51.510228" lon="6.991244">
        <ele>31.725846</ele>
        <time>2025-08-26T08:53:40.284Z</time>
      </trkpt>
      <trkpt lat="51.508916" lon="6.987575">
        <ele>32.269087</ele>
        <time>2025-08-26T08:54:29.953Z</time>
      </trkpt>
      <trkpt lat="51.508459" lon="6.986262">
        <ele>32.027330</ele>
        <time>2025-08-26T08:54:47.981Z</time>
      </trkpt>
      <trkpt lat="51.508405" lon="6.985929">
        <ele>31.957107</ele>
        <time>2025-08-26T08:54:52.004Z</time>
      </trkpt>
      <trkpt lat="51.508222" lon="6.985579">
        <ele>31.863825</ele>
        <time>2025-08-26T08:54:57.312Z</time>
      </trkpt>
      <trkpt lat="51.506006" lon="6.979383">
        <ele>29.671975</ele>
        <time>2025-08-26T08:56:19.913Z</time>
      </trkpt>
      <trkpt lat="51.505578" lon="6.978110">
        <ele>29.729722</ele>
        <time>2025-08-26T08:56:37.420Z</time>
      </trkpt>
      <trkpt lat="51.505595" lon="6.978026">
        <ele>29.733248</ele>
        <time>2025-08-26T08:56:38.604Z</time>
      </trkpt>
      <trkpt lat="51.505535" lon="6.977466">
        <ele>29.755928</ele>
        <time>2025-08-26T08:56:47.669Z</time>
      </trkpt>
      <trkpt lat="51.505558" lon="6.977367">
        <ele>29.760145</ele>
        <time>2025-08-26T08:56:49.384Z</time>
      </trkpt>
      <trkpt lat="51.505669" lon="6.977207">
        <ele>29.862280</ele>
        <time>2025-08-26T08:56:53.375Z</time>
      </trkpt>
      <trkpt lat="51.505730" lon="6.977107">
        <ele>29.961880</ele>
        <time>2025-08-26T08:56:55.426Z</time>
      </trkpt>
      <trkpt lat="51.505731" lon="6.977028">
        <ele>30.018089</ele>
        <time>2025-08-26T08:56:56.571Z</time>
      </trkpt>
      <trkpt lat="51.505993" lon="6.976834">
        <ele>30.347788</ele>
        <time>2025-08-26T08:57:03.046Z</time>
      </trkpt>
      <trkpt lat="51.506648" lon="6.976443">
        <ele>31.146358</ele>
        <time>2025-08-26T08:57:19.650Z</time>
      </trkpt>
      <trkpt lat="51.507305" lon="6.976136">
        <ele>31.871355</ele>
        <time>2025-08-26T08:57:35.109Z</time>
      </trkpt>
      <trkpt lat="51.507410" lon="6.976144">
        <ele>31.928432</ele>
        <time>2025-08-26T08:57:37.325Z</time>
      </trkpt>
      <trkpt lat="51.507163" lon="6.975204">
        <ele>32.273264</ele>
        <time>2025-08-26T08:57:50.389Z</time>
      </trkpt>
      <trkpt lat="51.507716" lon="6.975272">
        <ele>32.574410</ele>
        <time>2025-08-26T08:58:00.686Z</time>
      </trkpt>
      <trkpt lat="51.508347" lon="6.975141">
        <ele>32.880676</ele>
        <time>2025-08-26T08:58:12.730Z</time>
      </trkpt>
      <trkpt lat="51.508711" lon="6.974950">
        <ele>33.022574</ele>
        <time>2025-08-26T08:58:20.006Z</time>
      </trkpt>
      <trkpt lat="51.508813" lon="6.974888">
        <ele>33.062986</ele>
        <time>2025-08-26T08:58:22.062Z</time>
      </trkpt>
      <trkpt lat="51.508849" lon="6.974822">
        <ele>33.083227</ele>
        <time>2025-08-26T08:58:23.064Z</time>
      </trkpt>
      <trkpt lat="51.508873" lon="6.974607">
        <ele>33.133605</ele>
        <time>2025-08-26T08:58:25.547Z</time>
      </trkpt>
      <trkpt lat="51.508994" lon="6.974504">
        <ele>33.184348</ele>
        <time>2025-08-26T08:58:28.061Z</time>
      </trkpt>
      <trkpt lat="51.509066" lon="6.974348">
        <ele>33.229141</ele>
        <time>2025-08-26T08:58:30.309Z</time>
      </trkpt>
      <trkpt lat="51.509133" lon="6.974303">
        <ele>33.256051</ele>
        <time>2025-08-26T08:58:31.649Z</time>
      </trkpt>
      <trkpt lat="51.509902" lon="6.973896">
        <ele>33.611344</ele>
        <time>2025-08-26T08:58:48.147Z</time>
      </trkpt>
      <trkpt lat="51.509310" lon="6.972066">
        <ele>34.369245</ele>
        <time>2025-08-26T08:59:17.009Z</time>
      </trkpt>
      <trkpt lat="51.509217" lon="6.971785">
        <ele>34.486199</ele>
        <time>2025-08-26T08:59:21.320Z</time>
      </trkpt>
      <trkpt lat="51.509139" lon="6.971724">
        <ele>34.523332</ele>
        <time>2025-08-26T08:59:23.178Z</time>
      </trkpt>
      <trkpt lat="51.508996" lon="6.971819">
        <ele>34.511716</ele>
        <time>2025-08-26T08:59:26.462Z</time>
      </trkpt>
      <trkpt lat="51.508522" lon="6.972213">
        <ele>34.471658</ele>
        <time>2025-08-26T08:59:37.381Z</time>
      </trkpt>
      <trkpt lat="51.508451" lon="6.972175">
        <ele>34.466041</ele>
        <time>2025-08-26T08:59:38.858Z</time>
      </trkpt>
      <trkpt lat="51.508379" lon="6.972020">
        <ele>34.457005</ele>
        <time>2025-08-26T08:59:41.197Z</time>
      </trkpt>
      <trkpt lat="51.508154" lon="6.971020">
        <ele>34.407327</ele>
        <time>2025-08-26T08:59:53.994Z</time>
      </trkpt>
      <trkpt lat="51.508172" lon="6.970454">
        <ele>34.333226</ele>
        <time>2025-08-26T09:00:00.514Z</time>
      </trkpt>
      <trkpt lat="51.508103" lon="6.969561">
        <ele>34.070232</ele>
        <time>2025-08-26T09:00:10.743Z</time>
      </trkpt>
      <trkpt lat="51.508155" lon="6.969207">
        <ele>33.963929</ele>
        <time>2025-08-26T09:00:14.810Z</time>
      </trkpt>
      <trkpt lat="51.508130" lon="6.969049">
        <ele>33.916282</ele>
        <time>2025-08-26T09:00:16.649Z</time>
      </trkpt>
      <trkpt lat="51.508089" lon="6.968742">
        <ele>33.824515</ele>
        <time>2025-08-26T09:00:19.778Z</time>
      </trkpt>
      <trkpt lat="51.508108" lon="6.968600">
        <ele>33.782066</ele>
        <time>2025-08-26T09:00:21.239Z</time>
      </trkpt>
      <trkpt lat="51.508191" lon="6.968335">
        <ele>33.695363</ele>
        <time>2025-08-26T09:00:24.208Z</time>
      </trkpt>
      <trkpt lat="51.508527" lon="6.963750">
        <ele>35.181626</ele>
        <time>2025-08-26T09:01:20.469Z</time>
      </trkpt>
      <trkpt lat="51.508566" lon="6.963607">
        <ele>35.308045</ele>
        <time>2025-08-26T09:01:23.096Z</time>
      </trkpt>
      <trkpt lat="51.508626" lon="6.963572">
        <ele>35.391089</ele>
        <time>2025-08-26T09:01:24.784Z</time>
      </trkpt>
      <trkpt lat="51.508784" lon="6.963586">
        <ele>35.596955</ele>
        <time>2025-08-26T09:01:29.022Z</time>
      </trkpt>
      <trkpt lat="51.508968" lon="6.963580">
        <ele>35.836383</ele>
        <time>2025-08-26T09:01:33.934Z</time>
      </trkpt>
      <trkpt lat="51.509358" lon="6.963388">
        <ele>36.367047</ele>
        <time>2025-08-26T09:01:44.559Z</time>
      </trkpt>
      <trkpt lat="51.509499" lon="6.963316">
        <ele>36.545663</ele>
        <time>2025-08-26T09:01:48.390Z</time>
      </trkpt>
      <trkpt lat="51.510383" lon="6.962868">
        <ele>36.934830</ele>
        <time>2025-08-26T09:02:08.469Z</time>
      </trkpt>
      <trkpt lat="51.510782" lon="6.962658">
        <ele>37.111107</ele>
        <time>2025-08-26T09:02:15.514Z</time>
      </trkpt>
      <trkpt lat="51.511182" lon="6.962493">
        <ele>37.284491</ele>
        <time>2025-08-26T09:02:22.372Z</time>
      </trkpt>
      <trkpt lat="51.512055" lon="6.962412">
        <ele>36.928606</ele>
        <time>2025-08-26T09:02:37.153Z</time>
      </trkpt>
      <trkpt lat="51.512546" lon="6.962374">
        <ele>36.717495</ele>
        <time>2025-08-26T09:02:45.823Z</time>
      </trkpt>
      <trkpt lat="51.512997" lon="6.962300">
        <ele>36.522801</ele>
        <time>2025-08-26T09:02:53.405Z</time>
      </trkpt>
      <trkpt lat="51.513461" lon="6.961941">
        <ele>35.940501</ele>
        <time>2025-08-26T09:03:01.705Z</time>
      </trkpt>
      <trkpt lat="51.513931" lon="6.961285">
        <ele>35.234519</ele>
        <time>2025-08-26T09:03:11.451Z</time>
      </trkpt>
      <trkpt lat="51.514014" lon="6.961201">
        <ele>35.123282</ele>
        <time>2025-08-26T09:03:12.935Z</time>
      </trkpt>
      <trkpt lat="51.514243" lon="6.960968">
        <ele>34.815909</ele>
        <time>2025-08-26T09:03:16.994Z</time>
      </trkpt>
      <trkpt lat="51.514495" lon="6.960800">
        <ele>34.506517</ele>
        <time>2025-08-26T09:03:21.069Z</time>
      </trkpt>
      <trkpt lat="51.514928" lon="6.960561">
        <ele>34.248147</ele>
        <time>2025-08-26T09:03:28.155Z</time>
      </trkpt>
      <trkpt lat="51.515416" lon="6.960316">
        <ele>33.974024</ele>
        <time>2025-08-26T09:03:36.537Z</time>
      </trkpt>
      <trkpt lat="51.516350" lon="6.959861">
        <ele>33.608326</ele>
        <time>2025-08-26T09:03:53.871Z</time>
      </trkpt>
      <trkpt lat="51.516774" lon="6.959589">
        <ele>33.939758</ele>
        <time>2025-08-26T09:04:02.976Z</time>
      </trkpt>
      <trkpt lat="51.518513" lon="6.958208">
        <ele>35.249393</ele>
        <time>2025-08-26T09:04:44.675Z</time>
      </trkpt>
      <trkpt lat="51.518552" lon="6.958173">
        <ele>35.275728</ele>
        <time>2025-08-26T09:04:45.600Z</time>
      </trkpt>
      <trkpt lat="51.519673" lon="6.957315">
        <ele>35.925254</ele>
        <time>2025-08-26T09:05:09.929Z</time>
      </trkpt>
      <trkpt lat="51.521325" lon="6.956046">
        <ele>36.215397</ele>
        <time>2025-08-26T09:05:43.461Z</time>
      </trkpt>
      <trkpt lat="51.521264" lon="6.955442">
        <ele>36.179428</ele>
        <time>2025-08-26T09:05:50.365Z</time>
      </trkpt>
      <trkpt lat="51.521136" lon="6.953980">
        <ele>36.092642</ele>
        <time>2025-08-26T09:06:06.406Z</time>
      </trkpt>
      <trkpt lat="51.521122" lon="6.953463">
        <ele>36.070535</ele>
        <time>2025-08-26T09:06:11.757Z</time>
      </trkpt>
      <trkpt lat="51.521121" lon="6.952498">
        <ele>36.090259</ele>
        <time>2025-08-26T09:06:22.529Z</time>
      </trkpt>
      <trkpt lat="51.521519" lon="6.952424">
        <ele>36.103419</ele>
        <time>2025-08-26T09:06:29.883Z</time>
      </trkpt>
      <trkpt lat="51.521719" lon="6.952357">
        <ele>36.110130</ele>
        <time>2025-08-26T09:06:33.714Z</time>
      </trkpt>
      <trkpt lat="51.521877" lon="6.952293">
        <ele>36.115483</ele>
        <time>2025-08-26T09:06:36.813Z</time>
      </trkpt>
      <trkpt lat="51.522081" lon="6.952210">
        <ele>36.122395</ele>
        <time>2025-08-26T09:06:40.993Z</time>
      </trkpt>
      <trkpt lat="51.522276" lon="6.952064">
        <ele>36.180837</ele>
        <time>2025-08-26T09:06:45.430Z</time>
      </trkpt>
      <trkpt lat="51.522310" lon="6.952158">
        <ele>36.240467</ele>
        <time>2025-08-26T09:06:46.831Z</time>
      </trkpt>
      <trkpt lat="51.522364" lon="6.952206">
        <ele>36.294859</ele>
        <time>2025-08-26T09:06:48.100Z</time>
      </trkpt>
      <trkpt lat="51.522686" lon="6.952243">
        <ele>36.579402</ele>
        <time>2025-08-26T09:06:55.149Z</time>
      </trkpt>
      <trkpt lat="51.522877" lon="6.952233">
        <ele>36.747843</ele>
        <time>2025-08-26T09:06:59.422Z</time>
      </trkpt>
      <trkpt lat="51.523097" lon="6.952166">
        <ele>36.945207</ele>
        <time>2025-08-26T09:07:04.279Z</time>
      </trkpt>
      <trkpt lat="51.523178" lon="6.952145">
        <ele>37.017525</ele>
        <time>2025-08-26T09:07:05.976Z</time>
      </trkpt>
      <trkpt lat="51.523369" lon="6.952093">
        <ele>37.188276</ele>
        <time>2025-08-26T09:07:10.083Z</time>
      </trkpt>
      <trkpt lat="51.523576" lon="6.952068">
        <ele>37.371245</ele>
        <time>2025-08-26T09:07:14.582Z</time>
      </trkpt>
      <trkpt lat="51.523809" lon="6.952152">
        <ele>37.581720</ele>
        <time>2025-08-26T09:07:19.794Z</time>
      </trkpt>
      <trkpt lat="51.523954" lon="6.952219">
        <ele>37.715332</ele>
        <time>2025-08-26T09:07:23.120Z</time>
      </trkpt>
      <trkpt lat="51.524147" lon="6.952369">
        <ele>37.968051</ele>
        <time>2025-08-26T09:07:27.872Z</time>
      </trkpt>
      <trkpt lat="51.524680" lon="6.952897">
        <ele>38.706124</ele>
        <time>2025-08-26T09:07:41.450Z</time>
      </trkpt>
      <trkpt lat="51.524787" lon="6.953166">
        <ele>38.940294</ele>
        <time>2025-08-26T09:07:45.762Z</time>
      </trkpt>
      <trkpt lat="51.524810" lon="6.953224">
        <ele>38.990739</ele>
        <time>2025-08-26T09:07:46.689Z</time>
      </trkpt>
      <trkpt lat="51.524834" lon="6.953288">
        <ele>39.045546</ele>
        <time>2025-08-26T09:07:47.693Z</time>
      </trkpt>
      <trkpt lat="51.524903" lon="6.953450">
        <ele>39.189538</ele>
        <time>2025-08-26T09:07:50.336Z</time>
      </trkpt>
      <trkpt lat="51.524953" lon="6.953521">
        <ele>39.268188</ele>
        <time>2025-08-26T09:07:51.817Z</time>
      </trkpt>
      <trkpt lat="51.525136" lon="6.953654">
        <ele>39.504943</ele>
        <time>2025-08-26T09:07:56.407Z</time>
      </trkpt>
      <trkpt lat="51.525276" lon="6.953697">
        <ele>39.672966</ele>
        <time>2025-08-26T09:07:59.785Z</time>
      </trkpt>
      <trkpt lat="51.525443" lon="6.953757">
        <ele>39.915585</ele>
        <time>2025-08-26T09:08:03.939Z</time>
      </trkpt>
      <trkpt lat="51.525609" lon="6.953841">
        <ele>40.322649</ele>
        <time>2025-08-26T09:08:08.207Z</time>
      </trkpt>
      <trkpt lat="51.525760" lon="6.953983">
        <ele>40.731851</ele>
        <time>2025-08-26T09:08:12.554Z</time>
      </trkpt>
      <trkpt lat="51.525893" lon="6.954107">
        <ele>41.091487</ele>
        <time>2025-08-26T09:08:16.423Z</time>
      </trkpt>
      <trkpt lat="51.526192" lon="6.954387">
        <ele>41.900895</ele>
        <time>2025-08-26T09:08:25.629Z</time>
      </trkpt>
      <trkpt lat="51.526335" lon="6.954462">
        <ele>42.252730</ele>
        <time>2025-08-26T09:08:29.798Z</time>
      </trkpt>
      <trkpt lat="51.526728" lon="6.954544">
        <ele>43.179675</ele>
        <time>2025-08-26T09:08:40.868Z</time>
      </trkpt>
      <trkpt lat="51.526859" lon="6.954559">
        <ele>43.486862</ele>
        <time>2025-08-26T09:08:44.732Z</time>
      </trkpt>
      <trkpt lat="51.527389" lon="6.954619">
        <ele>45.567813</ele>
        <time>2025-08-26T09:09:01.041Z</time>
      </trkpt>
      <trkpt lat="51.527556" lon="6.954624">
        <ele>46.433489</ele>
        <time>2025-08-26T09:09:06.077Z</time>
      </trkpt>
      <trkpt lat="51.527558" lon="6.954717">
        <ele>46.733538</ele>
        <time>2025-08-26T09:09:07.932Z</time>
      </trkpt>
      <trkpt lat="51.527597" lon="6.954722">
        <ele>46.936309</ele>
        <time>2025-08-26T09:09:09.263Z</time>
      </trkpt>
      <trkpt lat="51.527594" lon="6.954953">
        <ele>47.681309</ele>
        <time>2025-08-26T09:09:14.271Z</time>
      </trkpt>
      <trkpt lat="51.527847" lon="6.955228">
        <ele>49.264224</ele>
        <time>2025-08-26T09:09:25.947Z</time>
      </trkpt>
      <trkpt lat="51.527850" lon="6.955477">
        <ele>50.067248</ele>
        <time>2025-08-26T09:09:32.444Z</time>
      </trkpt>
      <trkpt lat="51.528111" lon="6.955613">
        <ele>51.489258</ele>
        <time>2025-08-26T09:09:44.862Z</time>
      </trkpt>
      <trkpt lat="51.528295" lon="6.955791">
        <ele>52.602281</ele>
        <time>2025-08-26T09:09:55.652Z</time>
      </trkpt>
      <trkpt lat="51.528394" lon="6.955992">
        <ele>53.446412</ele>
        <time>2025-08-26T09:10:04.160Z</time>
      </trkpt>
      <trkpt lat="51.528481" lon="6.956285">
        <ele>54.768003</ele>
        <time>2025-08-26T09:10:15.072Z</time>
      </trkpt>
      <trkpt lat="51.528676" lon="6.957335">
        <ele>59.228575</ele>
        <time>2025-08-26T09:10:50.785Z</time>
      </trkpt>
      <trkpt lat="51.528810" lon="6.957780">
        <ele>61.241050</ele>
        <time>2025-08-26T09:11:06.647Z</time>
      </trkpt>
      <trkpt lat="51.529053" lon="6.958424">
        <ele>64.307033</ele>
        <time>2025-08-26T09:11:25.355Z</time>
      </trkpt>
      <trkpt lat="51.528824" lon="6.958136">
        <ele>65.668195</ele>
        <time>2025-08-26T09:11:37.321Z</time>
      </trkpt>
      <trkpt lat="51.528651" lon="6.957827">
        <ele>66.511037</ele>
        <time>2025-08-26T09:11:46.910Z</time>
      </trkpt>
      <trkpt lat="51.528460" lon="6.957534">
        <ele>67.371490</ele>
        <time>2025-08-26T09:11:57.067Z</time>
      </trkpt>
      <trkpt lat="51.528071" lon="6.956839">
        <ele>69.266973</ele>
        <time>2025-08-26T09:12:21.943Z</time>
      </trkpt>
      <trkpt lat="51.527953" lon="6.956699">
        <ele>69.744951</ele>
        <time>2025-08-26T09:12:27.767Z</time>
      </trkpt>
      <trkpt lat="51.527889" lon="6.956782">
        <ele>70.012951</ele>
        <time>2025-08-26T09:12:30.533Z</time>
      </trkpt>
      <trkpt lat="51.527889" lon="6.956892">
        <ele>70.235981</ele>
        <time>2025-08-26T09:12:32.365Z</time>
      </trkpt>
      <trkpt lat="51.528090" lon="6.957418">
        <ele>71.202094</ele>
        <time>2025-08-26T09:12:45.730Z</time>
      </trkpt>
      <trkpt lat="51.528416" lon="6.958405">
        <ele>72.160512</ele>
        <time>2025-08-26T09:13:12.132Z</time>
      </trkpt>
      <trkpt lat="51.528584" lon="6.959003">
        <ele>72.723261</ele>
        <time>2025-08-26T09:13:22.008Z</time>
      </trkpt>
      <trkpt lat="51.528710" lon="6.959588">
        <ele>73.254208</ele>
        <time>2025-08-26T09:13:28.777Z</time>
      </trkpt>
      <trkpt lat="51.528977" lon="6.961609">
        <ele>72.012481</ele>
        <time>2025-08-26T09:13:48.250Z</time>
      </trkpt>
      <trkpt lat="51.528988" lon="6.961845">
        <ele>71.821770</ele>
        <time>2025-08-26T09:13:50.642Z</time>
      </trkpt>
      <trkpt lat="51.528961" lon="6.961993">
        <ele>71.697483</ele>
        <time>2025-08-26T09:13:52.320Z</time>
      </trkpt>
      <trkpt lat="51.528934" lon="6.962037">
        <ele>71.647680</ele>
        <time>2025-08-26T09:13:53.148Z</time>
      </trkpt>
      <trkpt lat="51.528860" lon="6.962057">
        <ele>71.550482</ele>
        <time>2025-08-26T09:13:54.775Z</time>
      </trkpt>
      <trkpt lat="51.528839" lon="6.962062">
        <ele>71.522983</ele>
        <time>2025-08-26T09:13:55.216Z</time>
      </trkpt>
      <trkpt lat="51.528459" lon="6.961919">
        <ele>71.840460</ele>
        <time>2025-08-26T09:14:06.771Z</time>
      </trkpt>
      <trkpt lat="51.528413" lon="6.961845">
        <ele>72.310600</ele>
        <time>2025-08-26T09:14:08.980Z</time>
      </trkpt>
      <trkpt lat="51.528383" lon="6.961723">
        <ele>72.900175</ele>
        <time>2025-08-26T09:14:12.247Z</time>
      </trkpt>
      <trkpt lat="51.528616" lon="6.961688">
        <ele>74.590702</ele>
        <time>2025-08-26T09:14:21.512Z</time>
      </trkpt>
      <trkpt lat="51.528680" lon="6.961625">
        <ele>75.132846</ele>
        <time>2025-08-26T09:14:25.121Z</time>
      </trkpt>
      <trkpt lat="51.528716" lon="6.961464">
        <ele>75.901732</ele>
        <time>2025-08-26T09:14:30.507Z</time>
      </trkpt>
      <trkpt lat="51.528714" lon="6.961258">
        <ele>76.827653</ele>
        <time>2025-08-26T09:14:37.881Z</time>
      </trkpt>
      <trkpt lat="51.528549" lon="6.960396">
        <ele>80.880899</ele>
        <time>2025-08-26T09:15:12.077Z</time>
      </trkpt>
      <trkpt lat="51.528524" lon="6.960311">
        <ele>81.303448</ele>
        <time>2025-08-26T09:15:15.340Z</time>
      </trkpt>
      <trkpt lat="51.528300" lon="6.959571">
        <ele>84.740290</ele>
        <time>2025-08-26T09:15:40.935Z</time>
      </trkpt>
      <trkpt lat="51.528020" lon="6.958845">
        <ele>87.419191</ele>
        <time>2025-08-26T09:16:01.983Z</time>
      </trkpt>
      <trkpt lat="51.527824" lon="6.958463">
        <ele>88.972100</ele>
        <time>2025-08-26T09:16:13.906Z</time>
      </trkpt>
      <trkpt lat="51.527657" lon="6.958262">
        <ele>90.023816</ele>
        <time>2025-08-26T09:16:21.616Z</time>
      </trkpt>
      <trkpt lat="51.527460" lon="6.958168">
        <ele>91.059740</ele>
        <time>2025-08-26T09:16:28.930Z</time>
      </trkpt>
      <trkpt lat="51.527356" lon="6.958155">
        <ele>91.585594</ele>
        <time>2025-08-26T09:16:32.314Z</time>
      </trkpt>
      <trkpt lat="51.526666" lon="6.958456">
        <ele>94.362178</ele>
        <time>2025-08-26T09:16:52.275Z</time>
      </trkpt>
      <trkpt lat="51.526606" lon="6.958488">
        <ele>94.548107</ele>
        <time>2025-08-26T09:16:54.130Z</time>
      </trkpt>
      <trkpt lat="51.526547" lon="6.958520">
        <ele>94.731248</ele>
        <time>2025-08-26T09:16:56.076Z</time>
      </trkpt>
      <trkpt lat="51.526218" lon="6.958595">
        <ele>95.708567</ele>
        <time>2025-08-26T09:17:06.114Z</time>
      </trkpt>
      <trkpt lat="51.526148" lon="6.958654">
        <ele>95.941037</ele>
        <time>2025-08-26T09:17:08.480Z</time>
      </trkpt>
      <trkpt lat="51.526099" lon="6.958747">
        <ele>96.164038</ele>
        <time>2025-08-26T09:17:10.789Z</time>
      </trkpt>
      <trkpt lat="51.526067" lon="6.959021">
        <ele>96.674175</ele>
        <time>2025-08-26T09:17:16.214Z</time>
      </trkpt>
      <trkpt lat="51.526105" lon="6.959161">
        <ele>96.953673</ele>
        <time>2025-08-26T09:17:19.188Z</time>
      </trkpt>
      <trkpt lat="51.526397" lon="6.959657">
        <ele>98.203196</ele>
        <time>2025-08-26T09:17:31.425Z</time>
      </trkpt>
      <trkpt lat="51.526535" lon="6.959844">
        <ele>98.648005</ele>
        <time>2025-08-26T09:17:35.987Z</time>
      </trkpt>
      <trkpt lat="51.526683" lon="6.959963">
        <ele>98.960860</ele>
        <time>2025-08-26T09:17:40.081Z</time>
      </trkpt>
      <trkpt lat="51.526828" lon="6.960004">
        <ele>99.239197</ele>
        <time>2025-08-26T09:17:44.184Z</time>
      </trkpt>
      <trkpt lat="51.527138" lon="6.960123">
        <ele>99.841745</ele>
        <time>2025-08-26T09:17:54.724Z</time>
      </trkpt>
      <trkpt lat="51.527162" lon="6.960128">
        <ele>99.887497</ele>
        <time>2025-08-26T09:17:55.604Z</time>
      </trkpt>
      <trkpt lat="51.527729" lon="6.960239">
        <ele>100.967351</ele>
        <time>2025-08-26T09:18:12.766Z</time>
      </trkpt>
      <trkpt lat="51.527717" lon="6.959672">
        <ele>101.634625</ele>
        <time>2025-08-26T09:18:21.634Z</time>
      </trkpt>
      <trkpt lat="51.527629" lon="6.959425">
        <ele>101.723565</ele>
        <time>2025-08-26T09:18:24.818Z</time>
      </trkpt>
      <trkpt lat="51.527426" lon="6.959097">
        <ele>100.504426</ele>
        <time>2025-08-26T09:18:29.513Z</time>
      </trkpt>
      <trkpt lat="51.527274" lon="6.958934">
        <ele>99.730497</ele>
        <time>2025-08-26T09:18:32.332Z</time>
      </trkpt>
      <trkpt lat="51.527194" lon="6.958867">
        <ele>99.348418</ele>
        <time>2025-08-26T09:18:33.704Z</time>
      </trkpt>
      <trkpt lat="51.526743" lon="6.958589">
        <ele>97.302546</ele>
        <time>2025-08-26T09:18:41.968Z</time>
      </trkpt>
      <trkpt lat="51.526547" lon="6.958520">
        <ele>96.452705</ele>
        <time>2025-08-26T09:18:45.308Z</time>
      </trkpt>
      <trkpt lat="51.526606" lon="6.958488">
        <ele>96.188966</ele>
        <time>2025-08-26T09:18:46.086Z</time>
      </trkpt>
      <trkpt lat="51.526666" lon="6.958456">
        <ele>95.921210</ele>
        <time>2025-08-26T09:18:46.869Z</time>
      </trkpt>
      <trkpt lat="51.527356" lon="6.958155">
        <ele>92.429945</ele>
        <time>2025-08-26T09:18:55.874Z</time>
      </trkpt>
      <trkpt lat="51.527341" lon="6.958043">
        <ele>92.026933</ele>
        <time>2025-08-26T09:18:56.740Z</time>
      </trkpt>
      <trkpt lat="51.527299" lon="6.958018">
        <ele>91.773694</ele>
        <time>2025-08-26T09:18:57.300Z</time>
      </trkpt>
      <trkpt lat="51.526869" lon="6.958115">
        <ele>89.318542</ele>
        <time>2025-08-26T09:19:02.624Z</time>
      </trkpt>
      <trkpt lat="51.526688" lon="6.958048">
        <ele>88.268335</ele>
        <time>2025-08-26T09:19:04.936Z</time>
      </trkpt>
      <trkpt lat="51.526655" lon="6.957974">
        <ele>87.948053</ele>
        <time>2025-08-26T09:19:05.628Z</time>
      </trkpt>
      <trkpt lat="51.526966" lon="6.957810">
        <ele>86.097365</ele>
        <time>2025-08-26T09:19:09.789Z</time>
      </trkpt>
      <trkpt lat="51.527098" lon="6.957741">
        <ele>85.312528</ele>
        <time>2025-08-26T09:19:11.576Z</time>
      </trkpt>
      <trkpt lat="51.527265" lon="6.957605">
        <ele>84.253989</ele>
        <time>2025-08-26T09:19:13.938Z</time>
      </trkpt>
      <trkpt lat="51.527321" lon="6.957498">
        <ele>83.763874</ele>
        <time>2025-08-26T09:19:15.012Z</time>
      </trkpt>
      <trkpt lat="51.527299" lon="6.957456">
        <ele>83.571724</ele>
        <time>2025-08-26T09:19:15.428Z</time>
      </trkpt>
      <trkpt lat="51.527246" lon="6.957461">
        <ele>83.273068</ele>
        <time>2025-08-26T09:19:16.079Z</time>
      </trkpt>
      <trkpt lat="51.526936" lon="6.957502">
        <ele>81.523318</ele>
        <time>2025-08-26T09:19:19.800Z</time>
      </trkpt>
      <trkpt lat="51.526702" lon="6.957467">
        <ele>80.201301</ele>
        <time>2025-08-26T09:19:22.711Z</time>
      </trkpt>
      <trkpt lat="51.526382" lon="6.957309">
        <ele>78.318174</ele>
        <time>2025-08-26T09:19:27.071Z</time>
      </trkpt>
      <trkpt lat="51.526191" lon="6.957136">
        <ele>77.084878</ele>
        <time>2025-08-26T09:19:29.884Z</time>
      </trkpt>
      <trkpt lat="51.526153" lon="6.957046">
        <ele>76.704207</ele>
        <time>2025-08-26T09:19:30.733Z</time>
      </trkpt>
      <trkpt lat="51.526187" lon="6.957012">
        <ele>76.478949</ele>
        <time>2025-08-26T09:19:31.295Z</time>
      </trkpt>
      <trkpt lat="51.526452" lon="6.957061">
        <ele>74.978402</ele>
        <time>2025-08-26T09:19:34.643Z</time>
      </trkpt>
      <trkpt lat="51.526750" lon="6.957035">
        <ele>73.008714</ele>
        <time>2025-08-26T09:19:38.306Z</time>
      </trkpt>
      <trkpt lat="51.526949" lon="6.956943">
        <ele>71.351293</ele>
        <time>2025-08-26T09:19:40.781Z</time>
      </trkpt>
      <trkpt lat="51.526975" lon="6.956881">
        <ele>70.978955</ele>
        <time>2025-08-26T09:19:41.316Z</time>
      </trkpt>
      <trkpt lat="51.526946" lon="6.956823">
        <ele>70.608410</ele>
        <time>2025-08-26T09:19:41.860Z</time>
      </trkpt>
      <trkpt lat="51.526506" lon="6.956706">
        <ele>67.038675</ele>
        <time>2025-08-26T09:19:47.124Z</time>
      </trkpt>
      <trkpt lat="51.526378" lon="6.956637">
        <ele>65.958047</ele>
        <time>2025-08-26T09:19:48.699Z</time>
      </trkpt>
      <trkpt lat="51.526078" lon="6.956402">
        <ele>63.286784</ele>
        <time>2025-08-26T09:19:52.508Z</time>
      </trkpt>
      <trkpt lat="51.526046" lon="6.956348">
        <ele>62.915407</ele>
        <time>2025-08-26T09:19:53.049Z</time>
      </trkpt>
      <trkpt lat="51.526049" lon="6.956280">
        <ele>62.575923</ele>
        <time>2025-08-26T09:19:53.526Z</time>
      </trkpt>
      <trkpt lat="51.526075" lon="6.956245">
        <ele>62.304465</ele>
        <time>2025-08-26T09:19:53.904Z</time>
      </trkpt>
      <trkpt lat="51.526139" lon="6.956244">
        <ele>61.792169</ele>
        <time>2025-08-26T09:19:54.655Z</time>
      </trkpt>
      <trkpt lat="51.526345" lon="6.956309">
        <ele>60.111824</ele>
        <time>2025-08-26T09:19:57.104Z</time>
      </trkpt>
      <trkpt lat="51.526630" lon="6.956335">
        <ele>58.092484</ele>
        <time>2025-08-26T09:20:00.435Z</time>
      </trkpt>
      <trkpt lat="51.526895" lon="6.956243">
        <ele>56.249170</ele>
        <time>2025-08-26T09:20:03.576Z</time>
      </trkpt>
      <trkpt lat="51.526923" lon="6.956196">
        <ele>55.973908</ele>
        <time>2025-08-26T09:20:04.048Z</time>
      </trkpt>
      <trkpt lat="51.526918" lon="6.956117">
        <ele>55.638010</ele>
        <time>2025-08-26T09:20:04.617Z</time>
      </trkpt>
      <trkpt lat="51.526624" lon="6.956026">
        <ele>53.602344</ele>
        <time>2025-08-26T09:20:08.243Z</time>
      </trkpt>
      <trkpt lat="51.526447" lon="6.955896">
        <ele>52.279212</ele>
        <time>2025-08-26T09:20:10.638Z</time>
      </trkpt>
      <trkpt lat="51.526240" lon="6.955685">
        <ele>50.612638</ele>
        <time>2025-08-26T09:20:13.636Z</time>
      </trkpt>
      <trkpt lat="51.526212" lon="6.955620">
        <ele>50.278207</ele>
        <time>2025-08-26T09:20:14.233Z</time>
      </trkpt>
      <trkpt lat="51.526214" lon="6.955547">
        <ele>49.969109</ele>
        <time>2025-08-26T09:20:14.782Z</time>
      </trkpt>
      <trkpt lat="51.525554" lon="6.955202">
        <ele>46.420546</ele>
        <time>2025-08-26T09:20:24.715Z</time>
      </trkpt>
      <trkpt lat="51.524960" lon="6.955056">
        <ele>44.599625</ele>
        <time>2025-08-26T09:20:33.627Z</time>
      </trkpt>
      <trkpt lat="51.524273" lon="6.954984">
        <ele>42.513391</ele>
        <time>2025-08-26T09:20:45.298Z</time>
      </trkpt>
      <trkpt lat="51.524125" lon="6.955063">
        <ele>42.040821</ele>
        <time>2025-08-26T09:20:48.046Z</time>
      </trkpt>
      <trkpt lat="51.524022" lon="6.955181">
        <ele>41.931284</ele>
        <time>2025-08-26T09:20:50.291Z</time>
      </trkpt>
      <trkpt lat="51.523903" lon="6.955429">
        <ele>41.978488</ele>
        <time>2025-08-26T09:20:53.763Z</time>
      </trkpt>
      <trkpt lat="51.523866" lon="6.955546">
        <ele>41.998270</ele>
        <time>2025-08-26T09:20:55.283Z</time>
      </trkpt>
      <trkpt lat="51.523738" lon="6.955845">
        <ele>42.052973</ele>
        <time>2025-08-26T09:20:59.372Z</time>
      </trkpt>
      <trkpt lat="51.523335" lon="6.957184">
        <ele>42.277165</ele>
        <time>2025-08-26T09:21:19.438Z</time>
      </trkpt>
      <trkpt lat="51.523334" lon="6.957278">
        <ele>42.291335</ele>
        <time>2025-08-26T09:21:20.853Z</time>
      </trkpt>
      <trkpt lat="51.523399" lon="6.957484">
        <ele>42.326149</ele>
        <time>2025-08-26T09:21:24.555Z</time>
      </trkpt>
      <trkpt lat="51.523755" lon="6.958205">
        <ele>42.451863</ele>
        <time>2025-08-26T09:21:40.882Z</time>
      </trkpt>
      <trkpt lat="51.523810" lon="6.958391">
        <ele>42.479482</ele>
        <time>2025-08-26T09:21:44.147Z</time>
      </trkpt>
      <trkpt lat="51.523934" lon="6.958582">
        <ele>42.516503</ele>
        <time>2025-08-26T09:21:47.959Z</time>
      </trkpt>
      <trkpt lat="51.524344" lon="6.959281">
        <ele>42.645339</ele>
        <time>2025-08-26T09:21:58.984Z</time>
      </trkpt>
      <trkpt lat="51.524312" lon="6.959308">
        <ele>42.653129</ele>
        <time>2025-08-26T09:22:01.526Z</time>
      </trkpt>
      <trkpt lat="51.524258" lon="6.959354">
        <ele>42.666303</ele>
        <time>2025-08-26T09:22:09.078Z</time>
      </trkpt>
      <trkpt lat="51.524237" lon="6.959372">
        <ele>42.671433</ele>
        <time>2025-08-26T09:22:09.460Z</time>
      </trkpt>
      <trkpt lat="51.523835" lon="6.959808">
        <ele>42.495583</ele>
        <time>2025-08-26T09:22:16.674Z</time>
      </trkpt>
      <trkpt lat="51.524284" lon="6.960895">
        <ele>41.489244</ele>
        <time>2025-08-26T09:22:27.912Z</time>
      </trkpt>
      <trkpt lat="51.524359" lon="6.961206">
        <ele>41.231985</ele>
        <time>2025-08-26T09:22:31.428Z</time>
      </trkpt>
      <trkpt lat="51.525114" lon="6.963017">
        <ele>41.844339</ele>
        <time>2025-08-26T09:23:03.005Z</time>
      </trkpt>
      <trkpt lat="51.524995" lon="6.963239">
        <ele>42.161652</ele>
        <time>2025-08-26T09:23:08.882Z</time>
      </trkpt>
      <trkpt lat="51.525293" lon="6.964287">
        <ele>43.409403</ele>
        <time>2025-08-26T09:23:28.295Z</time>
      </trkpt>
      <trkpt lat="51.525507" lon="6.964902">
        <ele>44.564552</ele>
        <time>2025-08-26T09:23:40.899Z</time>
      </trkpt>
      <trkpt lat="51.525627" lon="6.965175">
        <ele>45.190695</ele>
        <time>2025-08-26T09:23:46.939Z</time>
      </trkpt>
      <trkpt lat="51.525881" lon="6.965521">
        <ele>46.193147</ele>
        <time>2025-08-26T09:23:57.036Z</time>
      </trkpt>
      <trkpt lat="51.525967" lon="6.965681">
        <ele>46.589218</ele>
        <time>2025-08-26T09:24:01.108Z</time>
      </trkpt>
      <trkpt lat="51.526369" lon="6.966996">
        <ele>49.033209</ele>
        <time>2025-08-26T09:24:30.047Z</time>
      </trkpt>
      <trkpt lat="51.526387" lon="6.967133">
        <ele>49.017108</ele>
        <time>2025-08-26T09:24:32.533Z</time>
      </trkpt>
      <trkpt lat="51.526507" lon="6.967632">
        <ele>48.955591</ele>
        <time>2025-08-26T09:24:42.211Z</time>
      </trkpt>
      <trkpt lat="51.526566" lon="6.968250">
        <ele>48.883695</ele>
        <time>2025-08-26T09:24:51.423Z</time>
      </trkpt>
      <trkpt lat="51.526576" lon="6.968299">
        <ele>48.877765</ele>
        <time>2025-08-26T09:24:52.043Z</time>
      </trkpt>
      <trkpt lat="51.526758" lon="6.969182">
        <ele>48.770802</ele>
        <time>2025-08-26T09:25:02.411Z</time>
      </trkpt>
      <trkpt lat="51.527549" lon="6.971500">
        <ele>42.163855</ele>
        <time>2025-08-26T09:25:26.229Z</time>
      </trkpt>
      <trkpt lat="51.527577" lon="6.971550">
        <ele>41.962149</ele>
        <time>2025-08-26T09:25:26.799Z</time>
      </trkpt>
      <trkpt lat="51.527661" lon="6.971703">
        <ele>41.350318</ele>
        <time>2025-08-26T09:25:28.555Z</time>
      </trkpt>
      <trkpt lat="51.527728" lon="6.971790">
        <ele>40.935214</ele>
        <time>2025-08-26T09:25:29.749Z</time>
      </trkpt>
      <trkpt lat="51.527797" lon="6.971920">
        <ele>40.422852</ele>
        <time>2025-08-26T09:25:31.547Z</time>
      </trkpt>
      <trkpt lat="51.527804" lon="6.972014">
        <ele>40.138997</ele>
        <time>2025-08-26T09:25:32.544Z</time>
      </trkpt>
      <trkpt lat="51.527790" lon="6.972116">
        <ele>39.904562</ele>
        <time>2025-08-26T09:25:33.659Z</time>
      </trkpt>
      <trkpt lat="51.527666" lon="6.972338">
        <ele>39.324632</ele>
        <time>2025-08-26T09:25:36.843Z</time>
      </trkpt>
      <trkpt lat="51.527668" lon="6.972375">
        <ele>39.252440</ele>
        <time>2025-08-26T09:25:37.237Z</time>
      </trkpt>
      <trkpt lat="51.527783" lon="6.972448">
        <ele>38.866125</ele>
        <time>2025-08-26T09:25:39.388Z</time>
      </trkpt>
      <trkpt lat="51.527907" lon="6.972554">
        <ele>38.427313</ele>
        <time>2025-08-26T09:25:41.409Z</time>
      </trkpt>
      <trkpt lat="51.528001" lon="6.972770">
        <ele>37.914923</ele>
        <time>2025-08-26T09:25:43.797Z</time>
      </trkpt>
      <trkpt lat="51.528375" lon="6.973772">
        <ele>35.643584</ele>
        <time>2025-08-26T09:25:55.205Z</time>
      </trkpt>
      <trkpt lat="51.528518" lon="6.974316">
        <ele>34.495643</ele>
        <time>2025-08-26T09:26:01.945Z</time>
      </trkpt>
      <trkpt lat="51.528532" lon="6.974452">
        <ele>34.490444</ele>
        <time>2025-08-26T09:26:03.992Z</time>
      </trkpt>
      <trkpt lat="51.528537" lon="6.974675">
        <ele>34.620087</ele>
        <time>2025-08-26T09:26:06.860Z</time>
      </trkpt>
      <trkpt lat="51.528498" lon="6.974938">
        <ele>34.777166</ele>
        <time>2025-08-26T09:26:10.466Z</time>
      </trkpt>
      <trkpt lat="51.528540" lon="6.975112">
        <ele>34.885599</ele>
        <time>2025-08-26T09:26:13.063Z</time>
      </trkpt>
      <trkpt lat="51.528564" lon="6.975297">
        <ele>34.995393</ele>
        <time>2025-08-26T09:26:15.754Z</time>
      </trkpt>
      <trkpt lat="51.528539" lon="6.975918">
        <ele>35.356937</ele>
        <time>2025-08-26T09:26:25.073Z</time>
      </trkpt>
      <trkpt lat="51.528555" lon="6.976107">
        <ele>35.467755</ele>
        <time>2025-08-26T09:26:28.032Z</time>
      </trkpt>
      <trkpt lat="51.528578" lon="6.976193">
        <ele>35.522140</ele>
        <time>2025-08-26T09:26:29.706Z</time>
      </trkpt>
      <trkpt lat="51.528599" lon="6.976316">
        <ele>35.596243</ele>
        <time>2025-08-26T09:26:32.005Z</time>
      </trkpt>
      <trkpt lat="51.528765" lon="6.977126">
        <ele>36.091713</ele>
        <time>2025-08-26T09:26:46.207Z</time>
      </trkpt>
      <trkpt lat="51.528825" lon="6.977289">
        <ele>36.240407</ele>
        <time>2025-08-26T09:26:49.508Z</time>
      </trkpt>
      <trkpt lat="51.529015" lon="6.977388">
        <ele>36.505250</ele>
        <time>2025-08-26T09:26:55.301Z</time>
      </trkpt>
      <trkpt lat="51.529127" lon="6.977287">
        <ele>36.675535</ele>
        <time>2025-08-26T09:26:58.973Z</time>
      </trkpt>
      <trkpt lat="51.529240" lon="6.977239">
        <ele>36.830515</ele>
        <time>2025-08-26T09:27:02.167Z</time>
      </trkpt>
      <trkpt lat="51.529368" lon="6.977215">
        <ele>37.001391</ele>
        <time>2025-08-26T09:27:05.705Z</time>
      </trkpt>
      <trkpt lat="51.529448" lon="6.977239">
        <ele>37.109302</ele>
        <time>2025-08-26T09:27:07.900Z</time>
      </trkpt>
      <trkpt lat="51.529610" lon="6.977410">
        <ele>37.366286</ele>
        <time>2025-08-26T09:27:12.926Z</time>
      </trkpt>
      <trkpt lat="51.529791" lon="6.977779">
        <ele>37.753913</ele>
        <time>2025-08-26T09:27:20.151Z</time>
      </trkpt>
      <trkpt lat="51.529897" lon="6.977916">
        <ele>37.934266</ele>
        <time>2025-08-26T09:27:23.898Z</time>
      </trkpt>
      <trkpt lat="51.529253" lon="6.979099">
        <ele>38.486430</ele>
        <time>2025-08-26T09:27:43.782Z</time>
      </trkpt>
      <trkpt lat="51.529432" lon="6.979442">
        <ele>38.482308</ele>
        <time>2025-08-26T09:27:48.543Z</time>
      </trkpt>
      <trkpt lat="51.529913" lon="6.980367">
        <ele>38.471210</ele>
        <time>2025-08-26T09:28:01.350Z</time>
      </trkpt>
      <trkpt lat="51.530190" lon="6.980660">
        <ele>38.484530</ele>
        <time>2025-08-26T09:28:07.067Z</time>
      </trkpt>
      <trkpt lat="51.530448" lon="6.981072">
        <ele>38.535899</ele>
        <time>2025-08-26T09:28:13.391Z</time>
      </trkpt>
      <trkpt lat="51.530524" lon="6.981190">
        <ele>38.550824</ele>
        <time>2025-08-26T09:28:15.316Z</time>
      </trkpt>
      <trkpt lat="51.530458" lon="6.981301">
        <ele>38.564317</ele>
        <time>2025-08-26T09:28:17.075Z</time>
      </trkpt>
      <trkpt lat="51.530663" lon="6.981614">
        <ele>38.604254</ele>
        <time>2025-08-26T09:28:22.498Z</time>
      </trkpt>
      <trkpt lat="51.530689" lon="6.981654">
        <ele>38.609338</ele>
        <time>2025-08-26T09:28:23.197Z</time>
      </trkpt>
      <trkpt lat="51.530869" lon="6.981986">
        <ele>38.648036</ele>
        <time>2025-08-26T09:28:28.313Z</time>
      </trkpt>
      <trkpt lat="51.531125" lon="6.981682">
        <ele>38.692993</ele>
        <time>2025-08-26T09:28:36.096Z</time>
      </trkpt>
      <trkpt lat="51.531195" lon="6.981655">
        <ele>38.703162</ele>
        <time>2025-08-26T09:28:37.926Z</time>
      </trkpt>
      <trkpt lat="51.531442" lon="6.981418">
        <ele>38.688785</ele>
        <time>2025-08-26T09:28:44.039Z</time>
      </trkpt>
      <trkpt lat="51.531725" lon="6.981052">
        <ele>38.610029</ele>
        <time>2025-08-26T09:28:51.750Z</time>
      </trkpt>
      <trkpt lat="51.532000" lon="6.981339">
        <ele>38.538937</ele>
        <time>2025-08-26T09:28:58.505Z</time>
      </trkpt>
      <trkpt lat="51.531960" lon="6.981958">
        <ele>38.454994</ele>
        <time>2025-08-26T09:29:05.958Z</time>
      </trkpt>
      <trkpt lat="51.531987" lon="6.982073">
        <ele>38.438415</ele>
        <time>2025-08-26T09:29:07.369Z</time>
      </trkpt>
      <trkpt lat="51.533172" lon="6.985588">
        <ele>36.703315</ele>
        <time>2025-08-26T09:29:52.031Z</time>
      </trkpt>
      <trkpt lat="51.533125" lon="6.986490">
        <ele>36.606939</ele>
        <time>2025-08-26T09:30:02.458Z</time>
      </trkpt>
      <trkpt lat="51.533119" lon="6.986850">
        <ele>36.568595</ele>
        <time>2025-08-26T09:30:06.754Z</time>
      </trkpt>
      <trkpt lat="51.533147" lon="6.986969">
        <ele>36.555049</ele>
        <time>2025-08-26T09:30:08.268Z</time>
      </trkpt>
      <trkpt lat="51.533237" lon="6.987240">
        <ele>36.522340</ele>
        <time>2025-08-26T09:30:11.656Z</time>
      </trkpt>
      <trkpt lat="51.533359" lon="6.987538">
        <ele>36.484356</ele>
        <time>2025-08-26T09:30:16.972Z</time>
      </trkpt>
      <trkpt lat="51.533565" lon="6.987790">
        <ele>36.440048</ele>
        <time>2025-08-26T09:30:23.586Z</time>
      </trkpt>
      <trkpt lat="51.533691" lon="6.987856">
        <ele>36.485878</ele>
        <time>2025-08-26T09:30:27.094Z</time>
      </trkpt>
      <trkpt lat="51.533830" lon="6.987804">
        <ele>36.601035</ele>
        <time>2025-08-26T09:30:30.928Z</time>
      </trkpt>
      <trkpt lat="51.533947" lon="6.987740">
        <ele>36.700758</ele>
        <time>2025-08-26T09:30:34.279Z</time>
      </trkpt>
      <trkpt lat="51.534159" lon="6.988368">
        <ele>37.059399</ele>
        <time>2025-08-26T09:30:43.847Z</time>
      </trkpt>
      <trkpt lat="51.534259" lon="6.988584">
        <ele>37.194549</ele>
        <time>2025-08-26T09:30:47.397Z</time>
      </trkpt>
      <trkpt lat="51.534379" lon="6.988772">
        <ele>37.329753</ele>
        <time>2025-08-26T09:30:50.931Z</time>
      </trkpt>
      <trkpt lat="51.534874" lon="6.989269">
        <ele>37.800671</ele>
        <time>2025-08-26T09:31:03.283Z</time>
      </trkpt>
      <trkpt lat="51.535497" lon="6.989897">
        <ele>38.367413</ele>
        <time>2025-08-26T09:31:18.728Z</time>
      </trkpt>
      <trkpt lat="51.535830" lon="6.990223">
        <ele>38.665704</ele>
        <time>2025-08-26T09:31:27.456Z</time>
      </trkpt>
      <trkpt lat="51.535930" lon="6.990248">
        <ele>38.743132</ele>
        <time>2025-08-26T09:31:29.763Z</time>
      </trkpt>
      <trkpt lat="51.535982" lon="6.990635">
        <ele>38.931552</ele>
        <time>2025-08-26T09:31:35.184Z</time>
      </trkpt>
      <trkpt lat="51.536285" lon="6.991839">
        <ele>38.991299</ele>
        <time>2025-08-26T09:31:50.758Z</time>
      </trkpt>
      <trkpt lat="51.536400" lon="6.992509">
        <ele>38.691437</ele>
        <time>2025-08-26T09:31:58.068Z</time>
      </trkpt>
      <trkpt lat="51.536446" lon="6.992497">
        <ele>38.659114</ele>
        <time>2025-08-26T09:31:58.841Z</time>
      </trkpt>
      <trkpt lat="51.536491" lon="6.992557">
        <ele>38.618564</ele>
        <time>2025-08-26T09:31:59.782Z</time>
      </trkpt>
      <trkpt lat="51.536520" lon="6.992663">
        <ele>38.568605</ele>
        <time>2025-08-26T09:32:00.926Z</time>
      </trkpt>
      <trkpt lat="51.536638" lon="6.993448">
        <ele>38.220184</ele>
        <time>2025-08-26T09:32:08.638Z</time>
      </trkpt>
      <trkpt lat="51.536732" lon="6.994190">
        <ele>37.812983</ele>
        <time>2025-08-26T09:32:21.112Z</time>
      </trkpt>
      <trkpt lat="51.536761" lon="6.995027">
        <ele>37.199793</ele>
        <time>2025-08-26T09:32:35.143Z</time>
      </trkpt>
      <trkpt lat="51.536690" lon="6.995596">
        <ele>36.775295</ele>
        <time>2025-08-26T09:32:45.104Z</time>
      </trkpt>
      <trkpt lat="51.536573" lon="6.996233">
        <ele>36.289457</ele>
        <time>2025-08-26T09:32:56.385Z</time>
      </trkpt>
      <trkpt lat="51.536553" lon="6.996771">
        <ele>35.895223</ele>
        <time>2025-08-26T09:33:05.493Z</time>
      </trkpt>
      <trkpt lat="51.536507" lon="6.996876">
        <ele>35.923973</ele>
        <time>2025-08-26T09:33:07.726Z</time>
      </trkpt>
      <trkpt lat="51.536698" lon="6.997510">
        <ele>36.089810</ele>
        <time>2025-08-26T09:33:15.181Z</time>
      </trkpt>
      <trkpt lat="51.536682" lon="6.997841">
        <ele>36.167967</ele>
        <time>2025-08-26T09:33:18.994Z</time>
      </trkpt>
      <trkpt lat="51.536724" lon="6.997999">
        <ele>36.208417</ele>
        <time>2025-08-26T09:33:21.090Z</time>
      </trkpt>
      <trkpt lat="51.536762" lon="6.998081">
        <ele>36.232489</ele>
        <time>2025-08-26T09:33:22.414Z</time>
      </trkpt>
      <trkpt lat="51.536909" lon="6.998172">
        <ele>36.292106</ele>
        <time>2025-08-26T09:33:25.834Z</time>
      </trkpt>
      <trkpt lat="51.537020" lon="6.998143">
        <ele>36.334668</ele>
        <time>2025-08-26T09:33:28.328Z</time>
      </trkpt>
      <trkpt lat="51.537160" lon="6.998108">
        <ele>36.388290</ele>
        <time>2025-08-26T09:33:31.205Z</time>
      </trkpt>
      <trkpt lat="51.537332" lon="6.998102">
        <ele>36.453403</ele>
        <time>2025-08-26T09:33:35.208Z</time>
      </trkpt>
      <trkpt lat="51.537565" lon="6.998239">
        <ele>36.547299</ele>
        <time>2025-08-26T09:33:41.287Z</time>
      </trkpt>
      <trkpt lat="51.538543" lon="6.997853">
        <ele>37.228314</ele>
        <time>2025-08-26T09:34:08.637Z</time>
      </trkpt>
      <trkpt lat="51.539073" lon="6.997599">
        <ele>37.615138</ele>
        <time>2025-08-26T09:34:20.390Z</time>
      </trkpt>
      <trkpt lat="51.539397" lon="6.997371">
        <ele>37.762393</ele>
        <time>2025-08-26T09:34:26.977Z</time>
      </trkpt>
      <trkpt lat="51.539751" lon="6.996802">
        <ele>36.929443</ele>
        <time>2025-08-26T09:34:35.635Z</time>
      </trkpt>
      <trkpt lat="51.540486" lon="6.995057">
        <ele>34.838285</ele>
        <time>2025-08-26T09:34:56.915Z</time>
      </trkpt>
      <trkpt lat="51.540664" lon="6.994684">
        <ele>34.829740</ele>
        <time>2025-08-26T09:35:02.132Z</time>
      </trkpt>
      <trkpt lat="51.540708" lon="6.994257">
        <ele>34.821873</ele>
        <time>2025-08-26T09:35:07.159Z</time>
      </trkpt>
      <trkpt lat="51.540743" lon="6.993998">
        <ele>34.817056</ele>
        <time>2025-08-26T09:35:10.408Z</time>
      </trkpt>
      <trkpt lat="51.540811" lon="6.993824">
        <ele>34.813320</ele>
        <time>2025-08-26T09:35:13.003Z</time>
      </trkpt>
      <trkpt lat="51.541011" lon="6.993434">
        <ele>34.804133</ele>
        <time>2025-08-26T09:35:19.747Z</time>
      </trkpt>
      <trkpt lat="51.541458" lon="6.992727">
        <ele>34.843822</ele>
        <time>2025-08-26T09:35:35.245Z</time>
      </trkpt>
      <trkpt lat="51.541553" lon="6.992640">
        <ele>34.962360</ele>
        <time>2025-08-26T09:35:37.901Z</time>
      </trkpt>
      <trkpt lat="51.542325" lon="6.991933">
        <ele>35.925638</ele>
        <time>2025-08-26T09:35:58.316Z</time>
      </trkpt>
      <trkpt lat="51.542448" lon="6.991805">
        <ele>36.084493</ele>
        <time>2025-08-26T09:36:03.046Z</time>
      </trkpt>
      <trkpt lat="51.542789" lon="6.990800">
        <ele>36.930954</ele>
        <time>2025-08-26T09:36:27.696Z</time>
      </trkpt>
      <trkpt lat="51.542903" lon="6.990640">
        <ele>37.197704</ele>
        <time>2025-08-26T09:36:33.197Z</time>
      </trkpt>
      <trkpt lat="51.542849" lon="6.990924">
        <ele>37.523291</ele>
        <time>2025-08-26T09:36:38.242Z</time>
      </trkpt>
      <trkpt lat="51.542844" lon="6.991085">
        <ele>37.700022</ele>
        <time>2025-08-26T09:36:41.063Z</time>
      </trkpt>
      <trkpt lat="51.542865" lon="6.991166">
        <ele>37.796232</ele>
        <time>2025-08-26T09:36:42.678Z</time>
      </trkpt>
      <trkpt lat="51.543039" lon="6.991394">
        <ele>38.191915</ele>
        <time>2025-08-26T09:36:49.150Z</time>
      </trkpt>
      <trkpt lat="51.543068" lon="6.991552">
        <ele>38.372522</ele>
        <time>2025-08-26T09:36:52.162Z</time>
      </trkpt>
      <trkpt lat="51.543049" lon="6.992692">
        <ele>39.622794</ele>
        <time>2025-08-26T09:37:12.427Z</time>
      </trkpt>
      <trkpt lat="51.543081" lon="6.992751">
        <ele>39.708620</ele>
        <time>2025-08-26T09:37:13.826Z</time>
      </trkpt>
      <trkpt lat="51.543346" lon="6.993997">
        <ele>39.871469</ele>
        <time>2025-08-26T09:37:32.313Z</time>
      </trkpt>
      <trkpt lat="51.543554" lon="6.994602">
        <ele>39.849132</ele>
        <time>2025-08-26T09:37:40.086Z</time>
      </trkpt>
      <trkpt lat="51.543686" lon="6.994864">
        <ele>39.838237</ele>
        <time>2025-08-26T09:37:43.707Z</time>
      </trkpt>
      <trkpt lat="51.543946" lon="6.995294">
        <ele>39.818858</ele>
        <time>2025-08-26T09:37:50.149Z</time>
      </trkpt>
      <trkpt lat="51.544261" lon="6.995649">
        <ele>40.641780</ele>
        <time>2025-08-26T09:37:57.289Z</time>
      </trkpt>
      <trkpt lat="51.544643" lon="6.995929">
        <ele>41.782373</ele>
        <time>2025-08-26T09:38:07.860Z</time>
      </trkpt>
      <trkpt lat="51.545042" lon="6.996123">
        <ele>42.914883</ele>
        <time>2025-08-26T09:38:21.567Z</time>
      </trkpt>
      <trkpt lat="51.545270" lon="6.996187">
        <ele>43.543699</ele>
        <time>2025-08-26T09:38:30.386Z</time>
      </trkpt>
      <trkpt lat="51.545759" lon="6.996235">
        <ele>44.907954</ele>
        <time>2025-08-26T09:38:50.817Z</time>
      </trkpt>
      <trkpt lat="51.546358" lon="6.996196">
        <ele>46.848914</ele>
        <time>2025-08-26T09:39:16.220Z</time>
      </trkpt>
      <trkpt lat="51.546756" lon="6.996126">
        <ele>48.145195</ele>
        <time>2025-08-26T09:39:30.819Z</time>
      </trkpt>
      <trkpt lat="51.547266" lon="6.995890">
        <ele>49.863422</ele>
        <time>2025-08-26T09:39:45.822Z</time>
      </trkpt>
      <trkpt lat="51.547498" lon="6.995669">
        <ele>50.322706</ele>
        <time>2025-08-26T09:39:51.393Z</time>
      </trkpt>
      <trkpt lat="51.547521" lon="6.995631">
        <ele>50.220751</ele>
        <time>2025-08-26T09:39:52.015Z</time>
      </trkpt>
      <trkpt lat="51.547616" lon="6.995470">
        <ele>49.794024</ele>
        <time>2025-08-26T09:39:54.506Z</time>
      </trkpt>
      <trkpt lat="51.547685" lon="6.995324">
        <ele>49.441445</ele>
        <time>2025-08-26T09:39:56.449Z</time>
      </trkpt>
      <trkpt lat="51.547784" lon="6.994964">
        <ele>48.684620</ele>
        <time>2025-08-26T09:40:00.440Z</time>
      </trkpt>
      <trkpt lat="51.547819" lon="6.994571">
        <ele>47.921297</ele>
        <time>2025-08-26T09:40:04.237Z</time>
      </trkpt>
      <trkpt lat="51.547811" lon="6.994210">
        <ele>47.226769</ele>
        <time>2025-08-26T09:40:07.551Z</time>
      </trkpt>
      <trkpt lat="51.547747" lon="6.993932">
        <ele>46.656812</ele>
        <time>2025-08-26T09:40:10.206Z</time>
      </trkpt>
      <trkpt lat="51.547568" lon="6.993431">
        <ele>45.545879</ele>
        <time>2025-08-26T09:40:15.334Z</time>
      </trkpt>
      <trkpt lat="51.547469" lon="6.993242">
        <ele>45.070755</ele>
        <time>2025-08-26T09:40:17.520Z</time>
      </trkpt>
      <trkpt lat="51.547197" lon="6.992835">
        <ele>44.135564</ele>
        <time>2025-08-26T09:40:22.883Z</time>
      </trkpt>
      <trkpt lat="51.547122" lon="6.992743">
        <ele>43.903699</ele>
        <time>2025-08-26T09:40:24.267Z</time>
      </trkpt>
      <trkpt lat="51.547034" lon="6.992713">
        <ele>43.682586</ele>
        <time>2025-08-26T09:40:25.589Z</time>
      </trkpt>
      <trkpt lat="51.546713" lon="6.992721">
        <ele>42.893470</ele>
        <time>2025-08-26T09:40:30.455Z</time>
      </trkpt>
      <trkpt lat="51.545997" lon="6.992261">
        <ele>40.998267</ele>
        <time>2025-08-26T09:40:43.605Z</time>
      </trkpt>
      <trkpt lat="51.545820" lon="6.992258">
        <ele>40.563175</ele>
        <time>2025-08-26T09:40:47.470Z</time>
      </trkpt>
      <trkpt lat="51.545691" lon="6.992272">
        <ele>40.745379</ele>
        <time>2025-08-26T09:40:50.494Z</time>
      </trkpt>
      <trkpt lat="51.545548" lon="6.992400">
        <ele>41.019687</ele>
        <time>2025-08-26T09:40:54.497Z</time>
      </trkpt>
      <trkpt lat="51.545234" lon="6.992773">
        <ele>41.674004</ele>
        <time>2025-08-26T09:41:04.383Z</time>
      </trkpt>
      <trkpt lat="51.545082" lon="6.992884">
        <ele>41.953806</ele>
        <time>2025-08-26T09:41:08.844Z</time>
      </trkpt>
      <trkpt lat="51.544927" lon="6.992942">
        <ele>42.220537</ele>
        <time>2025-08-26T09:41:13.283Z</time>
      </trkpt>
      <trkpt lat="51.544797" lon="6.992949">
        <ele>42.438547</ele>
        <time>2025-08-26T09:41:17.042Z</time>
      </trkpt>
      <trkpt lat="51.544663" lon="6.992796">
        <ele>42.714001</ele>
        <time>2025-08-26T09:41:21.842Z</time>
      </trkpt>
      <trkpt lat="51.544537" lon="6.992398">
        <ele>43.179515</ele>
        <time>2025-08-26T09:41:30.249Z</time>
      </trkpt>
      <trkpt lat="51.544383" lon="6.991652">
        <ele>43.974409</ele>
        <time>2025-08-26T09:41:45.258Z</time>
      </trkpt>
      <trkpt lat="51.544337" lon="6.991294">
        <ele>44.334378</ele>
        <time>2025-08-26T09:41:51.850Z</time>
      </trkpt>
      <trkpt lat="51.544318" lon="6.990934">
        <ele>44.690145</ele>
        <time>2025-08-26T09:41:58.090Z</time>
      </trkpt>
      <trkpt lat="51.544317" lon="6.990615">
        <ele>45.004270</ele>
        <time>2025-08-26T09:42:03.527Z</time>
      </trkpt>
      <trkpt lat="51.544342" lon="6.990322">
        <ele>45.295491</ele>
        <time>2025-08-26T09:42:08.428Z</time>
      </trkpt>
      <trkpt lat="51.544402" lon="6.990004">
        <ele>45.622720</ele>
        <time>2025-08-26T09:42:13.664Z</time>
      </trkpt>
      <trkpt lat="51.544516" lon="6.989692">
        <ele>45.979048</ele>
        <time>2025-08-26T09:42:19.028Z</time>
      </trkpt>
      <trkpt lat="51.544645" lon="6.989466">
        <ele>46.281114</ele>
        <time>2025-08-26T09:42:23.266Z</time>
      </trkpt>
      <trkpt lat="51.544799" lon="6.989272">
        <ele>46.330115</ele>
        <time>2025-08-26T09:42:27.320Z</time>
      </trkpt>
      <trkpt lat="51.544997" lon="6.989132">
        <ele>46.191650</ele>
        <time>2025-08-26T09:42:31.540Z</time>
      </trkpt>
      <trkpt lat="51.545156" lon="6.989064">
        <ele>46.086326</ele>
        <time>2025-08-26T09:42:34.638Z</time>
      </trkpt>
      <trkpt lat="51.545356" lon="6.989038">
        <ele>45.957877</ele>
        <time>2025-08-26T09:42:38.343Z</time>
      </trkpt>
      <trkpt lat="51.545524" lon="6.989068">
        <ele>45.849669</ele>
        <time>2025-08-26T09:42:41.427Z</time>
      </trkpt>
      <trkpt lat="51.545861" lon="6.989267">
        <ele>45.619849</ele>
        <time>2025-08-26T09:42:47.833Z</time>
      </trkpt>
      <trkpt lat="51.546244" lon="6.989649">
        <ele>45.331335</ele>
        <time>2025-08-26T09:42:55.800Z</time>
      </trkpt>
      <trkpt lat="51.546971" lon="6.990496">
        <ele>44.333276</ele>
        <time>2025-08-26T09:43:11.420Z</time>
      </trkpt>
      <trkpt lat="51.547358" lon="6.990981">
        <ele>43.751714</ele>
        <time>2025-08-26T09:43:19.927Z</time>
      </trkpt>
      <trkpt lat="51.547675" lon="6.991439">
        <ele>43.246595</ele>
        <time>2025-08-26T09:43:27.373Z</time>
      </trkpt>
      <trkpt lat="51.547877" lon="6.991733">
        <ele>43.006379</ele>
        <time>2025-08-26T09:43:32.265Z</time>
      </trkpt>
      <trkpt lat="51.548532" lon="6.992775">
        <ele>42.370094</ele>
        <time>2025-08-26T09:43:49.640Z</time>
      </trkpt>
      <trkpt lat="51.548771" lon="6.993112">
        <ele>42.150578</ele>
        <time>2025-08-26T09:43:55.429Z</time>
      </trkpt>
      <trkpt lat="51.549147" lon="6.993750">
        <ele>41.794992</ele>
        <time>2025-08-26T09:44:04.366Z</time>
      </trkpt>
      <trkpt lat="51.549228" lon="6.993631">
        <ele>41.734786</ele>
        <time>2025-08-26T09:44:06.329Z</time>
      </trkpt>
      <trkpt lat="51.548520" lon="6.992370">
        <ele>41.155031</ele>
        <time>2025-08-26T09:44:25.024Z</time>
      </trkpt>
      <trkpt lat="51.548404" lon="6.992088">
        <ele>41.039650</ele>
        <time>2025-08-26T09:44:29.207Z</time>
      </trkpt>
      <trkpt lat="51.548320" lon="6.991891">
        <ele>40.958138</ele>
        <time>2025-08-26T09:44:32.294Z</time>
      </trkpt>
      <trkpt lat="51.547366" lon="6.990169">
        <ele>41.357644</ele>
        <time>2025-08-26T09:45:05.410Z</time>
      </trkpt>
      <trkpt lat="51.545968" lon="6.988244">
        <ele>40.041948</ele>
        <time>2025-08-26T09:45:40.153Z</time>
      </trkpt>
      <trkpt lat="51.546051" lon="6.988113">
        <ele>39.914506</ele>
        <time>2025-08-26T09:45:43.037Z</time>
      </trkpt>
      <trkpt lat="51.546065" lon="6.988034">
        <ele>39.858527</ele>
        <time>2025-08-26T09:45:44.305Z</time>
      </trkpt>
      <trkpt lat="51.546126" lon="6.988017">
        <ele>39.790687</ele>
        <time>2025-08-26T09:45:45.830Z</time>
      </trkpt>
      <trkpt lat="51.546135" lon="6.987960">
        <ele>39.750611</ele>
        <time>2025-08-26T09:45:46.734Z</time>
      </trkpt>
      <trkpt lat="51.546339" lon="6.987746">
        <ele>39.472167</ele>
        <time>2025-08-26T09:45:52.730Z</time>
      </trkpt>
      <trkpt lat="51.546863" lon="6.987253">
        <ele>38.703227</ele>
        <time>2025-08-26T09:46:02.268Z</time>
      </trkpt>
      <trkpt lat="51.546973" lon="6.987456">
        <ele>38.491150</ele>
        <time>2025-08-26T09:46:04.974Z</time>
      </trkpt>
      <trkpt lat="51.547039" lon="6.987506">
        <ele>38.398743</ele>
        <time>2025-08-26T09:46:06.203Z</time>
      </trkpt>
      <trkpt lat="51.547092" lon="6.987486">
        <ele>38.329791</ele>
        <time>2025-08-26T09:46:07.113Z</time>
      </trkpt>
      <trkpt lat="51.547127" lon="6.987413">
        <ele>38.257188</ele>
        <time>2025-08-26T09:46:08.113Z</time>
      </trkpt>
      <trkpt lat="51.547243" lon="6.987232">
        <ele>38.052467</ele>
        <time>2025-08-26T09:46:10.680Z</time>
      </trkpt>
      <trkpt lat="51.547322" lon="6.987145">
        <ele>37.931192</ele>
        <time>2025-08-26T09:46:12.453Z</time>
      </trkpt>
      <trkpt lat="51.547676" lon="6.986824">
        <ele>37.416451</ele>
        <time>2025-08-26T09:46:20.720Z</time>
      </trkpt>
      <trkpt lat="51.547924" lon="6.986547">
        <ele>37.423956</ele>
        <time>2025-08-26T09:46:28.185Z</time>
      </trkpt>
      <trkpt lat="51.547981" lon="6.986483">
        <ele>37.475698</ele>
        <time>2025-08-26T09:46:30.015Z</time>
      </trkpt>
      <trkpt lat="51.548195" lon="6.986402">
        <ele>37.639329</ele>
        <time>2025-08-26T09:46:35.854Z</time>
      </trkpt>
      <trkpt lat="51.548473" lon="6.986105">
        <ele>37.887742</ele>
        <time>2025-08-26T09:46:44.817Z</time>
      </trkpt>
      <trkpt lat="51.549395" lon="6.984963">
        <ele>38.503160</ele>
        <time>2025-08-26T09:47:10.219Z</time>
      </trkpt>
      <trkpt lat="51.549548" lon="6.983369">
        <ele>37.869139</ele>
        <time>2025-08-26T09:47:26.519Z</time>
      </trkpt>
      <trkpt lat="51.549578" lon="6.983049">
        <ele>37.741926</ele>
        <time>2025-08-26T09:47:29.584Z</time>
      </trkpt>
      <trkpt lat="51.549645" lon="6.982488">
        <ele>37.517368</ele>
        <time>2025-08-26T09:47:35.081Z</time>
      </trkpt>
      <trkpt lat="51.549660" lon="6.982396">
        <ele>37.481233</ele>
        <time>2025-08-26T09:47:36.007Z</time>
      </trkpt>
      <trkpt lat="51.549676" lon="6.982234">
        <ele>37.477512</ele>
        <time>2025-08-26T09:47:37.651Z</time>
      </trkpt>
      <trkpt lat="51.549772" lon="6.981148">
        <ele>37.452630</ele>
        <time>2025-08-26T09:47:49.255Z</time>
      </trkpt>
      <trkpt lat="51.549839" lon="6.980415">
        <ele>37.435824</ele>
        <time>2025-08-26T09:47:57.715Z</time>
      </trkpt>
      <trkpt lat="51.549841" lon="6.980393">
        <ele>37.435319</ele>
        <time>2025-08-26T09:47:57.996Z</time>
      </trkpt>
      <trkpt lat="51.549886" lon="6.979510">
        <ele>37.419695</ele>
        <time>2025-08-26T09:48:09.161Z</time>
      </trkpt>
      <trkpt lat="51.549858" lon="6.978457">
        <ele>37.621111</ele>
        <time>2025-08-26T09:48:22.753Z</time>
      </trkpt>
      <trkpt lat="51.549812" lon="6.978289">
        <ele>37.656192</ele>
        <time>2025-08-26T09:48:25.026Z</time>
      </trkpt>
      <trkpt lat="51.549678" lon="6.978082">
        <ele>37.713295</ele>
        <time>2025-08-26T09:48:28.643Z</time>
      </trkpt>
      <trkpt lat="51.549609" lon="6.977914">
        <ele>37.751771</ele>
        <time>2025-08-26T09:48:31.021Z</time>
      </trkpt>
      <trkpt lat="51.549663" lon="6.977517">
        <ele>37.829434</ele>
        <time>2025-08-26T09:48:35.647Z</time>
      </trkpt>
      <trkpt lat="51.549712" lon="6.975350">
        <ele>38.217535</ele>
        <time>2025-08-26T09:48:58.974Z</time>
      </trkpt>
      <trkpt lat="51.549758" lon="6.975117">
        <ele>38.259792</ele>
        <time>2025-08-26T09:49:01.875Z</time>
      </trkpt>
      <trkpt lat="51.550179" lon="6.973754">
        <ele>38.641585</ele>
        <time>2025-08-26T09:49:21.637Z</time>
      </trkpt>
      <trkpt lat="51.550620" lon="6.973566">
        <ele>39.045122</ele>
        <time>2025-08-26T09:49:32.116Z</time>
      </trkpt>
      <trkpt lat="51.551219" lon="6.973119">
        <ele>39.629200</ele>
        <time>2025-08-26T09:49:45.761Z</time>
      </trkpt>
      <trkpt lat="51.551307" lon="6.972965">
        <ele>39.744232</ele>
        <time>2025-08-26T09:49:48.376Z</time>
      </trkpt>
      <trkpt lat="51.551378" lon="6.972689">
        <ele>39.908508</ele>
        <time>2025-08-26T09:49:52.218Z</time>
      </trkpt>
      <trkpt lat="51.551523" lon="6.971897">
        <ele>40.552112</ele>
        <time>2025-08-26T09:50:03.130Z</time>
      </trkpt>
      <trkpt lat="51.553254" lon="6.971284">
        <ele>43.411625</ele>
        <time>2025-08-26T09:50:45.415Z</time>
      </trkpt>
      <trkpt lat="51.553798" lon="6.971085">
        <ele>44.763082</ele>
        <time>2025-08-26T09:51:01.988Z</time>
      </trkpt>
      <trkpt lat="51.554544" lon="6.970823">
        <ele>46.612794</ele>
        <time>2025-08-26T09:51:24.376Z</time>
      </trkpt>
      <trkpt lat="51.554721" lon="6.970801">
        <ele>47.002713</ele>
        <time>2025-08-26T09:51:29.417Z</time>
      </trkpt>
      <trkpt lat="51.555188" lon="6.970742">
        <ele>47.033759</ele>
        <time>2025-08-26T09:51:41.635Z</time>
      </trkpt>
      <trkpt lat="51.555745" lon="6.970680">
        <ele>47.070763</ele>
        <time>2025-08-26T09:51:52.090Z</time>
      </trkpt>
      <trkpt lat="51.555807" lon="6.971272">
        <ele>47.095501</ele>
        <time>2025-08-26T09:51:57.948Z</time>
      </trkpt>
      <trkpt lat="51.555888" lon="6.971634">
        <ele>47.111355</ele>
        <time>2025-08-26T09:52:01.536Z</time>
      </trkpt>
      <trkpt lat="51.555944" lon="6.971729">
        <ele>47.116749</ele>
        <time>2025-08-26T09:52:02.743Z</time>
      </trkpt>
      <trkpt lat="51.555973" lon="6.971858">
        <ele>47.067620</ele>
        <time>2025-08-26T09:52:03.991Z</time>
      </trkpt>
      <trkpt lat="51.556042" lon="6.972421">
        <ele>46.287199</ele>
        <time>2025-08-26T09:52:09.144Z</time>
      </trkpt>
      <trkpt lat="51.556295" lon="6.973242">
        <ele>45.041012</ele>
        <time>2025-08-26T09:52:17.281Z</time>
      </trkpt>
      <trkpt lat="51.557001" lon="6.975535">
        <ele>42.030001</ele>
        <time>2025-08-26T09:52:40.250Z</time>
      </trkpt>
      <trkpt lat="51.557112" lon="6.975917">
        <ele>41.621983</ele>
        <time>2025-08-26T09:52:44.239Z</time>
      </trkpt>
      <trkpt lat="51.557530" lon="6.977440">
        <ele>40.109135</ele>
        <time>2025-08-26T09:53:00.886Z</time>
      </trkpt>
      <trkpt lat="51.557534" lon="6.977731">
        <ele>39.900939</ele>
        <time>2025-08-26T09:53:03.822Z</time>
      </trkpt>
      <trkpt lat="51.557531" lon="6.978193">
        <ele>39.570463</ele>
        <time>2025-08-26T09:53:08.351Z</time>
      </trkpt>
      <trkpt lat="51.557515" lon="6.978485">
        <ele>39.360793</ele>
        <time>2025-08-26T09:53:11.199Z</time>
      </trkpt>
      <trkpt lat="51.557325" lon="6.979184">
        <ele>38.815118</ele>
        <time>2025-08-26T09:53:18.498Z</time>
      </trkpt>
      <trkpt lat="51.557335" lon="6.979425">
        <ele>38.642353</ele>
        <time>2025-08-26T09:53:20.782Z</time>
      </trkpt>
      <trkpt lat="51.557395" lon="6.979805">
        <ele>38.361918</ele>
        <time>2025-08-26T09:53:24.489Z</time>
      </trkpt>
      <trkpt lat="51.557412" lon="6.979913">
        <ele>38.307473</ele>
        <time>2025-08-26T09:53:25.565Z</time>
      </trkpt>
      <trkpt lat="51.557542" lon="6.980815">
        <ele>38.114767</ele>
        <time>2025-08-26T09:53:34.753Z</time>
      </trkpt>
      <trkpt lat="51.557563" lon="6.980941">
        <ele>38.087618</ele>
        <time>2025-08-26T09:53:37.087Z</time>
      </trkpt>
      <trkpt lat="51.557572" lon="6.980996">
        <ele>38.075781</ele>
        <time>2025-08-26T09:53:37.688Z</time>
      </trkpt>
      <trkpt lat="51.557661" lon="6.981496">
        <ele>37.967539</ele>
        <time>2025-08-26T09:53:43.343Z</time>
      </trkpt>
      <trkpt lat="51.557872" lon="6.982202">
        <ele>37.804510</ele>
        <time>2025-08-26T09:53:52.256Z</time>
      </trkpt>
      <trkpt lat="51.558022" lon="6.982537">
        <ele>37.718590</ele>
        <time>2025-08-26T09:53:57.088Z</time>
      </trkpt>
      <trkpt lat="51.558212" lon="6.982865">
        <ele>37.849740</ele>
        <time>2025-08-26T09:54:02.470Z</time>
      </trkpt>
      <trkpt lat="51.558776" lon="6.982435">
        <ele>38.159287</ele>
        <time>2025-08-26T09:54:15.730Z</time>
      </trkpt>
      <trkpt lat="51.559378" lon="6.982711">
        <ele>38.469738</ele>
        <time>2025-08-26T09:54:28.165Z</time>
      </trkpt>
      <trkpt lat="51.560245" lon="6.983050">
        <ele>39.391615</ele>
        <time>2025-08-26T09:54:49.133Z</time>
      </trkpt>
      <trkpt lat="51.560831" lon="6.983280">
        <ele>40.161751</ele>
        <time>2025-08-26T09:55:04.534Z</time>
      </trkpt>
      <trkpt lat="51.561340" lon="6.983485">
        <ele>40.831686</ele>
        <time>2025-08-26T09:55:17.854Z</time>
      </trkpt>
      <trkpt lat="51.561704" lon="6.983631">
        <ele>41.552757</ele>
        <time>2025-08-26T09:55:27.420Z</time>
      </trkpt>
      <trkpt lat="51.562950" lon="6.984107">
        <ele>44.161799</ele>
        <time>2025-08-26T09:56:03.188Z</time>
      </trkpt>
      <trkpt lat="51.564676" lon="6.984785">
        <ele>48.604886</ele>
        <time>2025-08-26T09:56:58.485Z</time>
      </trkpt>
      <trkpt lat="51.565058" lon="6.984928">
        <ele>49.424295</ele>
        <time>2025-08-26T09:57:09.229Z</time>
      </trkpt>
      <trkpt lat="51.565510" lon="6.985019">
        <ele>50.097864</ele>
        <time>2025-08-26T09:57:20.952Z</time>
      </trkpt>
      <trkpt lat="51.565669" lon="6.984991">
        <ele>50.334376</ele>
        <time>2025-08-26T09:57:24.879Z</time>
      </trkpt>
      <trkpt lat="51.566066" lon="6.984920">
        <ele>50.925022</ele>
        <time>2025-08-26T09:57:34.384Z</time>
      </trkpt>
      <trkpt lat="51.566456" lon="6.984713">
        <ele>51.532277</ele>
        <time>2025-08-26T09:57:44.404Z</time>
      </trkpt>
      <trkpt lat="51.566770" lon="6.984403">
        <ele>52.060367</ele>
        <time>2025-08-26T09:57:53.838Z</time>
      </trkpt>
      <trkpt lat="51.567057" lon="6.984030">
        <ele>52.568877</ele>
        <time>2025-08-26T09:58:03.770Z</time>
      </trkpt>
      <trkpt lat="51.567289" lon="6.983616">
        <ele>53.046413</ele>
        <time>2025-08-26T09:58:13.424Z</time>
      </trkpt>
      <trkpt lat="51.567403" lon="6.983016">
        <ele>53.583916</ele>
        <time>2025-08-26T09:58:23.906Z</time>
      </trkpt>
      <trkpt lat="51.567397" lon="6.982024">
        <ele>54.234283</ele>
        <time>2025-08-26T09:58:39.364Z</time>
      </trkpt>
      <trkpt lat="51.567335" lon="6.980033">
        <ele>53.177438</ele>
        <time>2025-08-26T09:59:02.108Z</time>
      </trkpt>
      <trkpt lat="51.567283" lon="6.978410">
        <ele>52.075882</ele>
        <time>2025-08-26T09:59:18.347Z</time>
      </trkpt>
      <trkpt lat="51.567235" lon="6.977054">
        <ele>50.980723</ele>
        <time>2025-08-26T09:59:32.820Z</time>
      </trkpt>
      <trkpt lat="51.567186" lon="6.976523">
        <ele>50.547868</ele>
        <time>2025-08-26T09:59:39.336Z</time>
      </trkpt>
      <trkpt lat="51.567015" lon="6.976343">
        <ele>50.508374</ele>
        <time>2025-08-26T09:59:43.646Z</time>
      </trkpt>
      <trkpt lat="51.567025" lon="6.975660">
        <ele>50.731565</ele>
        <time>2025-08-26T09:59:53.065Z</time>
      </trkpt>
      <trkpt lat="51.566980" lon="6.975136">
        <ele>50.904377</ele>
        <time>2025-08-26T10:00:00.752Z</time>
      </trkpt>
      <trkpt lat="51.566335" lon="6.971504">
        <ele>51.987409</ele>
        <time>2025-08-26T10:00:52.983Z</time>
      </trkpt>
      <trkpt lat="51.566175" lon="6.970521">
        <ele>51.904342</ele>
        <time>2025-08-26T10:01:05.358Z</time>
      </trkpt>
      <trkpt lat="51.566073" lon="6.970098">
        <ele>51.644440</ele>
        <time>2025-08-26T10:01:13.405Z</time>
      </trkpt>
      <trkpt lat="51.565923" lon="6.969715">
        <ele>51.385128</ele>
        <time>2025-08-26T10:01:21.275Z</time>
      </trkpt>
      <trkpt lat="51.565816" lon="6.969533">
        <ele>51.241629</ele>
        <time>2025-08-26T10:01:25.563Z</time>
      </trkpt>
      <trkpt lat="51.565549" lon="6.969249">
        <ele>50.946659</ele>
        <time>2025-08-26T10:01:34.261Z</time>
      </trkpt>
      <trkpt lat="51.564050" lon="6.968527">
        <ele>49.730041</ele>
        <time>2025-08-26T10:02:15.939Z</time>
      </trkpt>
      <trkpt lat="51.563531" lon="6.968359">
        <ele>49.354205</ele>
        <time>2025-08-26T10:02:31.720Z</time>
      </trkpt>
      <trkpt lat="51.563181" lon="6.968291">
        <ele>49.400115</ele>
        <time>2025-08-26T10:02:43.239Z</time>
      </trkpt>
      <trkpt lat="51.563173" lon="6.967713">
        <ele>49.863107</ele>
        <time>2025-08-26T10:02:51.463Z</time>
      </trkpt>
      <trkpt lat="51.563172" lon="6.967566">
        <ele>49.980835</ele>
        <time>2025-08-26T10:02:53.593Z</time>
      </trkpt>
      <trkpt lat="51.563171" lon="6.967351">
        <ele>50.153017</ele>
        <time>2025-08-26T10:02:56.735Z</time>
      </trkpt>
      <trkpt lat="51.563171" lon="6.967256">
        <ele>50.229096</ele>
        <time>2025-08-26T10:02:58.125Z</time>
      </trkpt>
      <trkpt lat="51.563171" lon="6.966073">
        <ele>51.176472</ele>
        <time>2025-08-26T10:03:16.837Z</time>
      </trkpt>
      <trkpt lat="51.563505" lon="6.966075">
        <ele>51.502484</ele>
        <time>2025-08-26T10:03:24.709Z</time>
      </trkpt>
      <trkpt lat="51.563893" lon="6.966023">
        <ele>51.354693</ele>
        <time>2025-08-26T10:03:33.370Z</time>
      </trkpt>
      <trkpt lat="51.564248" lon="6.965880">
        <ele>51.215779</ele>
        <time>2025-08-26T10:03:39.892Z</time>
      </trkpt>
      <trkpt lat="51.564686" lon="6.965473">
        <ele>51.023774</ele>
        <time>2025-08-26T10:03:48.282Z</time>
      </trkpt>
      <trkpt lat="51.564856" lon="6.965304">
        <ele>50.947917</ele>
        <time>2025-08-26T10:03:51.609Z</time>
      </trkpt>
      <trkpt lat="51.565105" lon="6.965057">
        <ele>50.817611</ele>
        <time>2025-08-26T10:03:56.367Z</time>
      </trkpt>
      <trkpt lat="51.565508" lon="6.964678">
        <ele>50.122736</ele>
        <time>2025-08-26T10:04:03.684Z</time>
      </trkpt>
      <trkpt lat="51.565717" lon="6.964527">
        <ele>49.781693</ele>
        <time>2025-08-26T10:04:07.025Z</time>
      </trkpt>
      <trkpt lat="51.565804" lon="6.964469">
        <ele>49.641509</ele>
        <time>2025-08-26T10:04:08.388Z</time>
      </trkpt>
      <trkpt lat="51.566094" lon="6.964303">
        <ele>49.183316</ele>
        <time>2025-08-26T10:04:12.882Z</time>
      </trkpt>
      <trkpt lat="51.566141" lon="6.964278">
        <ele>49.109629</ele>
        <time>2025-08-26T10:04:13.646Z</time>
      </trkpt>
      <trkpt lat="51.566552" lon="6.964095">
        <ele>48.474833</ele>
        <time>2025-08-26T10:04:20.376Z</time>
      </trkpt>
      <trkpt lat="51.566690" lon="6.964043">
        <ele>48.263853</ele>
        <time>2025-08-26T10:04:22.701Z</time>
      </trkpt>
      <trkpt lat="51.566823" lon="6.964011">
        <ele>48.087635</ele>
        <time>2025-08-26T10:04:24.864Z</time>
      </trkpt>
      <trkpt lat="51.567045" lon="6.963958">
        <ele>47.831717</ele>
        <time>2025-08-26T10:04:28.441Z</time>
      </trkpt>
      <trkpt lat="51.567247" lon="6.963940">
        <ele>47.601024</ele>
        <time>2025-08-26T10:04:31.672Z</time>
      </trkpt>
      <trkpt lat="51.567322" lon="6.963947">
        <ele>47.515358</ele>
        <time>2025-08-26T10:04:32.866Z</time>
      </trkpt>
      <trkpt lat="51.567348" lon="6.964091">
        <ele>47.409072</ele>
        <time>2025-08-26T10:04:34.361Z</time>
      </trkpt>
      <trkpt lat="51.567412" lon="6.964161">
        <ele>47.320824</ele>
        <time>2025-08-26T10:04:35.586Z</time>
      </trkpt>
      <trkpt lat="51.567513" lon="6.964139">
        <ele>47.204603</ele>
        <time>2025-08-26T10:04:37.202Z</time>
      </trkpt>
      <trkpt lat="51.567551" lon="6.964081">
        <ele>47.144874</ele>
        <time>2025-08-26T10:04:38.012Z</time>
      </trkpt>
      <trkpt lat="51.567572" lon="6.963975">
        <ele>47.066017</ele>
        <time>2025-08-26T10:04:39.106Z</time>
      </trkpt>
      <trkpt lat="51.567546" lon="6.963844">
        <ele>46.968546</ele>
        <time>2025-08-26T10:04:40.431Z</time>
      </trkpt>
      <trkpt lat="51.567456" lon="6.963766">
        <ele>46.851975</ele>
        <time>2025-08-26T10:04:42.018Z</time>
      </trkpt>
      <trkpt lat="51.567509" lon="6.963349">
        <ele>46.550291</ele>
        <time>2025-08-26T10:04:46.113Z</time>
      </trkpt>
      <trkpt lat="51.567648" lon="6.962839">
        <ele>46.155582</ele>
        <time>2025-08-26T10:04:51.497Z</time>
      </trkpt>
      <trkpt lat="51.567764" lon="6.962498">
        <ele>45.926840</ele>
        <time>2025-08-26T10:04:55.262Z</time>
      </trkpt>
      <trkpt lat="51.567985" lon="6.962031">
        <ele>45.593628</ele>
        <time>2025-08-26T10:05:00.815Z</time>
      </trkpt>
      <trkpt lat="51.568162" lon="6.961749">
        <ele>45.366111</ele>
        <time>2025-08-26T10:05:04.600Z</time>
      </trkpt>
      <trkpt lat="51.568258" lon="6.961647">
        <ele>45.261036</ele>
        <time>2025-08-26T10:05:06.373Z</time>
      </trkpt>
      <trkpt lat="51.568542" lon="6.961464">
        <ele>44.981620</ele>
        <time>2025-08-26T10:05:11.252Z</time>
      </trkpt>
      <trkpt lat="51.568899" lon="6.961253">
        <ele>44.634255</ele>
        <time>2025-08-26T10:05:17.593Z</time>
      </trkpt>
      <trkpt lat="51.569199" lon="6.961079">
        <ele>44.567862</ele>
        <time>2025-08-26T10:05:23.186Z</time>
      </trkpt>
      <trkpt lat="51.569448" lon="6.960933">
        <ele>44.746559</ele>
        <time>2025-08-26T10:05:28.410Z</time>
      </trkpt>
      <trkpt lat="51.569992" lon="6.960599">
        <ele>45.139166</ele>
        <time>2025-08-26T10:05:40.348Z</time>
      </trkpt>
      <trkpt lat="51.570241" lon="6.960454">
        <ele>45.317720</ele>
        <time>2025-08-26T10:05:46.187Z</time>
      </trkpt>
      <trkpt lat="51.570299" lon="6.960651">
        <ele>45.409076</ele>
        <time>2025-08-26T10:05:49.502Z</time>
      </trkpt>
      <trkpt lat="51.570424" lon="6.960890">
        <ele>45.539983</ele>
        <time>2025-08-26T10:05:54.066Z</time>
      </trkpt>
      <trkpt lat="51.570578" lon="6.961118">
        <ele>45.681096</ele>
        <time>2025-08-26T10:05:59.035Z</time>
      </trkpt>
      <trkpt lat="51.570645" lon="6.961178">
        <ele>45.788968</ele>
        <time>2025-08-26T10:06:00.878Z</time>
      </trkpt>
      <trkpt lat="51.570748" lon="6.961269">
        <ele>45.961572</ele>
        <time>2025-08-26T10:06:03.766Z</time>
      </trkpt>
      <trkpt lat="51.570819" lon="6.961284">
        <ele>46.066758</ele>
        <time>2025-08-26T10:06:05.532Z</time>
      </trkpt>
      <trkpt lat="51.570903" lon="6.961255">
        <ele>46.192952</ele>
        <time>2025-08-26T10:06:07.721Z</time>
      </trkpt>
      <trkpt lat="51.571221" lon="6.961093">
        <ele>46.682911</ele>
        <time>2025-08-26T10:06:16.201Z</time>
      </trkpt>
      <trkpt lat="51.571571" lon="6.961081">
        <ele>47.197134</ele>
        <time>2025-08-26T10:06:25.031Z</time>
      </trkpt>
      <trkpt lat="51.572007" lon="6.961189">
        <ele>47.845110</ele>
        <time>2025-08-26T10:06:36.497Z</time>
      </trkpt>
      <trkpt lat="51.572514" lon="6.961404">
        <ele>48.727209</ele>
        <time>2025-08-26T10:06:50.661Z</time>
      </trkpt>
      <trkpt lat="51.573982" lon="6.963130">
        <ele>52.502780</ele>
        <time>2025-08-26T10:07:41.735Z</time>
      </trkpt>
      <trkpt lat="51.574792" lon="6.964132">
        <ele>54.905404</ele>
        <time>2025-08-26T10:08:11.758Z</time>
      </trkpt>
      <trkpt lat="51.574880" lon="6.964451">
        <ele>55.415477</ele>
        <time>2025-08-26T10:08:18.225Z</time>
      </trkpt>
      <trkpt lat="51.574987" lon="6.964603">
        <ele>55.751123</ele>
        <time>2025-08-26T10:08:22.480Z</time>
      </trkpt>
      <trkpt lat="51.575658" lon="6.965401">
        <ele>57.270993</ele>
        <time>2025-08-26T10:08:46.828Z</time>
      </trkpt>
      <trkpt lat="51.575827" lon="6.965737">
        <ele>57.714970</ele>
        <time>2025-08-26T10:08:54.413Z</time>
      </trkpt>
      <trkpt lat="51.576201" lon="6.967527">
        <ele>59.188996</ele>
        <time>2025-08-26T10:09:22.979Z</time>
      </trkpt>
      <trkpt lat="51.576225" lon="6.967920">
        <ele>59.181201</ele>
        <time>2025-08-26T10:09:28.043Z</time>
      </trkpt>
      <trkpt lat="51.576198" lon="6.968243">
        <ele>59.174768</ele>
        <time>2025-08-26T10:09:32.047Z</time>
      </trkpt>
      <trkpt lat="51.575889" lon="6.970379">
        <ele>58.969843</ele>
        <time>2025-08-26T10:09:57.511Z</time>
      </trkpt>
      <trkpt lat="51.575884" lon="6.970930">
        <ele>58.767226</ele>
        <time>2025-08-26T10:10:03.888Z</time>
      </trkpt>
      <trkpt lat="51.575961" lon="6.971158">
        <ele>58.671815</ele>
        <time>2025-08-26T10:10:06.859Z</time>
      </trkpt>
      <trkpt lat="51.576361" lon="6.971084">
        <ele>58.433603</ele>
        <time>2025-08-26T10:10:14.280Z</time>
      </trkpt>
      <trkpt lat="51.576468" lon="6.971142">
        <ele>58.366803</ele>
        <time>2025-08-26T10:10:16.366Z</time>
      </trkpt>
      <trkpt lat="51.576458" lon="6.971383">
        <ele>58.277995</ele>
        <time>2025-08-26T10:10:18.948Z</time>
      </trkpt>
      <trkpt lat="51.576458" lon="6.971891">
        <ele>58.091212</ele>
        <time>2025-08-26T10:10:24.432Z</time>
      </trkpt>
      <trkpt lat="51.576464" lon="6.972178">
        <ele>57.971226</ele>
        <time>2025-08-26T10:10:27.545Z</time>
      </trkpt>
      <trkpt lat="51.576511" lon="6.972939">
        <ele>57.645486</ele>
        <time>2025-08-26T10:10:35.606Z</time>
      </trkpt>
      <trkpt lat="51.576611" lon="6.973026">
        <ele>57.567572</ele>
        <time>2025-08-26T10:10:37.407Z</time>
      </trkpt>
      <trkpt lat="51.577012" lon="6.973024">
        <ele>57.292732</ele>
        <time>2025-08-26T10:10:44.038Z</time>
      </trkpt>
      <trkpt lat="51.577326" lon="6.973189">
        <ele>57.066337</ele>
        <time>2025-08-26T10:10:49.607Z</time>
      </trkpt>
      <trkpt lat="51.577606" lon="6.973455">
        <ele>56.843961</ele>
        <time>2025-08-26T10:10:55.450Z</time>
      </trkpt>
      <trkpt lat="51.577834" lon="6.973847">
        <ele>57.014266</ele>
        <time>2025-08-26T10:11:01.613Z</time>
      </trkpt>
      <trkpt lat="51.577937" lon="6.974112">
        <ele>57.113410</ele>
        <time>2025-08-26T10:11:05.273Z</time>
      </trkpt>
      <trkpt lat="51.578026" lon="6.974432">
        <ele>57.224615</ele>
        <time>2025-08-26T10:11:09.544Z</time>
      </trkpt>
      <trkpt lat="51.578075" lon="6.974733">
        <ele>57.323312</ele>
        <time>2025-08-26T10:11:13.481Z</time>
      </trkpt>
      <trkpt lat="51.578105" lon="6.974916">
        <ele>57.383345</ele>
        <time>2025-08-26T10:11:15.875Z</time>
      </trkpt>
      <trkpt lat="51.578214" lon="6.975280">
        <ele>57.511509</ele>
        <time>2025-08-26T10:11:21.179Z</time>
      </trkpt>
      <trkpt lat="51.578269" lon="6.975390">
        <ele>57.556292</ele>
        <time>2025-08-26T10:11:23.111Z</time>
      </trkpt>
      <trkpt lat="51.578359" lon="6.975470">
        <ele>57.608772</ele>
        <time>2025-08-26T10:11:25.397Z</time>
      </trkpt>
      <trkpt lat="51.578441" lon="6.975561">
        <ele>57.659614</ele>
        <time>2025-08-26T10:11:27.631Z</time>
      </trkpt>
      <trkpt lat="51.579200" lon="6.975819">
        <ele>58.431549</ele>
        <time>2025-08-26T10:11:44.957Z</time>
      </trkpt>
      <trkpt lat="51.580939" lon="6.976824">
        <ele>60.578877</ele>
        <time>2025-08-26T10:12:26.582Z</time>
      </trkpt>
      <trkpt lat="51.581860" lon="6.977359">
        <ele>61.713807</ele>
        <time>2025-08-26T10:12:48.662Z</time>
      </trkpt>
      <trkpt lat="51.583053" lon="6.978036">
        <ele>63.141802</ele>
        <time>2025-08-26T10:13:17.191Z</time>
      </trkpt>
      <trkpt lat="51.583307" lon="6.978115">
        <ele>63.432412</ele>
        <time>2025-08-26T10:13:22.950Z</time>
      </trkpt>
      <trkpt lat="51.583350" lon="6.978129">
        <ele>63.481695</ele>
        <time>2025-08-26T10:13:23.913Z</time>
      </trkpt>
      <trkpt lat="51.583710" lon="6.978172">
        <ele>63.887213</ele>
        <time>2025-08-26T10:13:31.757Z</time>
      </trkpt>
      <trkpt lat="51.584210" lon="6.978178">
        <ele>64.411188</ele>
        <time>2025-08-26T10:13:42.607Z</time>
      </trkpt>
      <trkpt lat="51.584749" lon="6.978120">
        <ele>64.971198</ele>
        <time>2025-08-26T10:13:54.189Z</time>
      </trkpt>
      <trkpt lat="51.587981" lon="6.977084">
        <ele>68.601782</ele>
        <time>2025-08-26T10:15:07.755Z</time>
      </trkpt>
      <trkpt lat="51.588084" lon="6.977050">
        <ele>68.718732</ele>
        <time>2025-08-26T10:15:10.228Z</time>
      </trkpt>
      <trkpt lat="51.588302" lon="6.976986">
        <ele>68.965210</ele>
        <time>2025-08-26T10:15:15.331Z</time>
      </trkpt>
      <trkpt lat="51.588344" lon="6.976974">
        <ele>69.012656</ele>
        <time>2025-08-26T10:15:16.307Z</time>
      </trkpt>
      <trkpt lat="51.588561" lon="6.976947">
        <ele>69.254742</ele>
        <time>2025-08-26T10:15:21.276Z</time>
      </trkpt>
      <trkpt lat="51.588903" lon="6.976847">
        <ele>69.641369</ele>
        <time>2025-08-26T10:15:29.380Z</time>
      </trkpt>
      <trkpt lat="51.589014" lon="6.976801">
        <ele>69.768859</ele>
        <time>2025-08-26T10:15:32.009Z</time>
      </trkpt>
      <trkpt lat="51.590673" lon="6.975718">
        <ele>70.383045</ele>
        <time>2025-08-26T10:16:08.287Z</time>
      </trkpt>
      <trkpt lat="51.591897" lon="6.974791">
        <ele>69.281946</ele>
        <time>2025-08-26T10:16:31.207Z</time>
      </trkpt>
      <trkpt lat="51.592909" lon="6.974103">
        <ele>68.220118</ele>
        <time>2025-08-26T10:16:48.751Z</time>
      </trkpt>
      <trkpt lat="51.593049" lon="6.974043">
        <ele>68.069550</ele>
        <time>2025-08-26T10:16:51.078Z</time>
      </trkpt>
      <trkpt lat="51.594020" lon="6.973384">
        <ele>66.974382</ele>
        <time>2025-08-26T10:17:08.839Z</time>
      </trkpt>
      <trkpt lat="51.594131" lon="6.973359">
        <ele>66.865946</ele>
        <time>2025-08-26T10:17:10.807Z</time>
      </trkpt>
      <trkpt lat="51.594881" lon="6.972846">
        <ele>66.100578</ele>
        <time>2025-08-26T10:17:24.681Z</time>
      </trkpt>
      <trkpt lat="51.595123" lon="6.972691">
        <ele>65.855957</ele>
        <time>2025-08-26T10:17:28.986Z</time>
      </trkpt>
      <trkpt lat="51.595214" lon="6.972626">
        <ele>65.762452</ele>
        <time>2025-08-26T10:17:30.627Z</time>
      </trkpt>
      <trkpt lat="51.595286" lon="6.972655">
        <ele>65.692743</ele>
        <time>2025-08-26T10:17:31.831Z</time>
      </trkpt>
      <trkpt lat="51.595349" lon="6.972566">
        <ele>65.614019</ele>
        <time>2025-08-26T10:17:33.198Z</time>
      </trkpt>
      <trkpt lat="51.595351" lon="6.972491">
        <ele>65.570219</ele>
        <time>2025-08-26T10:17:33.967Z</time>
      </trkpt>
      <trkpt lat="51.595491" lon="6.972466">
        <ele>65.437922</ele>
        <time>2025-08-26T10:17:36.263Z</time>
      </trkpt>
      <trkpt lat="51.595662" lon="6.972355">
        <ele>65.264750</ele>
        <time>2025-08-26T10:17:39.250Z</time>
      </trkpt>
      <trkpt lat="51.596683" lon="6.971692">
        <ele>64.345383</ele>
        <time>2025-08-26T10:17:57.538Z</time>
      </trkpt>
      <trkpt lat="51.597330" lon="6.971172">
        <ele>63.745621</ele>
        <time>2025-08-26T10:18:10.163Z</time>
      </trkpt>
      <trkpt lat="51.598089" lon="6.970633">
        <ele>63.273941</ele>
        <time>2025-08-26T10:18:24.812Z</time>
      </trkpt>
      <trkpt lat="51.598511" lon="6.970400">
        <ele>63.020278</ele>
        <time>2025-08-26T10:18:32.380Z</time>
      </trkpt>
      <trkpt lat="51.599096" lon="6.970101">
        <ele>62.744789</ele>
        <time>2025-08-26T10:18:42.336Z</time>
      </trkpt>
      <trkpt lat="51.599529" lon="6.969880">
        <ele>62.810985</ele>
        <time>2025-08-26T10:18:50.130Z</time>
      </trkpt>
      <trkpt lat="51.599782" lon="6.969750">
        <ele>62.849686</ele>
        <time>2025-08-26T10:18:54.885Z</time>
      </trkpt>
      <trkpt lat="51.599963" lon="6.969658">
        <ele>62.877347</ele>
        <time>2025-08-26T10:18:58.421Z</time>
      </trkpt>
      <trkpt lat="51.600018" lon="6.969634">
        <ele>62.885651</ele>
        <time>2025-08-26T10:18:59.503Z</time>
      </trkpt>
      <trkpt lat="51.600169" lon="6.969593">
        <ele>62.907967</ele>
        <time>2025-08-26T10:19:02.448Z</time>
      </trkpt>
      <trkpt lat="51.600295" lon="6.969566">
        <ele>62.926490</ele>
        <time>2025-08-26T10:19:04.963Z</time>
      </trkpt>
      <trkpt lat="51.600776" lon="6.969586">
        <ele>63.013841</ele>
        <time>2025-08-26T10:19:14.867Z</time>
      </trkpt>
      <trkpt lat="51.601407" lon="6.969659">
        <ele>63.444006</ele>
        <time>2025-08-26T10:19:28.730Z</time>
      </trkpt>
      <trkpt lat="51.603037" lon="6.969863">
        <ele>64.347830</ele>
        <time>2025-08-26T10:20:01.572Z</time>
      </trkpt>
      <trkpt lat="51.603299" lon="6.969963">
        <ele>64.419237</ele>
        <time>2025-08-26T10:20:06.750Z</time>
      </trkpt>
      <trkpt lat="51.605471" lon="6.970827">
        <ele>64.392203</ele>
        <time>2025-08-26T10:20:47.319Z</time>
      </trkpt>
      <trkpt lat="51.605738" lon="6.970880">
        <ele>64.325516</ele>
        <time>2025-08-26T10:20:51.781Z</time>
      </trkpt>
      <trkpt lat="51.605819" lon="6.971932">
        <ele>63.757051</ele>
        <time>2025-08-26T10:21:02.246Z</time>
      </trkpt>
      <trkpt lat="51.605985" lon="6.973543">
        <ele>62.288958</ele>
        <time>2025-08-26T10:21:17.656Z</time>
      </trkpt>
      <trkpt lat="51.606180" lon="6.974750">
        <ele>60.965315</ele>
        <time>2025-08-26T10:21:29.175Z</time>
      </trkpt>
      <trkpt lat="51.606225" lon="6.974731">
        <ele>60.869259</ele>
        <time>2025-08-26T10:21:30.118Z</time>
      </trkpt>
      <trkpt lat="51.607211" lon="6.979238">
        <ele>55.087634</ele>
        <time>2025-08-26T10:22:13.232Z</time>
      </trkpt>
      <trkpt lat="51.607277" lon="6.979541">
        <ele>54.720579</ele>
        <time>2025-08-26T10:22:16.375Z</time>
      </trkpt>
      <trkpt lat="51.607347" lon="6.979982">
        <ele>54.639624</ele>
        <time>2025-08-26T10:22:21.030Z</time>
      </trkpt>
      <trkpt lat="51.607359" lon="6.980223">
        <ele>54.653883</ele>
        <time>2025-08-26T10:22:23.589Z</time>
      </trkpt>
      <trkpt lat="51.607366" lon="6.980524">
        <ele>54.671648</ele>
        <time>2025-08-26T10:22:26.859Z</time>
      </trkpt>
      <trkpt lat="51.607425" lon="6.981502">
        <ele>54.729599</ele>
        <time>2025-08-26T10:22:38.591Z</time>
      </trkpt>
      <trkpt lat="51.607477" lon="6.981870">
        <ele>54.751858</ele>
        <time>2025-08-26T10:22:43.419Z</time>
      </trkpt>
      <trkpt lat="51.607553" lon="6.982130">
        <ele>54.768805</ele>
        <time>2025-08-26T10:22:47.144Z</time>
      </trkpt>
      <trkpt lat="51.607639" lon="6.982314">
        <ele>54.782387</ele>
        <time>2025-08-26T10:22:50.159Z</time>
      </trkpt>
      <trkpt lat="51.608618" lon="6.983769">
        <ele>55.751669</ele>
        <time>2025-08-26T10:23:18.101Z</time>
      </trkpt>
      <trkpt lat="51.608570" lon="6.983830">
        <ele>55.798248</ele>
        <time>2025-08-26T10:23:19.406Z</time>
      </trkpt>
      <trkpt lat="51.608630" lon="6.983919">
        <ele>55.860388</ele>
        <time>2025-08-26T10:23:21.090Z</time>
      </trkpt>
      <trkpt lat="51.609152" lon="6.984718">
        <ele>56.266409</ele>
        <time>2025-08-26T10:23:35.771Z</time>
      </trkpt>
      <trkpt lat="51.609586" lon="6.985154">
        <ele>56.433855</ele>
        <time>2025-08-26T10:23:45.960Z</time>
      </trkpt>
      <trkpt lat="51.609733" lon="6.985389">
        <ele>56.501661</ele>
        <time>2025-08-26T10:23:49.861Z</time>
      </trkpt>
      <trkpt lat="51.609931" lon="6.985500">
        <ele>56.570289</ele>
        <time>2025-08-26T10:23:53.640Z</time>
      </trkpt>
      <trkpt lat="51.610238" lon="6.986215">
        <ele>56.746994</ele>
        <time>2025-08-26T10:24:03.191Z</time>
      </trkpt>
      <trkpt lat="51.610422" lon="6.986960">
        <ele>56.858636</ele>
        <time>2025-08-26T10:24:12.277Z</time>
      </trkpt>
      <trkpt lat="51.610612" lon="6.989491">
        <ele>57.246035</ele>
        <time>2025-08-26T10:24:42.431Z</time>
      </trkpt>
      <trkpt lat="51.610664" lon="6.990211">
        <ele>57.399997</ele>
        <time>2025-08-26T10:24:51.044Z</time>
      </trkpt>
      <trkpt lat="51.610656" lon="6.990523">
        <ele>57.466324</ele>
        <time>2025-08-26T10:24:54.706Z</time>
      </trkpt>
      <trkpt lat="51.610586" lon="6.990913">
        <ele>57.552552</ele>
        <time>2025-08-26T10:24:59.520Z</time>
      </trkpt>
      <trkpt lat="51.610607" lon="6.990986">
        <ele>57.569641</ele>
        <time>2025-08-26T10:25:00.429Z</time>
      </trkpt>
      <trkpt lat="51.609490" lon="6.994164">
        <ele>58.593610</ele>
        <time>2025-08-26T10:25:44.635Z</time>
      </trkpt>
      <trkpt lat="51.609310" lon="6.994657">
        <ele>59.029834</ele>
        <time>2025-08-26T10:25:51.854Z</time>
      </trkpt>
      <trkpt lat="51.609227" lon="6.994908">
        <ele>59.300263</ele>
        <time>2025-08-26T10:25:55.644Z</time>
      </trkpt>
      <trkpt lat="51.609139" lon="6.995247">
        <ele>59.649681</ele>
        <time>2025-08-26T10:26:00.720Z</time>
      </trkpt>
      <trkpt lat="51.609079" lon="6.995800">
        <ele>60.183548</ele>
        <time>2025-08-26T10:26:08.945Z</time>
      </trkpt>
      <trkpt lat="51.608785" lon="6.999230">
        <ele>63.627722</ele>
        <time>2025-08-26T10:27:05.664Z</time>
      </trkpt>
      <trkpt lat="51.608699" lon="6.999231">
        <ele>63.769011</ele>
        <time>2025-08-26T10:27:07.754Z</time>
      </trkpt>
      <trkpt lat="51.608457" lon="7.001871">
        <ele>64.106948</ele>
        <time>2025-08-26T10:27:58.399Z</time>
      </trkpt>
      <trkpt lat="51.608205" lon="7.005672">
        <ele>61.819307</ele>
        <time>2025-08-26T10:29:02.211Z</time>
      </trkpt>
      <trkpt lat="51.608120" lon="7.006441">
        <ele>61.807965</ele>
        <time>2025-08-26T10:29:16.831Z</time>
      </trkpt>
      <trkpt lat="51.607994" lon="7.007004">
        <ele>61.799275</ele>
        <time>2025-08-26T10:29:28.419Z</time>
      </trkpt>
      <trkpt lat="51.607995" lon="7.007188">
        <ele>61.796603</ele>
        <time>2025-08-26T10:29:32.090Z</time>
      </trkpt>
      <trkpt lat="51.608173" lon="7.007146">
        <ele>61.792397</ele>
        <time>2025-08-26T10:29:35.707Z</time>
      </trkpt>
      <trkpt lat="51.608262" lon="7.007208">
        <ele>61.790130</ele>
        <time>2025-08-26T10:29:37.697Z</time>
      </trkpt>
      <trkpt lat="51.608331" lon="7.007314">
        <ele>61.787900</ele>
        <time>2025-08-26T10:29:39.625Z</time>
      </trkpt>
      <trkpt lat="51.609582" lon="7.009374">
        <ele>61.571371</ele>
        <time>2025-08-26T10:30:10.660Z</time>
      </trkpt>
      <trkpt lat="51.609714" lon="7.009590">
        <ele>61.543692</ele>
        <time>2025-08-26T10:30:13.946Z</time>
      </trkpt>
      <trkpt lat="51.611208" lon="7.012030">
        <ele>60.763646</ele>
        <time>2025-08-26T10:30:51.237Z</time>
      </trkpt>
      <trkpt lat="51.611411" lon="7.012408">
        <ele>60.163701</ele>
        <time>2025-08-26T10:30:55.980Z</time>
      </trkpt>
      <trkpt lat="51.612807" lon="7.014702">
        <ele>56.547256</ele>
        <time>2025-08-26T10:31:24.438Z</time>
      </trkpt>
      <trkpt lat="51.613021" lon="7.014876">
        <ele>56.173850</ele>
        <time>2025-08-26T10:31:27.968Z</time>
      </trkpt>
      <trkpt lat="51.613481" lon="7.014997">
        <ele>55.447856</ele>
        <time>2025-08-26T10:31:35.099Z</time>
      </trkpt>
      <trkpt lat="51.613643" lon="7.015077">
        <ele>55.183926</ele>
        <time>2025-08-26T10:31:37.807Z</time>
      </trkpt>
      <trkpt lat="51.613936" lon="7.015351">
        <ele>54.764926</ele>
        <time>2025-08-26T10:31:43.518Z</time>
      </trkpt>
      <trkpt lat="51.614117" lon="7.016061">
        <ele>55.005390</ele>
        <time>2025-08-26T10:31:52.128Z</time>
      </trkpt>
      <trkpt lat="51.614132" lon="7.016132">
        <ele>55.028887</ele>
        <time>2025-08-26T10:31:53.019Z</time>
      </trkpt>
      <trkpt lat="51.614180" lon="7.016328">
        <ele>55.094899</ele>
        <time>2025-08-26T10:31:55.644Z</time>
      </trkpt>
      <trkpt lat="51.614266" lon="7.016577">
        <ele>55.184168</ele>
        <time>2025-08-26T10:31:59.204Z</time>
      </trkpt>
      <trkpt lat="51.614342" lon="7.016668">
        <ele>55.231951</ele>
        <time>2025-08-26T10:32:01.167Z</time>
      </trkpt>
      <trkpt lat="51.614838" lon="7.016908">
        <ele>55.493264</ele>
        <time>2025-08-26T10:32:12.252Z</time>
      </trkpt>
      <trkpt lat="51.614990" lon="7.017076">
        <ele>55.586280</ele>
        <time>2025-08-26T10:32:16.316Z</time>
      </trkpt>
      <trkpt lat="51.614927" lon="7.017805">
        <ele>56.094168</ele>
        <time>2025-08-26T10:32:26.811Z</time>
      </trkpt>
      <trkpt lat="51.614931" lon="7.018013">
        <ele>56.265063</ele>
        <time>2025-08-26T10:32:29.782Z</time>
      </trkpt>
      <trkpt lat="51.614966" lon="7.018249">
        <ele>56.464321</ele>
        <time>2025-08-26T10:32:33.239Z</time>
      </trkpt>
      <trkpt lat="51.615416" lon="7.020103">
        <ele>58.090574</ele>
        <time>2025-08-26T10:33:03.406Z</time>
      </trkpt>
      <trkpt lat="51.615435" lon="7.020184">
        <ele>58.153601</ele>
        <time>2025-08-26T10:33:04.890Z</time>
      </trkpt>
      <trkpt lat="51.615487" lon="7.020418">
        <ele>58.334511</ele>
        <time>2025-08-26T10:33:08.639Z</time>
      </trkpt>
      <trkpt lat="51.615443" lon="7.020529">
        <ele>58.430369</ele>
        <time>2025-08-26T10:33:10.484Z</time>
      </trkpt>
      <trkpt lat="51.614008" lon="7.021888">
        <ele>60.217219</ele>
        <time>2025-08-26T10:33:47.821Z</time>
      </trkpt>
      <trkpt lat="51.613612" lon="7.022299">
        <ele>60.403955</ele>
        <time>2025-08-26T10:33:56.532Z</time>
      </trkpt>
      <trkpt lat="51.613404" lon="7.022617">
        <ele>60.517635</ele>
        <time>2025-08-26T10:34:01.581Z</time>
      </trkpt>
      <trkpt lat="51.613311" lon="7.023142">
        <ele>60.652009</ele>
        <time>2025-08-26T10:34:07.549Z</time>
      </trkpt>
      <trkpt lat="51.613379" lon="7.023419">
        <ele>60.725321</ele>
        <time>2025-08-26T10:34:10.943Z</time>
      </trkpt>
      <trkpt lat="51.613486" lon="7.023579">
        <ele>60.783197</ele>
        <time>2025-08-26T10:34:13.765Z</time>
      </trkpt>
      <trkpt lat="51.613567" lon="7.023640">
        <ele>60.818640</ele>
        <time>2025-08-26T10:34:15.533Z</time>
      </trkpt>
      <trkpt lat="51.613830" lon="7.023655">
        <ele>60.795505</ele>
        <time>2025-08-26T10:34:20.981Z</time>
      </trkpt>
      <trkpt lat="51.613955" lon="7.023606">
        <ele>60.762020</ele>
        <time>2025-08-26T10:34:25.334Z</time>
      </trkpt>
      <trkpt lat="51.614466" lon="7.023834">
        <ele>60.624004</ele>
        <time>2025-08-26T10:34:43.086Z</time>
      </trkpt>
      <trkpt lat="51.614983" lon="7.023852">
        <ele>60.489405</ele>
        <time>2025-08-26T10:34:58.315Z</time>
      </trkpt>
      <trkpt lat="51.615540" lon="7.024000">
        <ele>60.017577</ele>
        <time>2025-08-26T10:35:13.255Z</time>
      </trkpt>
      <trkpt lat="51.616275" lon="7.024478">
        <ele>57.917521</ele>
        <time>2025-08-26T10:35:32.839Z</time>
      </trkpt>
      <trkpt lat="51.616258" lon="7.024981">
        <ele>57.088833</ele>
        <time>2025-08-26T10:35:40.435Z</time>
      </trkpt>
      <trkpt lat="51.616212" lon="7.025061">
        <ele>56.909467</ele>
        <time>2025-08-26T10:35:42.084Z</time>
      </trkpt>
      <trkpt lat="51.616350" lon="7.025704">
        <ele>55.790293</ele>
        <time>2025-08-26T10:35:47.954Z</time>
      </trkpt>
      <trkpt lat="51.616443" lon="7.025855">
        <ele>55.523833</ele>
        <time>2025-08-26T10:35:49.868Z</time>
      </trkpt>
      <trkpt lat="51.616657" lon="7.026003">
        <ele>55.205718</ele>
        <time>2025-08-26T10:35:53.387Z</time>
      </trkpt>
      <trkpt lat="51.616802" lon="7.026164">
        <ele>54.965153</ele>
        <time>2025-08-26T10:35:56.109Z</time>
      </trkpt>
      <trkpt lat="51.616934" lon="7.026485">
        <ele>54.638619</ele>
        <time>2025-08-26T10:35:59.808Z</time>
      </trkpt>
      <trkpt lat="51.617040" lon="7.026859">
        <ele>54.289943</ele>
        <time>2025-08-26T10:36:03.825Z</time>
      </trkpt>
      <trkpt lat="51.617130" lon="7.027284">
        <ele>53.909110</ele>
        <time>2025-08-26T10:36:08.268Z</time>
      </trkpt>
      <trkpt lat="51.617137" lon="7.027337">
        <ele>53.863154</ele>
        <time>2025-08-26T10:36:08.812Z</time>
      </trkpt>
      <trkpt lat="51.617255" lon="7.028170">
        <ele>53.137739</ele>
        <time>2025-08-26T10:36:17.306Z</time>
      </trkpt>
      <trkpt lat="51.617286" lon="7.028971">
        <ele>52.426025</ele>
        <time>2025-08-26T10:36:25.163Z</time>
      </trkpt>
      <trkpt lat="51.617336" lon="7.029274">
        <ele>52.147995</ele>
        <time>2025-08-26T10:36:28.187Z</time>
      </trkpt>
      <trkpt lat="51.617727" lon="7.029933">
        <ele>51.339672</ele>
        <time>2025-08-26T10:36:36.903Z</time>
      </trkpt>
      <trkpt lat="51.618330" lon="7.030584">
        <ele>50.220319</ele>
        <time>2025-08-26T10:36:47.693Z</time>
      </trkpt>
      <trkpt lat="51.618556" lon="7.031021">
        <ele>49.569447</ele>
        <time>2025-08-26T10:36:52.851Z</time>
      </trkpt>
      <trkpt lat="51.618750" lon="7.031399">
        <ele>49.008203</ele>
        <time>2025-08-26T10:36:57.260Z</time>
      </trkpt>
      <trkpt lat="51.620086" lon="7.033323">
        <ele>46.936065</ele>
        <time>2025-08-26T10:37:24.077Z</time>
      </trkpt>
      <trkpt lat="51.620398" lon="7.033796">
        <ele>46.766882</ele>
        <time>2025-08-26T10:37:32.018Z</time>
      </trkpt>
      <trkpt lat="51.620433" lon="7.033928">
        <ele>46.731695</ele>
        <time>2025-08-26T10:37:33.888Z</time>
      </trkpt>
      <trkpt lat="51.620426" lon="7.034065">
        <ele>46.697996</ele>
        <time>2025-08-26T10:37:35.684Z</time>
      </trkpt>
      <trkpt lat="51.620134" lon="7.034230">
        <ele>46.575809</ele>
        <time>2025-08-26T10:37:42.534Z</time>
      </trkpt>
      <trkpt lat="51.620049" lon="7.034385">
        <ele>46.689241</ele>
        <time>2025-08-26T10:37:45.584Z</time>
      </trkpt>
      <trkpt lat="51.619989" lon="7.034629">
        <ele>46.914960</ele>
        <time>2025-08-26T10:37:49.634Z</time>
      </trkpt>
      <trkpt lat="51.619986" lon="7.034889">
        <ele>47.138618</ele>
        <time>2025-08-26T10:37:53.633Z</time>
      </trkpt>
      <trkpt lat="51.620019" lon="7.035336">
        <ele>47.525781</ele>
        <time>2025-08-26T10:38:00.403Z</time>
      </trkpt>
      <trkpt lat="51.619996" lon="7.035417">
        <ele>47.602387</ele>
        <time>2025-08-26T10:38:01.709Z</time>
      </trkpt>
      <trkpt lat="51.619854" lon="7.035841">
        <ele>48.016730</ele>
        <time>2025-08-26T10:38:08.867Z</time>
      </trkpt>
      <trkpt lat="51.619720" lon="7.036097">
        <ele>48.304717</ele>
        <time>2025-08-26T10:38:14.046Z</time>
      </trkpt>
      <trkpt lat="51.619632" lon="7.036189">
        <ele>48.450049</ele>
        <time>2025-08-26T10:38:16.640Z</time>
      </trkpt>
      <trkpt lat="51.619494" lon="7.036251">
        <ele>48.648514</ele>
        <time>2025-08-26T10:38:20.090Z</time>
      </trkpt>
      <trkpt lat="51.619177" lon="7.036390">
        <ele>49.062343</ele>
        <time>2025-08-26T10:38:27.439Z</time>
      </trkpt>
      <trkpt lat="51.619093" lon="7.036462">
        <ele>49.086422</ele>
        <time>2025-08-26T10:38:29.449Z</time>
      </trkpt>
      <trkpt lat="51.619017" lon="7.036581">
        <ele>49.113244</ele>
        <time>2025-08-26T10:38:31.653Z</time>
      </trkpt>
      <trkpt lat="51.618958" lon="7.036742">
        <ele>49.142617</ele>
        <time>2025-08-26T10:38:34.056Z</time>
      </trkpt>
      <trkpt lat="51.618888" lon="7.037249">
        <ele>49.224221</ele>
        <time>2025-08-26T10:38:40.543Z</time>
      </trkpt>
      <trkpt lat="51.618870" lon="7.037618">
        <ele>49.282375</ele>
        <time>2025-08-26T10:38:44.907Z</time>
      </trkpt>
      <trkpt lat="51.618904" lon="7.038160">
        <ele>49.367966</ele>
        <time>2025-08-26T10:38:50.986Z</time>
      </trkpt>
      <trkpt lat="51.618951" lon="7.038270">
        <ele>49.388945</ele>
        <time>2025-08-26T10:38:52.434Z</time>
      </trkpt>
      <trkpt lat="51.619041" lon="7.038566">
        <ele>49.440729</ele>
        <time>2025-08-26T10:38:55.950Z</time>
      </trkpt>
      <trkpt lat="51.619065" lon="7.038650">
        <ele>49.455257</ele>
        <time>2025-08-26T10:38:56.913Z</time>
      </trkpt>
      <trkpt lat="51.618559" lon="7.039235">
        <ele>49.328538</ele>
        <time>2025-08-26T10:39:08.398Z</time>
      </trkpt>
      <trkpt lat="51.618521" lon="7.039336">
        <ele>49.296659</ele>
        <time>2025-08-26T10:39:09.777Z</time>
      </trkpt>
      <trkpt lat="51.618502" lon="7.039530">
        <ele>49.243645</ele>
        <time>2025-08-26T10:39:12.059Z</time>
      </trkpt>
      <trkpt lat="51.618628" lon="7.039891">
        <ele>49.131857</ele>
        <time>2025-08-26T10:39:16.874Z</time>
      </trkpt>
      <trkpt lat="51.619977" lon="7.043743">
        <ele>48.181039</ele>
        <time>2025-08-26T10:40:08.880Z</time>
      </trkpt>
      <trkpt lat="51.620462" lon="7.045211">
        <ele>48.448565</ele>
        <time>2025-08-26T10:40:30.666Z</time>
      </trkpt>
      <trkpt lat="51.620671" lon="7.045801">
        <ele>48.557846</ele>
        <time>2025-08-26T10:40:39.858Z</time>
      </trkpt>
      <trkpt lat="51.620828" lon="7.045873">
        <ele>48.600144</ele>
        <time>2025-08-26T10:40:43.932Z</time>
      </trkpt>
      <trkpt lat="51.621465" lon="7.045829">
        <ele>48.807815</ele>
        <time>2025-08-26T10:40:59.382Z</time>
      </trkpt>
      <trkpt lat="51.621628" lon="7.045908">
        <ele>48.867276</ele>
        <time>2025-08-26T10:41:03.330Z</time>
      </trkpt>
      <trkpt lat="51.622369" lon="7.046128">
        <ele>49.130482</ele>
        <time>2025-08-26T10:41:21.685Z</time>
      </trkpt>
      <trkpt lat="51.622544" lon="7.046304">
        <ele>49.202551</ele>
        <time>2025-08-26T10:41:26.928Z</time>
      </trkpt>
      <trkpt lat="51.622630" lon="7.046482">
        <ele>49.251466</ele>
        <time>2025-08-26T10:41:30.545Z</time>
      </trkpt>
      <trkpt lat="51.622768" lon="7.046892">
        <ele>49.472037</ele>
        <time>2025-08-26T10:41:38.313Z</time>
      </trkpt>
      <trkpt lat="51.622966" lon="7.047647">
        <ele>49.912072</ele>
        <time>2025-08-26T10:41:52.250Z</time>
      </trkpt>
      <trkpt lat="51.623009" lon="7.047812">
        <ele>50.008147</ele>
        <time>2025-08-26T10:41:55.311Z</time>
      </trkpt>
      <trkpt lat="51.623303" lon="7.047560">
        <ele>50.296152</ele>
        <time>2025-08-26T10:42:02.982Z</time>
      </trkpt>
      <trkpt lat="51.623539" lon="7.047495">
        <ele>50.503205</ele>
        <time>2025-08-26T10:42:08.277Z</time>
      </trkpt>
      <trkpt lat="51.624007" lon="7.047365">
        <ele>50.944126</ele>
        <time>2025-08-26T10:42:18.308Z</time>
      </trkpt>
      <trkpt lat="51.624215" lon="7.047307">
        <ele>51.190263</ele>
        <time>2025-08-26T10:42:22.760Z</time>
      </trkpt>
      <trkpt lat="51.624655" lon="7.047186">
        <ele>51.710729</ele>
        <time>2025-08-26T10:42:32.577Z</time>
      </trkpt>
      <trkpt lat="51.624685" lon="7.047842">
        <ele>52.186874</ele>
        <time>2025-08-26T10:42:41.866Z</time>
      </trkpt>
      <trkpt lat="51.624606" lon="7.049024">
        <ele>53.115579</ele>
        <time>2025-08-26T10:42:59.431Z</time>
      </trkpt>
      <trkpt lat="51.624562" lon="7.049406">
        <ele>53.552535</ele>
        <time>2025-08-26T10:43:05.510Z</time>
      </trkpt>
      <trkpt lat="51.624891" lon="7.049565">
        <ele>54.174804</ele>
        <time>2025-08-26T10:43:14.242Z</time>
      </trkpt>
      <trkpt lat="51.625307" lon="7.049620">
        <ele>54.930970</ele>
        <time>2025-08-26T10:43:24.687Z</time>
      </trkpt>
      <trkpt lat="51.625342" lon="7.049621">
        <ele>54.994386</ele>
        <time>2025-08-26T10:43:25.551Z</time>
      </trkpt>
      <trkpt lat="51.625431" lon="7.050140">
        <ele>55.599939</ele>
        <time>2025-08-26T10:43:33.904Z</time>
      </trkpt>
      <trkpt lat="51.625575" lon="7.050841">
        <ele>56.427494</ele>
        <time>2025-08-26T10:43:45.592Z</time>
      </trkpt>
      <trkpt lat="51.625616" lon="7.051016">
        <ele>56.635423</ele>
        <time>2025-08-26T10:43:48.624Z</time>
      </trkpt>
      <trkpt lat="51.625664" lon="7.051265">
        <ele>56.925259</ele>
        <time>2025-08-26T10:43:52.899Z</time>
      </trkpt>
      <trkpt lat="51.625821" lon="7.052489">
        <ele>58.314638</ele>
        <time>2025-08-26T10:44:13.045Z</time>
      </trkpt>
      <trkpt lat="51.625943" lon="7.053858">
        <ele>59.493097</ele>
        <time>2025-08-26T10:44:33.638Z</time>
      </trkpt>
      <trkpt lat="51.625946" lon="7.053900">
        <ele>59.502479</ele>
        <time>2025-08-26T10:44:34.202Z</time>
      </trkpt>
      <trkpt lat="51.625985" lon="7.054493">
        <ele>59.634813</ele>
        <time>2025-08-26T10:44:41.696Z</time>
      </trkpt>
      <trkpt lat="51.626002" lon="7.054691">
        <ele>59.679171</ele>
        <time>2025-08-26T10:44:44.055Z</time>
      </trkpt>
      <trkpt lat="51.625949" lon="7.054699">
        <ele>59.698201</ele>
        <time>2025-08-26T10:44:45.042Z</time>
      </trkpt>
      <trkpt lat="51.625935" lon="7.054763">
        <ele>59.713259</ele>
        <time>2025-08-26T10:44:45.839Z</time>
      </trkpt>
      <trkpt lat="51.626317" lon="7.059617">
        <ele>60.526094</ele>
        <time>2025-08-26T10:45:38.569Z</time>
      </trkpt>
      <trkpt lat="51.626427" lon="7.060988">
        <ele>62.015333</ele>
        <time>2025-08-26T10:46:01.929Z</time>
      </trkpt>
      <trkpt lat="51.626504" lon="7.060973">
        <ele>62.149929</ele>
        <time>2025-08-26T10:46:04.209Z</time>
      </trkpt>
      <trkpt lat="51.626518" lon="7.061241">
        <ele>62.439660</ele>
        <time>2025-08-26T10:46:09.058Z</time>
      </trkpt>
      <trkpt lat="51.626489" lon="7.061572">
        <ele>62.799774</ele>
        <time>2025-08-26T10:46:14.966Z</time>
      </trkpt>
      <trkpt lat="51.626564" lon="7.061737">
        <ele>63.020080</ele>
        <time>2025-08-26T10:46:18.555Z</time>
      </trkpt>
      <trkpt lat="51.626641" lon="7.062703">
        <ele>63.543129</ele>
        <time>2025-08-26T10:46:33.814Z</time>
      </trkpt>
      <trkpt lat="51.626703" lon="7.063401">
        <ele>63.883699</ele>
        <time>2025-08-26T10:46:42.818Z</time>
      </trkpt>
      <trkpt lat="51.626803" lon="7.064101">
        <ele>64.230638</ele>
        <time>2025-08-26T10:46:51.025Z</time>
      </trkpt>
      <trkpt lat="51.627164" lon="7.065431">
        <ele>64.682718</ele>
        <time>2025-08-26T10:47:07.718Z</time>
      </trkpt>
      <trkpt lat="51.627749" lon="7.067453">
        <ele>65.175127</ele>
        <time>2025-08-26T10:47:36.106Z</time>
      </trkpt>
      <trkpt lat="51.627850" lon="7.067938">
        <ele>65.427503</ele>
        <time>2025-08-26T10:47:42.747Z</time>
      </trkpt>
      <trkpt lat="51.627921" lon="7.068486">
        <ele>65.703681</ele>
        <time>2025-08-26T10:47:50.077Z</time>
      </trkpt>
      <trkpt lat="51.627950" lon="7.069179">
        <ele>66.046344</ele>
        <time>2025-08-26T10:47:59.441Z</time>
      </trkpt>
      <trkpt lat="51.627929" lon="7.069669">
        <ele>66.288657</ele>
        <time>2025-08-26T10:48:06.234Z</time>
      </trkpt>
      <trkpt lat="51.627889" lon="7.070048">
        <ele>66.478317</ele>
        <time>2025-08-26T10:48:11.682Z</time>
      </trkpt>
      <trkpt lat="51.627504" lon="7.072635">
        <ele>68.164096</ele>
        <time>2025-08-26T10:48:49.999Z</time>
      </trkpt>
      <trkpt lat="51.627410" lon="7.073274">
        <ele>68.461333</ele>
        <time>2025-08-26T10:48:58.448Z</time>
      </trkpt>
      <trkpt lat="51.627192" lon="7.074724">
        <ele>68.910047</ele>
        <time>2025-08-26T10:49:16.300Z</time>
      </trkpt>
      <trkpt lat="51.627053" lon="7.075820">
        <ele>69.264362</ele>
        <time>2025-08-26T10:49:30.941Z</time>
      </trkpt>
      <trkpt lat="51.627035" lon="7.076124">
        <ele>69.430804</ele>
        <time>2025-08-26T10:49:35.068Z</time>
      </trkpt>
      <trkpt lat="51.627027" lon="7.076666">
        <ele>69.726296</ele>
        <time>2025-08-26T10:49:42.233Z</time>
      </trkpt>
      <trkpt lat="51.627054" lon="7.077196">
        <ele>70.016135</ele>
        <time>2025-08-26T10:49:49.374Z</time>
      </trkpt>
      <trkpt lat="51.627294" lon="7.080771">
        <ele>71.975501</ele>
        <time>2025-08-26T10:50:37.278Z</time>
      </trkpt>
      <trkpt lat="51.627480" lon="7.083270">
        <ele>73.146849</ele>
        <time>2025-08-26T10:51:10.252Z</time>
      </trkpt>
      <trkpt lat="51.627611" lon="7.083952">
        <ele>73.455189</ele>
        <time>2025-08-26T10:51:19.346Z</time>
      </trkpt>
      <trkpt lat="51.628046" lon="7.085948">
        <ele>74.013880</ele>
        <time>2025-08-26T10:51:44.176Z</time>
      </trkpt>
      <trkpt lat="51.628091" lon="7.086141">
        <ele>74.059932</ele>
        <time>2025-08-26T10:51:46.512Z</time>
      </trkpt>
      <trkpt lat="51.628217" lon="7.086605">
        <ele>74.173062</ele>
        <time>2025-08-26T10:51:52.636Z</time>
      </trkpt>
      <trkpt lat="51.628536" lon="7.087493">
        <ele>74.508164</ele>
        <time>2025-08-26T10:52:05.735Z</time>
      </trkpt>
      <trkpt lat="51.628634" lon="7.087955">
        <ele>74.712388</ele>
        <time>2025-08-26T10:52:12.314Z</time>
      </trkpt>
      <trkpt lat="51.628955" lon="7.089463">
        <ele>75.379234</ele>
        <time>2025-08-26T10:52:33.846Z</time>
      </trkpt>
      <trkpt lat="51.629176" lon="7.090851">
        <ele>76.100552</ele>
        <time>2025-08-26T10:52:52.686Z</time>
      </trkpt>
      <trkpt lat="51.629201" lon="7.091136">
        <ele>76.251171</ele>
        <time>2025-08-26T10:52:56.472Z</time>
      </trkpt>
      <trkpt lat="51.629195" lon="7.091936">
        <ele>76.669835</ele>
        <time>2025-08-26T10:53:07.236Z</time>
      </trkpt>
      <trkpt lat="51.628666" lon="7.092125">
        <ele>77.190317</ele>
        <time>2025-08-26T10:53:19.280Z</time>
      </trkpt>
      <trkpt lat="51.627226" lon="7.092473">
        <ele>79.083318</ele>
        <time>2025-08-26T10:53:53.050Z</time>
      </trkpt>
      <trkpt lat="51.626431" lon="7.092989">
        <ele>80.168019</ele>
        <time>2025-08-26T10:54:12.828Z</time>
      </trkpt>
      <trkpt lat="51.625453" lon="7.093691">
        <ele>81.511558</ele>
        <time>2025-08-26T10:54:37.079Z</time>
      </trkpt>
      <trkpt lat="51.624794" lon="7.094110">
        <ele>82.354621</ele>
        <time>2025-08-26T10:54:53.079Z</time>
      </trkpt>
      <trkpt lat="51.624112" lon="7.094456">
        <ele>83.200069</ele>
        <time>2025-08-26T10:55:09.614Z</time>
      </trkpt>
      <trkpt lat="51.623719" lon="7.094733">
        <ele>83.707291</ele>
        <time>2025-08-26T10:55:19.347Z</time>
      </trkpt>
      <trkpt lat="51.623575" lon="7.094744">
        <ele>83.709071</ele>
        <time>2025-08-26T10:55:22.486Z</time>
      </trkpt>
      <trkpt lat="51.623571" lon="7.094872">
        <ele>83.694927</ele>
        <time>2025-08-26T10:55:24.174Z</time>
      </trkpt>
      <trkpt lat="51.623520" lon="7.094891">
        <ele>83.685623</ele>
        <time>2025-08-26T10:55:25.921Z</time>
      </trkpt>
      <trkpt lat="51.623452" lon="7.094936">
        <ele>83.672555</ele>
        <time>2025-08-26T10:55:28.302Z</time>
      </trkpt>
      <trkpt lat="51.623060" lon="7.095239">
        <ele>83.595267</ele>
        <time>2025-08-26T10:55:41.908Z</time>
      </trkpt>
      <trkpt lat="51.622506" lon="7.095683">
        <ele>83.485273</ele>
        <time>2025-08-26T10:55:59.626Z</time>
      </trkpt>
      <trkpt lat="51.621875" lon="7.096173">
        <ele>82.922372</ele>
        <time>2025-08-26T10:56:18.566Z</time>
      </trkpt>
      <trkpt lat="51.621524" lon="7.096370">
        <ele>82.284339</ele>
        <time>2025-08-26T10:56:28.411Z</time>
      </trkpt>
      <trkpt lat="51.620210" lon="7.096872">
        <ele>79.840259</ele>
        <time>2025-08-26T10:57:03.813Z</time>
      </trkpt>
      <trkpt lat="51.619816" lon="7.096842">
        <ele>78.924755</ele>
        <time>2025-08-26T10:57:13.966Z</time>
      </trkpt>
      <trkpt lat="51.619498" lon="7.096748">
        <ele>78.174343</ele>
        <time>2025-08-26T10:57:22.196Z</time>
      </trkpt>
      <trkpt lat="51.619038" lon="7.096699">
        <ele>77.104340</ele>
        <time>2025-08-26T10:57:33.843Z</time>
      </trkpt>
      <trkpt lat="51.618025" lon="7.096754">
        <ele>75.083687</ele>
        <time>2025-08-26T10:57:59.696Z</time>
      </trkpt>
      <trkpt lat="51.617783" lon="7.096777">
        <ele>74.654647</ele>
        <time>2025-08-26T10:58:06.002Z</time>
      </trkpt>
      <trkpt lat="51.616841" lon="7.096983">
        <ele>72.972182</ele>
        <time>2025-08-26T10:58:31.607Z</time>
      </trkpt>
      <trkpt lat="51.616458" lon="7.096913">
        <ele>72.516719</ele>
        <time>2025-08-26T10:58:42.204Z</time>
      </trkpt>
      <trkpt lat="51.616229" lon="7.096724">
        <ele>72.214049</ele>
        <time>2025-08-26T10:58:49.304Z</time>
      </trkpt>
      <trkpt lat="51.616160" lon="7.096727">
        <ele>72.132858</ele>
        <time>2025-08-26T10:58:51.218Z</time>
      </trkpt>
      <trkpt lat="51.616101" lon="7.096808">
        <ele>72.041666</ele>
        <time>2025-08-26T10:58:53.380Z</time>
      </trkpt>
      <trkpt lat="51.615985" lon="7.097049">
        <ele>71.818957</ele>
        <time>2025-08-26T10:58:58.685Z</time>
      </trkpt>
      <trkpt lat="51.615780" lon="7.097307">
        <ele>71.512931</ele>
        <time>2025-08-26T10:59:05.956Z</time>
      </trkpt>
      <trkpt lat="51.615735" lon="7.097444">
        <ele>71.399733</ele>
        <time>2025-08-26T10:59:08.650Z</time>
      </trkpt>
      <trkpt lat="51.615725" lon="7.097787">
        <ele>71.148941</ele>
        <time>2025-08-26T10:59:12.055Z</time>
      </trkpt>
      <trkpt lat="51.615738" lon="7.097922">
        <ele>71.049162</ele>
        <time>2025-08-26T10:59:13.871Z</time>
      </trkpt>
      <trkpt lat="51.615487" lon="7.097977">
        <ele>70.691815</ele>
        <time>2025-08-26T10:59:20.696Z</time>
      </trkpt>
      <trkpt lat="51.614831" lon="7.097812">
        <ele>69.443113</ele>
        <time>2025-08-26T10:59:37.663Z</time>
      </trkpt>
      <trkpt lat="51.614645" lon="7.097898">
        <ele>69.079169</ele>
        <time>2025-08-26T10:59:42.527Z</time>
      </trkpt>
      <trkpt lat="51.614446" lon="7.097877">
        <ele>68.704105</ele>
        <time>2025-08-26T10:59:47.538Z</time>
      </trkpt>
      <trkpt lat="51.614213" lon="7.097749">
        <ele>68.241105</ele>
        <time>2025-08-26T10:59:53.851Z</time>
      </trkpt>
      <trkpt lat="51.613973" lon="7.097790">
        <ele>67.787202</ele>
        <time>2025-08-26T11:00:00.121Z</time>
      </trkpt>
      <trkpt lat="51.613559" lon="7.097877">
        <ele>67.638340</ele>
        <time>2025-08-26T11:00:07.310Z</time>
      </trkpt>
      <trkpt lat="51.613508" lon="7.097887">
        <ele>67.673761</ele>
        <time>2025-08-26T11:00:08.229Z</time>
      </trkpt>
      <trkpt lat="51.612152" lon="7.098348">
        <ele>68.629239</ele>
        <time>2025-08-26T11:00:42.357Z</time>
      </trkpt>
      <trkpt lat="51.611957" lon="7.098518">
        <ele>68.898145</ele>
        <time>2025-08-26T11:00:48.689Z</time>
      </trkpt>
      <trkpt lat="51.610036" lon="7.101151">
        <ele>72.755619</ele>
        <time>2025-08-26T11:01:56.687Z</time>
      </trkpt>
      <trkpt lat="51.609612" lon="7.101731">
        <ele>73.340573</ele>
        <time>2025-08-26T11:02:08.315Z</time>
      </trkpt>
      <trkpt lat="51.609346" lon="7.102137">
        <ele>73.725933</ele>
        <time>2025-08-26T11:02:15.310Z</time>
      </trkpt>
      <trkpt lat="51.609136" lon="7.102481">
        <ele>74.206817</ele>
        <time>2025-08-26T11:02:21.312Z</time>
      </trkpt>
      <trkpt lat="51.609086" lon="7.102584">
        <ele>74.344856</ele>
        <time>2025-08-26T11:02:23.000Z</time>
      </trkpt>
      <trkpt lat="51.608709" lon="7.103213">
        <ele>75.267873</ele>
        <time>2025-08-26T11:02:34.834Z</time>
      </trkpt>
      <trkpt lat="51.608491" lon="7.103699">
        <ele>75.900895</ele>
        <time>2025-08-26T11:02:44.349Z</time>
      </trkpt>
      <trkpt lat="51.608165" lon="7.103966">
        <ele>76.522748</ele>
        <time>2025-08-26T11:02:55.440Z</time>
      </trkpt>
      <trkpt lat="51.608146" lon="7.103931">
        <ele>76.571833</ele>
        <time>2025-08-26T11:02:56.321Z</time>
      </trkpt>
      <trkpt lat="51.608093" lon="7.103981">
        <ele>76.676272</ele>
        <time>2025-08-26T11:02:58.543Z</time>
      </trkpt>
      <trkpt lat="51.607445" lon="7.104727">
        <ele>78.092705</ele>
        <time>2025-08-26T11:03:22.066Z</time>
      </trkpt>
      <trkpt lat="51.607231" lon="7.104981">
        <ele>78.568088</ele>
        <time>2025-08-26T11:03:29.034Z</time>
      </trkpt>
      <trkpt lat="51.607192" lon="7.105029">
        <ele>78.655863</ele>
        <time>2025-08-26T11:03:30.340Z</time>
      </trkpt>
      <trkpt lat="51.609726" lon="7.110613">
        <ele>82.133824</ele>
        <time>2025-08-26T11:04:56.981Z</time>
      </trkpt>
      <trkpt lat="51.609820" lon="7.110825">
        <ele>82.339390</ele>
        <time>2025-08-26T11:05:00.115Z</time>
      </trkpt>
      <trkpt lat="51.609903" lon="7.111018">
        <ele>82.619793</ele>
        <time>2025-08-26T11:05:02.966Z</time>
      </trkpt>
      <trkpt lat="51.610040" lon="7.111535">
        <ele>83.291180</ele>
        <time>2025-08-26T11:05:10.247Z</time>
      </trkpt>
      <trkpt lat="51.610101" lon="7.112056">
        <ele>83.924438</ele>
        <time>2025-08-26T11:05:18.121Z</time>
      </trkpt>
      <trkpt lat="51.610092" lon="7.112591">
        <ele>84.563688</ele>
        <time>2025-08-26T11:05:27.144Z</time>
      </trkpt>
      <trkpt lat="51.610060" lon="7.112870">
        <ele>84.902568</ele>
        <time>2025-08-26T11:05:32.208Z</time>
      </trkpt>
      <trkpt lat="51.609930" lon="7.113539">
        <ele>85.788952</ele>
        <time>2025-08-26T11:05:45.591Z</time>
      </trkpt>
      <trkpt lat="51.609858" lon="7.113887">
        <ele>86.445456</ele>
        <time>2025-08-26T11:05:52.881Z</time>
      </trkpt>
      <trkpt lat="51.609840" lon="7.113985">
        <ele>86.628367</ele>
        <time>2025-08-26T11:05:54.836Z</time>
      </trkpt>
      <trkpt lat="51.609770" lon="7.114345">
        <ele>87.303538</ele>
        <time>2025-08-26T11:06:02.374Z</time>
      </trkpt>
      <trkpt lat="51.609639" lon="7.114839">
        <ele>88.264933</ele>
        <time>2025-08-26T11:06:13.008Z</time>
      </trkpt>
      <trkpt lat="51.609071" lon="7.116352">
        <ele>90.934516</ele>
        <time>2025-08-26T11:06:44.127Z</time>
      </trkpt>
      <trkpt lat="51.608825" lon="7.117012">
        <ele>91.184019</ele>
        <time>2025-08-26T11:06:54.543Z</time>
      </trkpt>
      <trkpt lat="51.608592" lon="7.117623">
        <ele>91.416424</ele>
        <time>2025-08-26T11:07:02.787Z</time>
      </trkpt>
      <trkpt lat="51.608180" lon="7.118714">
        <ele>91.729652</ele>
        <time>2025-08-26T11:07:16.081Z</time>
      </trkpt>
      <trkpt lat="51.607684" lon="7.120035">
        <ele>91.471808</ele>
        <time>2025-08-26T11:07:31.255Z</time>
      </trkpt>
      <trkpt lat="51.607592" lon="7.120499">
        <ele>91.390450</ele>
        <time>2025-08-26T11:07:36.605Z</time>
      </trkpt>
      <trkpt lat="51.607599" lon="7.121027">
        <ele>91.302236</ele>
        <time>2025-08-26T11:07:43.134Z</time>
      </trkpt>
      <trkpt lat="51.607646" lon="7.121253">
        <ele>91.404728</ele>
        <time>2025-08-26T11:07:46.301Z</time>
      </trkpt>
      <trkpt lat="51.607807" lon="7.122028">
        <ele>92.365849</ele>
        <time>2025-08-26T11:07:58.013Z</time>
      </trkpt>
      <trkpt lat="51.607972" lon="7.122768">
        <ele>93.290554</ele>
        <time>2025-08-26T11:08:11.107Z</time>
      </trkpt>
      <trkpt lat="51.608099" lon="7.123291">
        <ele>93.950998</ele>
        <time>2025-08-26T11:08:20.852Z</time>
      </trkpt>
      <trkpt lat="51.608136" lon="7.123360">
        <ele>94.058213</ele>
        <time>2025-08-26T11:08:22.437Z</time>
      </trkpt>
      <trkpt lat="51.608172" lon="7.123543">
        <ele>94.283977</ele>
        <time>2025-08-26T11:08:25.848Z</time>
      </trkpt>
      <trkpt lat="51.608195" lon="7.123637">
        <ele>94.402800</ele>
        <time>2025-08-26T11:08:27.624Z</time>
      </trkpt>
      <trkpt lat="51.608218" lon="7.123723">
        <ele>94.512924</ele>
        <time>2025-08-26T11:08:29.328Z</time>
      </trkpt>
      <trkpt lat="51.608230" lon="7.123769">
        <ele>94.571603</ele>
        <time>2025-08-26T11:08:30.214Z</time>
      </trkpt>
      <trkpt lat="51.608210" lon="7.123887">
        <ele>94.714858</ele>
        <time>2025-08-26T11:08:32.401Z</time>
      </trkpt>
      <trkpt lat="51.608618" lon="7.125726">
        <ele>96.964314</ele>
        <time>2025-08-26T11:09:04.498Z</time>
      </trkpt>
      <trkpt lat="51.609392" lon="7.129288">
        <ele>99.499883</ele>
        <time>2025-08-26T11:09:55.666Z</time>
      </trkpt>
      <trkpt lat="51.609972" lon="7.131836">
        <ele>99.238110</ele>
        <time>2025-08-26T11:10:24.400Z</time>
      </trkpt>
      <trkpt lat="51.610047" lon="7.132340">
        <ele>99.161947</ele>
        <time>2025-08-26T11:10:29.839Z</time>
      </trkpt>
      <trkpt lat="51.610094" lon="7.132997">
        <ele>99.044149</ele>
        <time>2025-08-26T11:10:36.828Z</time>
      </trkpt>
      <trkpt lat="51.610100" lon="7.133128">
        <ele>99.020752</ele>
        <time>2025-08-26T11:10:38.243Z</time>
      </trkpt>
      <trkpt lat="51.610103" lon="7.133236">
        <ele>99.001496</ele>
        <time>2025-08-26T11:10:39.392Z</time>
      </trkpt>
      <trkpt lat="51.610101" lon="7.133318">
        <ele>98.986879</ele>
        <time>2025-08-26T11:10:40.264Z</time>
      </trkpt>
      <trkpt lat="51.610059" lon="7.133936">
        <ele>98.876145</ele>
        <time>2025-08-26T11:10:46.966Z</time>
      </trkpt>
      <trkpt lat="51.609938" lon="7.134693">
        <ele>98.736914</ele>
        <time>2025-08-26T11:10:55.440Z</time>
      </trkpt>
      <trkpt lat="51.609959" lon="7.134900">
        <ele>98.699555</ele>
        <time>2025-08-26T11:10:57.704Z</time>
      </trkpt>
      <trkpt lat="51.609901" lon="7.134955">
        <ele>98.635418</ele>
        <time>2025-08-26T11:10:58.859Z</time>
      </trkpt>
      <trkpt lat="51.609838" lon="7.135007">
        <ele>98.565338</ele>
        <time>2025-08-26T11:11:00.068Z</time>
      </trkpt>
      <trkpt lat="51.609869" lon="7.135112">
        <ele>98.493866</ele>
        <time>2025-08-26T11:11:01.308Z</time>
      </trkpt>
      <trkpt lat="51.609683" lon="7.136069">
        <ele>97.877413</ele>
        <time>2025-08-26T11:11:11.622Z</time>
      </trkpt>
      <trkpt lat="51.609549" lon="7.136901">
        <ele>97.349020</ele>
        <time>2025-08-26T11:11:20.059Z</time>
      </trkpt>
      <trkpt lat="51.609508" lon="7.137398">
        <ele>97.040804</ele>
        <time>2025-08-26T11:11:24.794Z</time>
      </trkpt>
      <trkpt lat="51.609504" lon="7.137770">
        <ele>96.681371</ele>
        <time>2025-08-26T11:11:28.233Z</time>
      </trkpt>
      <trkpt lat="51.609854" lon="7.143038">
        <ele>89.424162</ele>
        <time>2025-08-26T11:12:15.497Z</time>
      </trkpt>
      <trkpt lat="51.609932" lon="7.144122">
        <ele>88.298621</ele>
        <time>2025-08-26T11:12:25.717Z</time>
      </trkpt>
      <trkpt lat="51.609976" lon="7.144210">
        <ele>88.197940</ele>
        <time>2025-08-26T11:12:26.792Z</time>
      </trkpt>
      <trkpt lat="51.609964" lon="7.144322">
        <ele>88.096656</ele>
        <time>2025-08-26T11:12:27.863Z</time>
      </trkpt>
      <trkpt lat="51.609955" lon="7.144426">
        <ele>88.003080</ele>
        <time>2025-08-26T11:12:28.873Z</time>
      </trkpt>
      <trkpt lat="51.610034" lon="7.145715">
        <ele>86.848803</ele>
        <time>2025-08-26T11:12:41.321Z</time>
      </trkpt>
      <trkpt lat="51.610315" lon="7.149748">
        <ele>83.733070</ele>
        <time>2025-08-26T11:13:20.413Z</time>
      </trkpt>
      <trkpt lat="51.610415" lon="7.151156">
        <ele>82.881680</ele>
        <time>2025-08-26T11:13:34.247Z</time>
      </trkpt>
      <trkpt lat="51.610476" lon="7.151655">
        <ele>82.576146</ele>
        <time>2025-08-26T11:13:39.412Z</time>
      </trkpt>
      <trkpt lat="51.610591" lon="7.152271">
        <ele>82.317058</ele>
        <time>2025-08-26T11:13:46.193Z</time>
      </trkpt>
      <trkpt lat="51.611029" lon="7.154075">
        <ele>81.891229</ele>
        <time>2025-08-26T11:14:07.706Z</time>
      </trkpt>
      <trkpt lat="51.611344" lon="7.155499">
        <ele>80.580768</ele>
        <time>2025-08-26T11:14:22.824Z</time>
      </trkpt>
      <trkpt lat="51.611394" lon="7.155888">
        <ele>80.055159</ele>
        <time>2025-08-26T11:14:26.379Z</time>
      </trkpt>
      <trkpt lat="51.611419" lon="7.156412">
        <ele>79.359794</ele>
        <time>2025-08-26T11:14:30.997Z</time>
      </trkpt>
      <trkpt lat="51.611365" lon="7.157153">
        <ele>78.372624</ele>
        <time>2025-08-26T11:14:37.437Z</time>
      </trkpt>
      <trkpt lat="51.611309" lon="7.157476">
        <ele>77.928908</ele>
        <time>2025-08-26T11:14:40.285Z</time>
      </trkpt>
      <trkpt lat="51.611200" lon="7.157912">
        <ele>77.144698</ele>
        <time>2025-08-26T11:14:44.222Z</time>
      </trkpt>
      <trkpt lat="51.610786" lon="7.159222">
        <ele>74.686035</ele>
        <time>2025-08-26T11:14:56.767Z</time>
      </trkpt>
      <trkpt lat="51.610714" lon="7.159411">
        <ele>74.315148</ele>
        <time>2025-08-26T11:14:58.753Z</time>
      </trkpt>
      <trkpt lat="51.610589" lon="7.159706">
        <ele>73.717774</ele>
        <time>2025-08-26T11:15:01.999Z</time>
      </trkpt>
      <trkpt lat="51.610403" lon="7.160043">
        <ele>73.011599</ele>
        <time>2025-08-26T11:15:06.147Z</time>
      </trkpt>
      <trkpt lat="51.610080" lon="7.160464">
        <ele>72.367184</ele>
        <time>2025-08-26T11:15:12.420Z</time>
      </trkpt>
      <trkpt lat="51.609845" lon="7.160690">
        <ele>71.942713</ele>
        <time>2025-08-26T11:15:16.708Z</time>
      </trkpt>
      <trkpt lat="51.609540" lon="7.160900">
        <ele>71.428312</ele>
        <time>2025-08-26T11:15:22.042Z</time>
      </trkpt>
      <trkpt lat="51.609261" lon="7.161016">
        <ele>70.981463</ele>
        <time>2025-08-26T11:15:26.517Z</time>
      </trkpt>
      <trkpt lat="51.608891" lon="7.161086">
        <ele>70.403739</ele>
        <time>2025-08-26T11:15:32.122Z</time>
      </trkpt>
      <trkpt lat="51.608631" lon="7.161077">
        <ele>69.859572</ele>
        <time>2025-08-26T11:15:35.924Z</time>
      </trkpt>
      <trkpt lat="51.607711" lon="7.160855">
        <ele>67.708875</ele>
        <time>2025-08-26T11:15:49.130Z</time>
      </trkpt>
      <trkpt lat="51.606632" lon="7.160594">
        <ele>65.568926</ele>
        <time>2025-08-26T11:16:04.708Z</time>
      </trkpt>
      <trkpt lat="51.606316" lon="7.160599">
        <ele>65.134785</ele>
        <time>2025-08-26T11:16:09.515Z</time>
      </trkpt>
      <trkpt lat="51.606113" lon="7.160653">
        <ele>64.852124</ele>
        <time>2025-08-26T11:16:12.734Z</time>
      </trkpt>
      <trkpt lat="51.605843" lon="7.160786">
        <ele>64.464228</ele>
        <time>2025-08-26T11:16:17.213Z</time>
      </trkpt>
      <trkpt lat="51.604643" lon="7.161693">
        <ele>63.424496</ele>
        <time>2025-08-26T11:16:38.916Z</time>
      </trkpt>
      <trkpt lat="51.604468" lon="7.161856">
        <ele>63.360550</ele>
        <time>2025-08-26T11:16:42.279Z</time>
      </trkpt>
      <trkpt lat="51.604293" lon="7.162087">
        <ele>63.288973</ele>
        <time>2025-08-26T11:16:46.164Z</time>
      </trkpt>
      <trkpt lat="51.604069" lon="7.162519">
        <ele>63.178420</ele>
        <time>2025-08-26T11:16:52.470Z</time>
      </trkpt>
      <trkpt lat="51.603854" lon="7.163255">
        <ele>63.193130</ele>
        <time>2025-08-26T11:17:01.754Z</time>
      </trkpt>
      <trkpt lat="51.603812" lon="7.163304">
        <ele>63.217227</ele>
        <time>2025-08-26T11:17:02.756Z</time>
      </trkpt>
      <trkpt lat="51.603811" lon="7.163418">
        <ele>63.250126</ele>
        <time>2025-08-26T11:17:04.121Z</time>
      </trkpt>
      <trkpt lat="51.603783" lon="7.163457">
        <ele>63.267327</ele>
        <time>2025-08-26T11:17:04.817Z</time>
      </trkpt>
      <trkpt lat="51.603749" lon="7.163517">
        <ele>63.290763</ele>
        <time>2025-08-26T11:17:05.805Z</time>
      </trkpt>
      <trkpt lat="51.603767" lon="7.163593">
        <ele>63.314234</ele>
        <time>2025-08-26T11:17:06.790Z</time>
      </trkpt>
      <trkpt lat="51.603734" lon="7.163709">
        <ele>63.351051</ele>
        <time>2025-08-26T11:17:08.340Z</time>
      </trkpt>
      <trkpt lat="51.603752" lon="7.163781">
        <ele>63.373447</ele>
        <time>2025-08-26T11:17:09.328Z</time>
      </trkpt>
      <trkpt lat="51.603725" lon="7.163848">
        <ele>63.396493</ele>
        <time>2025-08-26T11:17:10.290Z</time>
      </trkpt>
      <trkpt lat="51.603691" lon="7.163904">
        <ele>63.419090</ele>
        <time>2025-08-26T11:17:11.241Z</time>
      </trkpt>
      <trkpt lat="51.603687" lon="7.164003">
        <ele>63.447718</ele>
        <time>2025-08-26T11:17:12.532Z</time>
      </trkpt>
      <trkpt lat="51.603647" lon="7.164047">
        <ele>63.470225</ele>
        <time>2025-08-26T11:17:13.505Z</time>
      </trkpt>
      <trkpt lat="51.603074" lon="7.166218">
        <ele>64.379772</ele>
        <time>2025-08-26T11:17:42.893Z</time>
      </trkpt>
      <trkpt lat="51.602633" lon="7.167957">
        <ele>65.470821</ele>
        <time>2025-08-26T11:18:08.837Z</time>
      </trkpt>
      <trkpt lat="51.602374" lon="7.168976">
        <ele>65.881896</ele>
        <time>2025-08-26T11:18:24.068Z</time>
      </trkpt>
      <trkpt lat="51.601531" lon="7.173122">
        <ele>66.649719</ele>
        <time>2025-08-26T11:19:15.121Z</time>
      </trkpt>
      <trkpt lat="51.601267" lon="7.174030">
        <ele>66.422067</ele>
        <time>2025-08-26T11:19:25.576Z</time>
      </trkpt>
      <trkpt lat="51.600947" lon="7.174351">
        <ele>66.066720</ele>
        <time>2025-08-26T11:19:31.729Z</time>
      </trkpt>
      <trkpt lat="51.600670" lon="7.174614">
        <ele>65.763634</ele>
        <time>2025-08-26T11:19:36.820Z</time>
      </trkpt>
      <trkpt lat="51.600440" lon="7.174762">
        <ele>65.530189</ele>
        <time>2025-08-26T11:19:40.711Z</time>
      </trkpt>
      <trkpt lat="51.600139" lon="7.174862">
        <ele>65.240524</ele>
        <time>2025-08-26T11:19:45.493Z</time>
      </trkpt>
      <trkpt lat="51.599786" lon="7.174874">
        <ele>64.885451</ele>
        <time>2025-08-26T11:19:50.924Z</time>
      </trkpt>
      <trkpt lat="51.599509" lon="7.174794">
        <ele>64.543091</ele>
        <time>2025-08-26T11:19:55.231Z</time>
      </trkpt>
      <trkpt lat="51.599329" lon="7.174704">
        <ele>64.313796</ele>
        <time>2025-08-26T11:19:58.105Z</time>
      </trkpt>
      <trkpt lat="51.598924" lon="7.174348">
        <ele>63.752441</ele>
        <time>2025-08-26T11:20:05.187Z</time>
      </trkpt>
      <trkpt lat="51.598709" lon="7.174043">
        <ele>63.403827</ele>
        <time>2025-08-26T11:20:09.642Z</time>
      </trkpt>
      <trkpt lat="51.598524" lon="7.173690">
        <ele>63.054816</ele>
        <time>2025-08-26T11:20:14.168Z</time>
      </trkpt>
      <trkpt lat="51.597637" lon="7.171526">
        <ele>61.457794</ele>
        <time>2025-08-26T11:20:40.494Z</time>
      </trkpt>
      <trkpt lat="51.597543" lon="7.171294">
        <ele>61.293055</ele>
        <time>2025-08-26T11:20:43.202Z</time>
      </trkpt>
      <trkpt lat="51.597407" lon="7.170968">
        <ele>61.042522</ele>
        <time>2025-08-26T11:20:46.964Z</time>
      </trkpt>
      <trkpt lat="51.597217" lon="7.170521">
        <ele>60.348897</ele>
        <time>2025-08-26T11:20:52.027Z</time>
      </trkpt>
      <trkpt lat="51.596967" lon="7.170048">
        <ele>59.553566</ele>
        <time>2025-08-26T11:20:57.669Z</time>
      </trkpt>
      <trkpt lat="51.596210" lon="7.168953">
        <ele>57.455475</ele>
        <time>2025-08-26T11:21:12.193Z</time>
      </trkpt>
      <trkpt lat="51.595819" lon="7.168492">
        <ele>56.620456</ele>
        <time>2025-08-26T11:21:19.217Z</time>
      </trkpt>
      <trkpt lat="51.595480" lon="7.168204">
        <ele>55.972784</ele>
        <time>2025-08-26T11:21:24.895Z</time>
      </trkpt>
      <trkpt lat="51.595092" lon="7.167984">
        <ele>55.277713</ele>
        <time>2025-08-26T11:21:31.117Z</time>
      </trkpt>
      <trkpt lat="51.594914" lon="7.167921">
        <ele>54.969768</ele>
        <time>2025-08-26T11:21:33.897Z</time>
      </trkpt>
      <trkpt lat="51.593804" lon="7.167775">
        <ele>53.834597</ele>
        <time>2025-08-26T11:21:51.460Z</time>
      </trkpt>
      <trkpt lat="51.593613" lon="7.167754">
        <ele>53.706033</ele>
        <time>2025-08-26T11:21:54.590Z</time>
      </trkpt>
      <trkpt lat="51.593424" lon="7.167735">
        <ele>53.578864</ele>
        <time>2025-08-26T11:21:57.730Z</time>
      </trkpt>
      <trkpt lat="51.587076" lon="7.167048">
        <ele>52.223598</ele>
        <time>2025-08-26T11:23:48.914Z</time>
      </trkpt>
      <trkpt lat="51.586705" lon="7.166980">
        <ele>52.035768</ele>
        <time>2025-08-26T11:23:54.975Z</time>
      </trkpt>
      <trkpt lat="51.585718" lon="7.166676">
        <ele>51.530270</ele>
        <time>2025-08-26T11:24:11.469Z</time>
      </trkpt>
      <trkpt lat="51.584052" lon="7.165842">
        <ele>50.810802</ele>
        <time>2025-08-26T11:24:41.896Z</time>
      </trkpt>
      <trkpt lat="51.583718" lon="7.165664">
        <ele>50.442824</ele>
        <time>2025-08-26T11:24:47.559Z</time>
      </trkpt>
      <trkpt lat="51.583559" lon="7.165579">
        <ele>50.138009</ele>
        <time>2025-08-26T11:24:50.186Z</time>
      </trkpt>
      <trkpt lat="51.583369" lon="7.165483">
        <ele>49.775701</ele>
        <time>2025-08-26T11:24:53.236Z</time>
      </trkpt>
      <trkpt lat="51.579618" lon="7.163523">
        <ele>41.811611</ele>
        <time>2025-08-26T11:25:50.220Z</time>
      </trkpt>
      <trkpt lat="51.579378" lon="7.163400">
        <ele>41.339529</ele>
        <time>2025-08-26T11:25:53.823Z</time>
      </trkpt>
      <trkpt lat="51.578946" lon="7.163170">
        <ele>40.486687</ele>
        <time>2025-08-26T11:26:00.558Z</time>
      </trkpt>
      <trkpt lat="51.578629" lon="7.163001">
        <ele>40.189398</ele>
        <time>2025-08-26T11:26:05.754Z</time>
      </trkpt>
      <trkpt lat="51.578510" lon="7.162936">
        <ele>40.313335</ele>
        <time>2025-08-26T11:26:07.772Z</time>
      </trkpt>
      <trkpt lat="51.577758" lon="7.162540">
        <ele>41.093673</ele>
        <time>2025-08-26T11:26:22.906Z</time>
      </trkpt>
      <trkpt lat="51.577470" lon="7.162434">
        <ele>41.385038</ele>
        <time>2025-08-26T11:26:30.487Z</time>
      </trkpt>
      <trkpt lat="51.577214" lon="7.162375">
        <ele>41.640087</ele>
        <time>2025-08-26T11:26:37.827Z</time>
      </trkpt>
      <trkpt lat="51.576803" lon="7.162373">
        <ele>42.530053</ele>
        <time>2025-08-26T11:26:50.014Z</time>
      </trkpt>
      <trkpt lat="51.576234" lon="7.162420">
        <ele>44.485075</ele>
        <time>2025-08-26T11:27:07.770Z</time>
      </trkpt>
      <trkpt lat="51.575608" lon="7.162513">
        <ele>46.642251</ele>
        <time>2025-08-26T11:27:28.405Z</time>
      </trkpt>
      <trkpt lat="51.575139" lon="7.162647">
        <ele>48.267862</ele>
        <time>2025-08-26T11:27:44.273Z</time>
      </trkpt>
      <trkpt lat="51.574961" lon="7.162701">
        <ele>48.867767</ele>
        <time>2025-08-26T11:27:50.241Z</time>
      </trkpt>
      <trkpt lat="51.571902" lon="7.163779">
        <ele>57.641695</ele>
        <time>2025-08-26T11:29:25.787Z</time>
      </trkpt>
      <trkpt lat="51.571815" lon="7.164002">
        <ele>58.019095</ele>
        <time>2025-08-26T11:29:29.335Z</time>
      </trkpt>
      <trkpt lat="51.571849" lon="7.164048">
        <ele>58.121545</ele>
        <time>2025-08-26T11:29:30.273Z</time>
      </trkpt>
      <trkpt lat="51.572059" lon="7.164035">
        <ele>57.907966</ele>
        <time>2025-08-26T11:29:33.517Z</time>
      </trkpt>
      <trkpt lat="51.572094" lon="7.164048">
        <ele>57.870159</ele>
        <time>2025-08-26T11:29:34.072Z</time>
      </trkpt>
      <trkpt lat="51.572113" lon="7.164112">
        <ele>57.823761</ele>
        <time>2025-08-26T11:29:34.718Z</time>
      </trkpt>
      <trkpt lat="51.572390" lon="7.166311">
        <ele>56.356001</ele>
        <time>2025-08-26T11:29:55.445Z</time>
      </trkpt>
      <trkpt lat="51.572797" lon="7.169533">
        <ele>55.908184</ele>
        <time>2025-08-26T11:30:32.506Z</time>
      </trkpt>
      <trkpt lat="51.572803" lon="7.169579">
        <ele>55.893053</ele>
        <time>2025-08-26T11:30:33.176Z</time>
      </trkpt>
      <trkpt lat="51.572912" lon="7.170416">
        <ele>55.617760</ele>
        <time>2025-08-26T11:30:45.101Z</time>
      </trkpt>
      <trkpt lat="51.572930" lon="7.170575">
        <ele>55.565733</ele>
        <time>2025-08-26T11:30:47.391Z</time>
      </trkpt>
      <trkpt lat="51.573019" lon="7.171269">
        <ele>55.337619</ele>
        <time>2025-08-26T11:30:54.794Z</time>
      </trkpt>
      <trkpt lat="51.573077" lon="7.171367">
        <ele>55.294056</ele>
        <time>2025-08-26T11:30:56.179Z</time>
      </trkpt>
      <trkpt lat="51.573047" lon="7.171562">
        <ele>55.229388</ele>
        <time>2025-08-26T11:30:58.232Z</time>
      </trkpt>
      <trkpt lat="51.572991" lon="7.171639">
        <ele>55.191234</ele>
        <time>2025-08-26T11:30:59.423Z</time>
      </trkpt>
      <trkpt lat="51.572933" lon="7.171735">
        <ele>55.148136</ele>
        <time>2025-08-26T11:31:00.757Z</time>
      </trkpt>
      <trkpt lat="51.572961" lon="7.172121">
        <ele>54.999022</ele>
        <time>2025-08-26T11:31:04.584Z</time>
      </trkpt>
      <trkpt lat="51.572941" lon="7.172391">
        <ele>54.807255</ele>
        <time>2025-08-26T11:31:07.237Z</time>
      </trkpt>
      <trkpt lat="51.572883" lon="7.172637">
        <ele>54.621698</ele>
        <time>2025-08-26T11:31:09.812Z</time>
      </trkpt>
      <trkpt lat="51.572387" lon="7.174225">
        <ele>53.368276</ele>
        <time>2025-08-26T11:31:27.147Z</time>
      </trkpt>
      <trkpt lat="51.572287" lon="7.174691">
        <ele>53.020585</ele>
        <time>2025-08-26T11:31:31.922Z</time>
      </trkpt>
      <trkpt lat="51.572231" lon="7.175140">
        <ele>52.701438</ele>
        <time>2025-08-26T11:31:36.371Z</time>
      </trkpt>
      <trkpt lat="51.572133" lon="7.176402">
        <ele>51.815750</ele>
        <time>2025-08-26T11:31:48.615Z</time>
      </trkpt>
      <trkpt lat="51.572072" lon="7.176741">
        <ele>51.569976</ele>
        <time>2025-08-26T11:31:52.097Z</time>
      </trkpt>
      <trkpt lat="51.571986" lon="7.177058">
        <ele>51.329103</ele>
        <time>2025-08-26T11:31:55.538Z</time>
      </trkpt>
      <trkpt lat="51.571908" lon="7.177238">
        <ele>51.176292</ele>
        <time>2025-08-26T11:31:57.716Z</time>
      </trkpt>
      <trkpt lat="51.571793" lon="7.177357">
        <ele>51.023090</ele>
        <time>2025-08-26T11:31:59.912Z</time>
      </trkpt>
      <trkpt lat="51.571449" lon="7.177476">
        <ele>50.710514</ele>
        <time>2025-08-26T11:32:05.546Z</time>
      </trkpt>
      <trkpt lat="51.571300" lon="7.177563">
        <ele>50.573421</ele>
        <time>2025-08-26T11:32:08.078Z</time>
      </trkpt>
      <trkpt lat="51.571116" lon="7.177748">
        <ele>50.385761</ele>
        <time>2025-08-26T11:32:11.531Z</time>
      </trkpt>
      <trkpt lat="51.570758" lon="7.178202">
        <ele>49.991506</ele>
        <time>2025-08-26T11:32:19.009Z</time>
      </trkpt>
      <trkpt lat="51.570571" lon="7.178355">
        <ele>49.810058</ele>
        <time>2025-08-26T11:32:22.506Z</time>
      </trkpt>
      <trkpt lat="51.570460" lon="7.178408">
        <ele>49.709916</ele>
        <time>2025-08-26T11:32:24.409Z</time>
      </trkpt>
      <trkpt lat="51.570206" lon="7.178388">
        <ele>49.489970</ele>
        <time>2025-08-26T11:32:28.499Z</time>
      </trkpt>
      <trkpt lat="51.569792" lon="7.178217">
        <ele>49.100152</ele>
        <time>2025-08-26T11:32:35.222Z</time>
      </trkpt>
      <trkpt lat="51.569712" lon="7.178193">
        <ele>49.025210</ele>
        <time>2025-08-26T11:32:36.482Z</time>
      </trkpt>
      <trkpt lat="51.569562" lon="7.178038">
        <ele>48.861035</ele>
        <time>2025-08-26T11:32:39.229Z</time>
      </trkpt>
      <trkpt lat="51.569428" lon="7.178028">
        <ele>48.737501</ele>
        <time>2025-08-26T11:32:41.326Z</time>
      </trkpt>
      <trkpt lat="51.568602" lon="7.178534">
        <ele>47.923556</ele>
        <time>2025-08-26T11:32:55.518Z</time>
      </trkpt>
      <trkpt lat="51.568249" lon="7.178765">
        <ele>47.793539</ele>
        <time>2025-08-26T11:33:01.739Z</time>
      </trkpt>
      <trkpt lat="51.568219" lon="7.178649">
        <ele>47.800170</ele>
        <time>2025-08-26T11:33:03.061Z</time>
      </trkpt>
      <trkpt lat="51.568196" lon="7.178541">
        <ele>47.806195</ele>
        <time>2025-08-26T11:33:04.269Z</time>
      </trkpt>
      <trkpt lat="51.568205" lon="7.178364">
        <ele>47.815567</ele>
        <time>2025-08-26T11:33:06.177Z</time>
      </trkpt>
      <trkpt lat="51.568354" lon="7.177565">
        <ele>47.859591</ele>
        <time>2025-08-26T11:33:15.814Z</time>
      </trkpt>
      <trkpt lat="51.568340" lon="7.177229">
        <ele>47.877363</ele>
        <time>2025-08-26T11:33:19.972Z</time>
      </trkpt>
      <trkpt lat="51.568271" lon="7.176967">
        <ele>47.892380</ele>
        <time>2025-08-26T11:33:23.434Z</time>
      </trkpt>
      <trkpt lat="51.568184" lon="7.176861">
        <ele>47.901646</ele>
        <time>2025-08-26T11:33:25.507Z</time>
      </trkpt>
      <trkpt lat="51.568010" lon="7.176750">
        <ele>47.917538</ele>
        <time>2025-08-26T11:33:29.045Z</time>
      </trkpt>
      <trkpt lat="51.567924" lon="7.176717">
        <ele>47.925045</ele>
        <time>2025-08-26T11:33:30.748Z</time>
      </trkpt>
      <trkpt lat="51.567001" lon="7.176362">
        <ele>48.332755</ele>
        <time>2025-08-26T11:33:49.851Z</time>
      </trkpt>
      <trkpt lat="51.566830" lon="7.176248">
        <ele>48.414368</ele>
        <time>2025-08-26T11:33:53.568Z</time>
      </trkpt>
      <trkpt lat="51.566172" lon="7.175620">
        <ele>48.720650</ele>
        <time>2025-08-26T11:34:08.369Z</time>
      </trkpt>
      <trkpt lat="51.565443" lon="7.175259">
        <ele>48.720650</ele>
        <time>2025-08-26T11:34:22.282Z</time>
      </trkpt>
      <trkpt lat="51.565261" lon="7.175245">
        <ele>48.720650</ele>
        <time>2025-08-26T11:34:25.532Z</time>
      </trkpt>
      <trkpt lat="51.565091" lon="7.175305">
        <ele>48.720650</ele>
        <time>2025-08-26T11:34:28.633Z</time>
      </trkpt>
      <trkpt lat="51.564934" lon="7.175467">
        <ele>48.720650</ele>
        <time>2025-08-26T11:34:31.930Z</time>
      </trkpt>
      <trkpt lat="51.564712" lon="7.175812">
        <ele>48.720650</ele>
        <time>2025-08-26T11:34:37.398Z</time>
      </trkpt>
      <trkpt lat="51.564734" lon="7.175963">
        <ele>48.720650</ele>
        <time>2025-08-26T11:34:39.115Z</time>
      </trkpt>
    </trkseg>
  </trk>
</gpx>